<?xml version="1.0" encoding="UTF-8" standalone="no" ?>
<gpx xmlns="http://www.topografix.com/GPX/1/1" xmlns:xsi="http://www.w3.org/2001/XMLSchema-instance" xsi:schemaLocation="http://www.topografix.com/GPX/1/1 http://www.topografix.com/GPX/1/1/gpx.xsd" version="1.1" creator="VisuGPX - https://www.visugpx.com">
  <metadata>
    <name>Cote Rouge et Monteynard</name>
    <desc><![CDATA[Singles de Cote Rouge, Baraton et passerelles]]></desc>
  </metadata>
  <trk>
    <name><![CDATA[MONTEYNARD]]></name>
    <trkseg>
      <trkpt lat="44.89738" lon="5.63921">
        <ele>890.32</ele>
        <time>2010-05-29T12:09:23Z</time>
      </trkpt>
      <trkpt lat="44.89741" lon="5.63922">
        <ele>886.95</ele>
        <time>2010-05-29T12:09:28Z</time>
      </trkpt>
      <trkpt lat="44.8974" lon="5.63921">
        <ele>889.84</ele>
        <time>2010-05-29T12:09:32Z</time>
      </trkpt>
      <trkpt lat="44.89727" lon="5.63912">
        <ele>893.2</ele>
        <time>2010-05-29T12:09:39Z</time>
      </trkpt>
      <trkpt lat="44.89728" lon="5.63912">
        <ele>897.53</ele>
        <time>2010-05-29T12:09:41Z</time>
      </trkpt>
      <trkpt lat="44.89728" lon="5.63913">
        <ele>900.89</ele>
        <time>2010-05-29T12:09:43Z</time>
      </trkpt>
      <trkpt lat="44.89728" lon="5.63913">
        <ele>904.26</ele>
        <time>2010-05-29T12:09:45Z</time>
      </trkpt>
      <trkpt lat="44.89728" lon="5.63913">
        <ele>907.62</ele>
        <time>2010-05-29T12:09:48Z</time>
      </trkpt>
      <trkpt lat="44.89726" lon="5.63913">
        <ele>912.43</ele>
        <time>2010-05-29T12:09:51Z</time>
      </trkpt>
      <trkpt lat="44.89726" lon="5.63913">
        <ele>911.47</ele>
        <time>2010-05-29T12:09:52Z</time>
      </trkpt>
      <trkpt lat="44.89726" lon="5.63912">
        <ele>915.31</ele>
        <time>2010-05-29T12:09:54Z</time>
      </trkpt>
      <trkpt lat="44.89726" lon="5.63911">
        <ele>918.68</ele>
        <time>2010-05-29T12:09:57Z</time>
      </trkpt>
      <trkpt lat="44.89726" lon="5.63911">
        <ele>918.68</ele>
        <time>2010-05-29T12:09:58Z</time>
      </trkpt>
      <trkpt lat="44.89726" lon="5.63911">
        <ele>923</ele>
        <time>2010-05-29T12:10:00Z</time>
      </trkpt>
      <trkpt lat="44.89726" lon="5.63911">
        <ele>922.04</ele>
        <time>2010-05-29T12:10:01Z</time>
      </trkpt>
      <trkpt lat="44.89725" lon="5.63911">
        <ele>925.41</ele>
        <time>2010-05-29T12:10:05Z</time>
      </trkpt>
      <trkpt lat="44.89725" lon="5.6391">
        <ele>927.81</ele>
        <time>2010-05-29T12:10:08Z</time>
      </trkpt>
      <trkpt lat="44.89726" lon="5.63911">
        <ele>931.17</ele>
        <time>2010-05-29T12:10:14Z</time>
      </trkpt>
      <trkpt lat="44.89727" lon="5.63912">
        <ele>932.14</ele>
        <time>2010-05-29T12:10:16Z</time>
      </trkpt>
      <trkpt lat="44.89727" lon="5.63911">
        <ele>933.58</ele>
        <time>2010-05-29T12:10:19Z</time>
      </trkpt>
      <trkpt lat="44.89728" lon="5.63913">
        <ele>935.02</ele>
        <time>2010-05-29T12:10:23Z</time>
      </trkpt>
      <trkpt lat="44.89729" lon="5.63917">
        <ele>938.38</ele>
        <time>2010-05-29T12:10:31Z</time>
      </trkpt>
      <trkpt lat="44.89729" lon="5.63915">
        <ele>939.83</ele>
        <time>2010-05-29T12:10:34Z</time>
      </trkpt>
      <trkpt lat="44.89732" lon="5.63911">
        <ele>942.23</ele>
        <time>2010-05-29T12:10:41Z</time>
      </trkpt>
      <trkpt lat="44.89729" lon="5.63915">
        <ele>945.11</ele>
        <time>2010-05-29T12:10:59Z</time>
      </trkpt>
      <trkpt lat="44.89727" lon="5.63914">
        <ele>946.07</ele>
        <time>2010-05-29T12:11:20Z</time>
      </trkpt>
      <trkpt lat="44.89717" lon="5.63947">
        <ele>947.52</ele>
        <time>2010-05-29T12:11:30Z</time>
      </trkpt>
      <trkpt lat="44.89717" lon="5.63953">
        <ele>947.04</ele>
        <time>2010-05-29T12:11:31Z</time>
      </trkpt>
      <trkpt lat="44.89718" lon="5.63959">
        <ele>946.07</ele>
        <time>2010-05-29T12:11:32Z</time>
      </trkpt>
      <trkpt lat="44.8972" lon="5.63964">
        <ele>946.07</ele>
        <time>2010-05-29T12:11:33Z</time>
      </trkpt>
      <trkpt lat="44.89722" lon="5.63969">
        <ele>946.07</ele>
        <time>2010-05-29T12:11:34Z</time>
      </trkpt>
      <trkpt lat="44.89724" lon="5.63974">
        <ele>945.59</ele>
        <time>2010-05-29T12:11:35Z</time>
      </trkpt>
      <trkpt lat="44.89726" lon="5.6398">
        <ele>945.11</ele>
        <time>2010-05-29T12:11:36Z</time>
      </trkpt>
      <trkpt lat="44.89728" lon="5.63987">
        <ele>944.63</ele>
        <time>2010-05-29T12:11:37Z</time>
      </trkpt>
      <trkpt lat="44.89732" lon="5.64001">
        <ele>943.19</ele>
        <time>2010-05-29T12:11:39Z</time>
      </trkpt>
      <trkpt lat="44.89734" lon="5.64009">
        <ele>943.67</ele>
        <time>2010-05-29T12:11:40Z</time>
      </trkpt>
      <trkpt lat="44.89741" lon="5.64032">
        <ele>942.71</ele>
        <time>2010-05-29T12:11:43Z</time>
      </trkpt>
      <trkpt lat="44.89743" lon="5.64041">
        <ele>942.71</ele>
        <time>2010-05-29T12:11:44Z</time>
      </trkpt>
      <trkpt lat="44.89747" lon="5.64057">
        <ele>941.75</ele>
        <time>2010-05-29T12:11:46Z</time>
      </trkpt>
      <trkpt lat="44.89748" lon="5.64065">
        <ele>941.75</ele>
        <time>2010-05-29T12:11:47Z</time>
      </trkpt>
      <trkpt lat="44.89748" lon="5.64073">
        <ele>941.27</ele>
        <time>2010-05-29T12:11:48Z</time>
      </trkpt>
      <trkpt lat="44.89748" lon="5.64082">
        <ele>941.27</ele>
        <time>2010-05-29T12:11:49Z</time>
      </trkpt>
      <trkpt lat="44.89747" lon="5.64091">
        <ele>940.31</ele>
        <time>2010-05-29T12:11:50Z</time>
      </trkpt>
      <trkpt lat="44.89746" lon="5.641">
        <ele>939.83</ele>
        <time>2010-05-29T12:11:51Z</time>
      </trkpt>
      <trkpt lat="44.89746" lon="5.64109">
        <ele>939.83</ele>
        <time>2010-05-29T12:11:52Z</time>
      </trkpt>
      <trkpt lat="44.89746" lon="5.64127">
        <ele>939.35</ele>
        <time>2010-05-29T12:11:54Z</time>
      </trkpt>
      <trkpt lat="44.89749" lon="5.64149">
        <ele>937.9</ele>
        <time>2010-05-29T12:11:57Z</time>
      </trkpt>
      <trkpt lat="44.89749" lon="5.64184">
        <ele>935.5</ele>
        <time>2010-05-29T12:12:01Z</time>
      </trkpt>
      <trkpt lat="44.89748" lon="5.64195">
        <ele>935.5</ele>
        <time>2010-05-29T12:12:02Z</time>
      </trkpt>
      <trkpt lat="44.89746" lon="5.64207">
        <ele>934.54</ele>
        <time>2010-05-29T12:12:03Z</time>
      </trkpt>
      <trkpt lat="44.89744" lon="5.64219">
        <ele>934.06</ele>
        <time>2010-05-29T12:12:04Z</time>
      </trkpt>
      <trkpt lat="44.89733" lon="5.64264">
        <ele>930.69</ele>
        <time>2010-05-29T12:12:08Z</time>
      </trkpt>
      <trkpt lat="44.89731" lon="5.64275">
        <ele>930.69</ele>
        <time>2010-05-29T12:12:09Z</time>
      </trkpt>
      <trkpt lat="44.89729" lon="5.64286">
        <ele>930.69</ele>
        <time>2010-05-29T12:12:10Z</time>
      </trkpt>
      <trkpt lat="44.89716" lon="5.6433">
        <ele>928.77</ele>
        <time>2010-05-29T12:12:14Z</time>
      </trkpt>
      <trkpt lat="44.89693" lon="5.64395">
        <ele>925.89</ele>
        <time>2010-05-29T12:12:20Z</time>
      </trkpt>
      <trkpt lat="44.89667" lon="5.64447">
        <ele>923</ele>
        <time>2010-05-29T12:12:25Z</time>
      </trkpt>
      <trkpt lat="44.8966" lon="5.64457">
        <ele>922.52</ele>
        <time>2010-05-29T12:12:26Z</time>
      </trkpt>
      <trkpt lat="44.89653" lon="5.64466">
        <ele>922.04</ele>
        <time>2010-05-29T12:12:27Z</time>
      </trkpt>
      <trkpt lat="44.89647" lon="5.64473">
        <ele>921.56</ele>
        <time>2010-05-29T12:12:28Z</time>
      </trkpt>
      <trkpt lat="44.8964" lon="5.6448">
        <ele>921.56</ele>
        <time>2010-05-29T12:12:29Z</time>
      </trkpt>
      <trkpt lat="44.89633" lon="5.64486">
        <ele>921.56</ele>
        <time>2010-05-29T12:12:30Z</time>
      </trkpt>
      <trkpt lat="44.89629" lon="5.64494">
        <ele>921.56</ele>
        <time>2010-05-29T12:12:31Z</time>
      </trkpt>
      <trkpt lat="44.89626" lon="5.64503">
        <ele>921.08</ele>
        <time>2010-05-29T12:12:32Z</time>
      </trkpt>
      <trkpt lat="44.89625" lon="5.64513">
        <ele>921.08</ele>
        <time>2010-05-29T12:12:33Z</time>
      </trkpt>
      <trkpt lat="44.89625" lon="5.64523">
        <ele>921.08</ele>
        <time>2010-05-29T12:12:34Z</time>
      </trkpt>
      <trkpt lat="44.89627" lon="5.64533">
        <ele>921.56</ele>
        <time>2010-05-29T12:12:35Z</time>
      </trkpt>
      <trkpt lat="44.89629" lon="5.64543">
        <ele>921.08</ele>
        <time>2010-05-29T12:12:36Z</time>
      </trkpt>
      <trkpt lat="44.89632" lon="5.64553">
        <ele>921.56</ele>
        <time>2010-05-29T12:12:37Z</time>
      </trkpt>
      <trkpt lat="44.89636" lon="5.64562">
        <ele>921.56</ele>
        <time>2010-05-29T12:12:38Z</time>
      </trkpt>
      <trkpt lat="44.89642" lon="5.64578">
        <ele>921.56</ele>
        <time>2010-05-29T12:12:40Z</time>
      </trkpt>
      <trkpt lat="44.89646" lon="5.64586">
        <ele>921.56</ele>
        <time>2010-05-29T12:12:41Z</time>
      </trkpt>
      <trkpt lat="44.8965" lon="5.64594">
        <ele>921.56</ele>
        <time>2010-05-29T12:12:42Z</time>
      </trkpt>
      <trkpt lat="44.89653" lon="5.64602">
        <ele>921.56</ele>
        <time>2010-05-29T12:12:43Z</time>
      </trkpt>
      <trkpt lat="44.89655" lon="5.64609">
        <ele>921.08</ele>
        <time>2010-05-29T12:12:44Z</time>
      </trkpt>
      <trkpt lat="44.89657" lon="5.64616">
        <ele>921.08</ele>
        <time>2010-05-29T12:12:45Z</time>
      </trkpt>
      <trkpt lat="44.89658" lon="5.64622">
        <ele>921.08</ele>
        <time>2010-05-29T12:12:46Z</time>
      </trkpt>
      <trkpt lat="44.8966" lon="5.64628">
        <ele>920.6</ele>
        <time>2010-05-29T12:12:47Z</time>
      </trkpt>
      <trkpt lat="44.8966" lon="5.64633">
        <ele>921.56</ele>
        <time>2010-05-29T12:12:48Z</time>
      </trkpt>
      <trkpt lat="44.89659" lon="5.64638">
        <ele>921.56</ele>
        <time>2010-05-29T12:12:49Z</time>
      </trkpt>
      <trkpt lat="44.89657" lon="5.64653">
        <ele>922.04</ele>
        <time>2010-05-29T12:12:51Z</time>
      </trkpt>
      <trkpt lat="44.89653" lon="5.64676">
        <ele>922.04</ele>
        <time>2010-05-29T12:12:54Z</time>
      </trkpt>
      <trkpt lat="44.89652" lon="5.64683">
        <ele>921.56</ele>
        <time>2010-05-29T12:12:55Z</time>
      </trkpt>
      <trkpt lat="44.8965" lon="5.64691">
        <ele>921.56</ele>
        <time>2010-05-29T12:12:56Z</time>
      </trkpt>
      <trkpt lat="44.89647" lon="5.64704">
        <ele>922.04</ele>
        <time>2010-05-29T12:12:58Z</time>
      </trkpt>
      <trkpt lat="44.89639" lon="5.64727">
        <ele>922.04</ele>
        <time>2010-05-29T12:13:02Z</time>
      </trkpt>
      <trkpt lat="44.89638" lon="5.64733">
        <ele>922.04</ele>
        <time>2010-05-29T12:13:03Z</time>
      </trkpt>
      <trkpt lat="44.89638" lon="5.6474">
        <ele>922.04</ele>
        <time>2010-05-29T12:13:04Z</time>
      </trkpt>
      <trkpt lat="44.89639" lon="5.64747">
        <ele>922.52</ele>
        <time>2010-05-29T12:13:05Z</time>
      </trkpt>
      <trkpt lat="44.89641" lon="5.64753">
        <ele>922.52</ele>
        <time>2010-05-29T12:13:06Z</time>
      </trkpt>
      <trkpt lat="44.89643" lon="5.64759">
        <ele>922.52</ele>
        <time>2010-05-29T12:13:07Z</time>
      </trkpt>
      <trkpt lat="44.89651" lon="5.64815">
        <ele>923</ele>
        <time>2010-05-29T12:13:15Z</time>
      </trkpt>
      <trkpt lat="44.8965" lon="5.64834">
        <ele>923</ele>
        <time>2010-05-29T12:13:17Z</time>
      </trkpt>
      <trkpt lat="44.89649" lon="5.64863">
        <ele>923</ele>
        <time>2010-05-29T12:13:20Z</time>
      </trkpt>
      <trkpt lat="44.89648" lon="5.64873">
        <ele>923</ele>
        <time>2010-05-29T12:13:21Z</time>
      </trkpt>
      <trkpt lat="44.89645" lon="5.64881">
        <ele>922.52</ele>
        <time>2010-05-29T12:13:22Z</time>
      </trkpt>
      <trkpt lat="44.89639" lon="5.64895">
        <ele>923</ele>
        <time>2010-05-29T12:13:24Z</time>
      </trkpt>
      <trkpt lat="44.89636" lon="5.64902">
        <ele>923.48</ele>
        <time>2010-05-29T12:13:25Z</time>
      </trkpt>
      <trkpt lat="44.89631" lon="5.64908">
        <ele>923</ele>
        <time>2010-05-29T12:13:26Z</time>
      </trkpt>
      <trkpt lat="44.89622" lon="5.64918">
        <ele>923.48</ele>
        <time>2010-05-29T12:13:28Z</time>
      </trkpt>
      <trkpt lat="44.89617" lon="5.64921">
        <ele>923.96</ele>
        <time>2010-05-29T12:13:29Z</time>
      </trkpt>
      <trkpt lat="44.89612" lon="5.64923">
        <ele>923.48</ele>
        <time>2010-05-29T12:13:30Z</time>
      </trkpt>
      <trkpt lat="44.89606" lon="5.64924">
        <ele>923.96</ele>
        <time>2010-05-29T12:13:31Z</time>
      </trkpt>
      <trkpt lat="44.896" lon="5.64925">
        <ele>923.48</ele>
        <time>2010-05-29T12:13:32Z</time>
      </trkpt>
      <trkpt lat="44.89584" lon="5.64928">
        <ele>923.96</ele>
        <time>2010-05-29T12:13:35Z</time>
      </trkpt>
      <trkpt lat="44.89578" lon="5.64928">
        <ele>923.96</ele>
        <time>2010-05-29T12:13:36Z</time>
      </trkpt>
      <trkpt lat="44.89551" lon="5.64932">
        <ele>923.96</ele>
        <time>2010-05-29T12:13:41Z</time>
      </trkpt>
      <trkpt lat="44.8954" lon="5.64935">
        <ele>923.48</ele>
        <time>2010-05-29T12:13:43Z</time>
      </trkpt>
      <trkpt lat="44.89512" lon="5.64936">
        <ele>924.45</ele>
        <time>2010-05-29T12:13:48Z</time>
      </trkpt>
      <trkpt lat="44.89468" lon="5.64926">
        <ele>926.37</ele>
        <time>2010-05-29T12:13:59Z</time>
      </trkpt>
      <trkpt lat="44.89466" lon="5.64925">
        <ele>925.41</ele>
        <time>2010-05-29T12:14:00Z</time>
      </trkpt>
      <trkpt lat="44.89457" lon="5.64923">
        <ele>927.33</ele>
        <time>2010-05-29T12:14:04Z</time>
      </trkpt>
      <trkpt lat="44.89456" lon="5.64923">
        <ele>927.33</ele>
        <time>2010-05-29T12:14:05Z</time>
      </trkpt>
      <trkpt lat="44.89433" lon="5.64915">
        <ele>930.69</ele>
        <time>2010-05-29T12:14:17Z</time>
      </trkpt>
      <trkpt lat="44.89432" lon="5.64915">
        <ele>930.21</ele>
        <time>2010-05-29T12:14:18Z</time>
      </trkpt>
      <trkpt lat="44.8943" lon="5.64915">
        <ele>930.69</ele>
        <time>2010-05-29T12:14:19Z</time>
      </trkpt>
      <trkpt lat="44.89429" lon="5.64914">
        <ele>930.69</ele>
        <time>2010-05-29T12:14:20Z</time>
      </trkpt>
      <trkpt lat="44.89427" lon="5.64913">
        <ele>931.17</ele>
        <time>2010-05-29T12:14:21Z</time>
      </trkpt>
      <trkpt lat="44.89425" lon="5.64912">
        <ele>931.17</ele>
        <time>2010-05-29T12:14:22Z</time>
      </trkpt>
      <trkpt lat="44.89424" lon="5.64911">
        <ele>931.65</ele>
        <time>2010-05-29T12:14:23Z</time>
      </trkpt>
      <trkpt lat="44.89405" lon="5.64906">
        <ele>933.1</ele>
        <time>2010-05-29T12:14:33Z</time>
      </trkpt>
      <trkpt lat="44.89403" lon="5.64906">
        <ele>934.06</ele>
        <time>2010-05-29T12:14:34Z</time>
      </trkpt>
      <trkpt lat="44.89401" lon="5.64906">
        <ele>934.06</ele>
        <time>2010-05-29T12:14:35Z</time>
      </trkpt>
      <trkpt lat="44.89386" lon="5.64905">
        <ele>935.98</ele>
        <time>2010-05-29T12:14:43Z</time>
      </trkpt>
      <trkpt lat="44.89384" lon="5.64904">
        <ele>936.94</ele>
        <time>2010-05-29T12:14:44Z</time>
      </trkpt>
      <trkpt lat="44.89382" lon="5.64904">
        <ele>936.94</ele>
        <time>2010-05-29T12:14:45Z</time>
      </trkpt>
      <trkpt lat="44.8938" lon="5.64904">
        <ele>937.42</ele>
        <time>2010-05-29T12:14:46Z</time>
      </trkpt>
      <trkpt lat="44.89379" lon="5.64904">
        <ele>937.42</ele>
        <time>2010-05-29T12:14:47Z</time>
      </trkpt>
      <trkpt lat="44.89377" lon="5.64903">
        <ele>937.9</ele>
        <time>2010-05-29T12:14:48Z</time>
      </trkpt>
      <trkpt lat="44.89375" lon="5.64903">
        <ele>937.42</ele>
        <time>2010-05-29T12:14:49Z</time>
      </trkpt>
      <trkpt lat="44.89347" lon="5.64905">
        <ele>940.31</ele>
        <time>2010-05-29T12:15:02Z</time>
      </trkpt>
      <trkpt lat="44.89335" lon="5.64902">
        <ele>941.75</ele>
        <time>2010-05-29T12:15:09Z</time>
      </trkpt>
      <trkpt lat="44.89334" lon="5.649">
        <ele>941.75</ele>
        <time>2010-05-29T12:15:10Z</time>
      </trkpt>
      <trkpt lat="44.89333" lon="5.64898">
        <ele>942.23</ele>
        <time>2010-05-29T12:15:11Z</time>
      </trkpt>
      <trkpt lat="44.89332" lon="5.64897">
        <ele>941.75</ele>
        <time>2010-05-29T12:15:12Z</time>
      </trkpt>
      <trkpt lat="44.89331" lon="5.64894">
        <ele>942.71</ele>
        <time>2010-05-29T12:15:13Z</time>
      </trkpt>
      <trkpt lat="44.89329" lon="5.64891">
        <ele>943.19</ele>
        <time>2010-05-29T12:15:15Z</time>
      </trkpt>
      <trkpt lat="44.89306" lon="5.64887">
        <ele>945.59</ele>
        <time>2010-05-29T12:15:27Z</time>
      </trkpt>
      <trkpt lat="44.89288" lon="5.64895">
        <ele>948</ele>
        <time>2010-05-29T12:15:37Z</time>
      </trkpt>
      <trkpt lat="44.89272" lon="5.64895">
        <ele>950.4</ele>
        <time>2010-05-29T12:15:48Z</time>
      </trkpt>
      <trkpt lat="44.8927" lon="5.64896">
        <ele>950.4</ele>
        <time>2010-05-29T12:15:49Z</time>
      </trkpt>
      <trkpt lat="44.89265" lon="5.64896">
        <ele>951.36</ele>
        <time>2010-05-29T12:15:52Z</time>
      </trkpt>
      <trkpt lat="44.89263" lon="5.64895">
        <ele>951.36</ele>
        <time>2010-05-29T12:15:53Z</time>
      </trkpt>
      <trkpt lat="44.89262" lon="5.64895">
        <ele>951.84</ele>
        <time>2010-05-29T12:15:54Z</time>
      </trkpt>
      <trkpt lat="44.8926" lon="5.64896">
        <ele>951.36</ele>
        <time>2010-05-29T12:15:55Z</time>
      </trkpt>
      <trkpt lat="44.89258" lon="5.64898">
        <ele>952.32</ele>
        <time>2010-05-29T12:15:56Z</time>
      </trkpt>
      <trkpt lat="44.89256" lon="5.64898">
        <ele>951.84</ele>
        <time>2010-05-29T12:15:57Z</time>
      </trkpt>
      <trkpt lat="44.89244" lon="5.64899">
        <ele>953.77</ele>
        <time>2010-05-29T12:16:05Z</time>
      </trkpt>
      <trkpt lat="44.89242" lon="5.64899">
        <ele>953.77</ele>
        <time>2010-05-29T12:16:07Z</time>
      </trkpt>
      <trkpt lat="44.8924" lon="5.64899">
        <ele>954.25</ele>
        <time>2010-05-29T12:16:08Z</time>
      </trkpt>
      <trkpt lat="44.89239" lon="5.64899">
        <ele>954.25</ele>
        <time>2010-05-29T12:16:09Z</time>
      </trkpt>
      <trkpt lat="44.89237" lon="5.64899">
        <ele>955.21</ele>
        <time>2010-05-29T12:16:10Z</time>
      </trkpt>
      <trkpt lat="44.89236" lon="5.64899">
        <ele>954.73</ele>
        <time>2010-05-29T12:16:11Z</time>
      </trkpt>
      <trkpt lat="44.89232" lon="5.649">
        <ele>955.69</ele>
        <time>2010-05-29T12:16:13Z</time>
      </trkpt>
      <trkpt lat="44.8923" lon="5.64902">
        <ele>955.21</ele>
        <time>2010-05-29T12:16:14Z</time>
      </trkpt>
      <trkpt lat="44.89228" lon="5.64903">
        <ele>955.69</ele>
        <time>2010-05-29T12:16:15Z</time>
      </trkpt>
      <trkpt lat="44.89218" lon="5.64903">
        <ele>957.61</ele>
        <time>2010-05-29T12:16:22Z</time>
      </trkpt>
      <trkpt lat="44.89216" lon="5.64903">
        <ele>958.09</ele>
        <time>2010-05-29T12:16:24Z</time>
      </trkpt>
      <trkpt lat="44.89215" lon="5.64903">
        <ele>957.61</ele>
        <time>2010-05-29T12:16:25Z</time>
      </trkpt>
      <trkpt lat="44.89214" lon="5.64904">
        <ele>957.61</ele>
        <time>2010-05-29T12:16:26Z</time>
      </trkpt>
      <trkpt lat="44.8921" lon="5.64904">
        <ele>959.05</ele>
        <time>2010-05-29T12:16:29Z</time>
      </trkpt>
      <trkpt lat="44.89209" lon="5.64903">
        <ele>959.05</ele>
        <time>2010-05-29T12:16:30Z</time>
      </trkpt>
      <trkpt lat="44.89203" lon="5.64902">
        <ele>960.01</ele>
        <time>2010-05-29T12:16:35Z</time>
      </trkpt>
      <trkpt lat="44.89201" lon="5.64903">
        <ele>960.01</ele>
        <time>2010-05-29T12:16:36Z</time>
      </trkpt>
      <trkpt lat="44.89199" lon="5.64903">
        <ele>960.98</ele>
        <time>2010-05-29T12:16:37Z</time>
      </trkpt>
      <trkpt lat="44.89197" lon="5.64903">
        <ele>960.01</ele>
        <time>2010-05-29T12:16:38Z</time>
      </trkpt>
      <trkpt lat="44.89195" lon="5.64905">
        <ele>960.49</ele>
        <time>2010-05-29T12:16:39Z</time>
      </trkpt>
      <trkpt lat="44.89194" lon="5.64906">
        <ele>960.98</ele>
        <time>2010-05-29T12:16:40Z</time>
      </trkpt>
      <trkpt lat="44.89192" lon="5.64906">
        <ele>960.49</ele>
        <time>2010-05-29T12:16:41Z</time>
      </trkpt>
      <trkpt lat="44.89191" lon="5.64906">
        <ele>961.46</ele>
        <time>2010-05-29T12:16:42Z</time>
      </trkpt>
      <trkpt lat="44.89189" lon="5.64907">
        <ele>961.46</ele>
        <time>2010-05-29T12:16:43Z</time>
      </trkpt>
      <trkpt lat="44.89188" lon="5.64908">
        <ele>961.46</ele>
        <time>2010-05-29T12:16:44Z</time>
      </trkpt>
      <trkpt lat="44.89185" lon="5.6491">
        <ele>961.46</ele>
        <time>2010-05-29T12:16:46Z</time>
      </trkpt>
      <trkpt lat="44.89183" lon="5.64912">
        <ele>962.42</ele>
        <time>2010-05-29T12:16:47Z</time>
      </trkpt>
      <trkpt lat="44.89162" lon="5.64923">
        <ele>965.3</ele>
        <time>2010-05-29T12:17:01Z</time>
      </trkpt>
      <trkpt lat="44.89144" lon="5.64926">
        <ele>966.74</ele>
        <time>2010-05-29T12:17:13Z</time>
      </trkpt>
      <trkpt lat="44.89132" lon="5.64932">
        <ele>968.67</ele>
        <time>2010-05-29T12:17:21Z</time>
      </trkpt>
      <trkpt lat="44.89129" lon="5.64931">
        <ele>968.67</ele>
        <time>2010-05-29T12:17:24Z</time>
      </trkpt>
      <trkpt lat="44.89129" lon="5.64929">
        <ele>969.63</ele>
        <time>2010-05-29T12:17:25Z</time>
      </trkpt>
      <trkpt lat="44.89126" lon="5.64929">
        <ele>969.63</ele>
        <time>2010-05-29T12:17:27Z</time>
      </trkpt>
      <trkpt lat="44.89124" lon="5.64933">
        <ele>970.11</ele>
        <time>2010-05-29T12:17:28Z</time>
      </trkpt>
      <trkpt lat="44.89122" lon="5.64934">
        <ele>970.11</ele>
        <time>2010-05-29T12:17:29Z</time>
      </trkpt>
      <trkpt lat="44.8912" lon="5.64936">
        <ele>970.59</ele>
        <time>2010-05-29T12:17:30Z</time>
      </trkpt>
      <trkpt lat="44.89118" lon="5.64938">
        <ele>970.11</ele>
        <time>2010-05-29T12:17:31Z</time>
      </trkpt>
      <trkpt lat="44.89115" lon="5.64939">
        <ele>971.07</ele>
        <time>2010-05-29T12:17:33Z</time>
      </trkpt>
      <trkpt lat="44.89114" lon="5.6494">
        <ele>971.55</ele>
        <time>2010-05-29T12:17:34Z</time>
      </trkpt>
      <trkpt lat="44.89112" lon="5.64941">
        <ele>971.55</ele>
        <time>2010-05-29T12:17:35Z</time>
      </trkpt>
      <trkpt lat="44.8911" lon="5.64942">
        <ele>971.55</ele>
        <time>2010-05-29T12:17:36Z</time>
      </trkpt>
      <trkpt lat="44.89108" lon="5.64942">
        <ele>971.55</ele>
        <time>2010-05-29T12:17:37Z</time>
      </trkpt>
      <trkpt lat="44.89105" lon="5.64945">
        <ele>971.55</ele>
        <time>2010-05-29T12:17:38Z</time>
      </trkpt>
      <trkpt lat="44.89104" lon="5.64945">
        <ele>972.03</ele>
        <time>2010-05-29T12:17:39Z</time>
      </trkpt>
      <trkpt lat="44.89102" lon="5.64946">
        <ele>972.03</ele>
        <time>2010-05-29T12:17:40Z</time>
      </trkpt>
      <trkpt lat="44.891" lon="5.64949">
        <ele>972.03</ele>
        <time>2010-05-29T12:17:41Z</time>
      </trkpt>
      <trkpt lat="44.89099" lon="5.6495">
        <ele>972.03</ele>
        <time>2010-05-29T12:17:42Z</time>
      </trkpt>
      <trkpt lat="44.89097" lon="5.64951">
        <ele>972.51</ele>
        <time>2010-05-29T12:17:43Z</time>
      </trkpt>
      <trkpt lat="44.89095" lon="5.64951">
        <ele>972.99</ele>
        <time>2010-05-29T12:17:44Z</time>
      </trkpt>
      <trkpt lat="44.89093" lon="5.64951">
        <ele>972.99</ele>
        <time>2010-05-29T12:17:45Z</time>
      </trkpt>
      <trkpt lat="44.89092" lon="5.64952">
        <ele>972.99</ele>
        <time>2010-05-29T12:17:46Z</time>
      </trkpt>
      <trkpt lat="44.8909" lon="5.64952">
        <ele>972.99</ele>
        <time>2010-05-29T12:17:47Z</time>
      </trkpt>
      <trkpt lat="44.89088" lon="5.64952">
        <ele>973.47</ele>
        <time>2010-05-29T12:17:48Z</time>
      </trkpt>
      <trkpt lat="44.89087" lon="5.64953">
        <ele>972.99</ele>
        <time>2010-05-29T12:17:49Z</time>
      </trkpt>
      <trkpt lat="44.89085" lon="5.64954">
        <ele>973.95</ele>
        <time>2010-05-29T12:17:50Z</time>
      </trkpt>
      <trkpt lat="44.89084" lon="5.64954">
        <ele>972.99</ele>
        <time>2010-05-29T12:17:51Z</time>
      </trkpt>
      <trkpt lat="44.89083" lon="5.64955">
        <ele>973.95</ele>
        <time>2010-05-29T12:17:52Z</time>
      </trkpt>
      <trkpt lat="44.89081" lon="5.64958">
        <ele>973.47</ele>
        <time>2010-05-29T12:17:53Z</time>
      </trkpt>
      <trkpt lat="44.89078" lon="5.64959">
        <ele>973.95</ele>
        <time>2010-05-29T12:17:54Z</time>
      </trkpt>
      <trkpt lat="44.89076" lon="5.64961">
        <ele>973.47</ele>
        <time>2010-05-29T12:17:55Z</time>
      </trkpt>
      <trkpt lat="44.89074" lon="5.64963">
        <ele>973.95</ele>
        <time>2010-05-29T12:17:56Z</time>
      </trkpt>
      <trkpt lat="44.89072" lon="5.64965">
        <ele>973.95</ele>
        <time>2010-05-29T12:17:57Z</time>
      </trkpt>
      <trkpt lat="44.89071" lon="5.64967">
        <ele>973.47</ele>
        <time>2010-05-29T12:17:58Z</time>
      </trkpt>
      <trkpt lat="44.89068" lon="5.6497">
        <ele>974.43</ele>
        <time>2010-05-29T12:18:00Z</time>
      </trkpt>
      <trkpt lat="44.89067" lon="5.64972">
        <ele>973.95</ele>
        <time>2010-05-29T12:18:01Z</time>
      </trkpt>
      <trkpt lat="44.89066" lon="5.64973">
        <ele>973.95</ele>
        <time>2010-05-29T12:18:24Z</time>
      </trkpt>
      <trkpt lat="44.89063" lon="5.64987">
        <ele>973.95</ele>
        <time>2010-05-29T12:20:56Z</time>
      </trkpt>
      <trkpt lat="44.8905" lon="5.65036">
        <ele>973.47</ele>
        <time>2010-05-29T12:21:08Z</time>
      </trkpt>
      <trkpt lat="44.89048" lon="5.6506">
        <ele>972.99</ele>
        <time>2010-05-29T12:21:12Z</time>
      </trkpt>
      <trkpt lat="44.89049" lon="5.65072">
        <ele>972.99</ele>
        <time>2010-05-29T12:21:14Z</time>
      </trkpt>
      <trkpt lat="44.8905" lon="5.65078">
        <ele>972.99</ele>
        <time>2010-05-29T12:21:15Z</time>
      </trkpt>
      <trkpt lat="44.89051" lon="5.65083">
        <ele>972.99</ele>
        <time>2010-05-29T12:21:16Z</time>
      </trkpt>
      <trkpt lat="44.89056" lon="5.65094">
        <ele>972.99</ele>
        <time>2010-05-29T12:21:18Z</time>
      </trkpt>
      <trkpt lat="44.89058" lon="5.65099">
        <ele>972.51</ele>
        <time>2010-05-29T12:21:19Z</time>
      </trkpt>
      <trkpt lat="44.89063" lon="5.65116">
        <ele>972.51</ele>
        <time>2010-05-29T12:21:22Z</time>
      </trkpt>
      <trkpt lat="44.89064" lon="5.65121">
        <ele>972.03</ele>
        <time>2010-05-29T12:21:23Z</time>
      </trkpt>
      <trkpt lat="44.89065" lon="5.65131">
        <ele>973.47</ele>
        <time>2010-05-29T12:21:26Z</time>
      </trkpt>
      <trkpt lat="44.89069" lon="5.65152">
        <ele>975.39</ele>
        <time>2010-05-29T12:21:34Z</time>
      </trkpt>
      <trkpt lat="44.89069" lon="5.65154">
        <ele>975.39</ele>
        <time>2010-05-29T12:21:35Z</time>
      </trkpt>
      <trkpt lat="44.89069" lon="5.65157">
        <ele>975.88</ele>
        <time>2010-05-29T12:21:36Z</time>
      </trkpt>
      <trkpt lat="44.89069" lon="5.65159">
        <ele>976.36</ele>
        <time>2010-05-29T12:21:37Z</time>
      </trkpt>
      <trkpt lat="44.89069" lon="5.65161">
        <ele>975.39</ele>
        <time>2010-05-29T12:21:38Z</time>
      </trkpt>
      <trkpt lat="44.89068" lon="5.65163">
        <ele>976.84</ele>
        <time>2010-05-29T12:21:39Z</time>
      </trkpt>
      <trkpt lat="44.89069" lon="5.65178">
        <ele>978.76</ele>
        <time>2010-05-29T12:21:46Z</time>
      </trkpt>
      <trkpt lat="44.89072" lon="5.65195">
        <ele>980.2</ele>
        <time>2010-05-29T12:21:52Z</time>
      </trkpt>
      <trkpt lat="44.89073" lon="5.65198">
        <ele>980.68</ele>
        <time>2010-05-29T12:21:53Z</time>
      </trkpt>
      <trkpt lat="44.89076" lon="5.65207">
        <ele>981.16</ele>
        <time>2010-05-29T12:21:56Z</time>
      </trkpt>
      <trkpt lat="44.89076" lon="5.65209">
        <ele>981.64</ele>
        <time>2010-05-29T12:21:57Z</time>
      </trkpt>
      <trkpt lat="44.89076" lon="5.65212">
        <ele>982.6</ele>
        <time>2010-05-29T12:21:58Z</time>
      </trkpt>
      <trkpt lat="44.89076" lon="5.65216">
        <ele>981.64</ele>
        <time>2010-05-29T12:21:59Z</time>
      </trkpt>
      <trkpt lat="44.89076" lon="5.65219">
        <ele>982.6</ele>
        <time>2010-05-29T12:22:00Z</time>
      </trkpt>
      <trkpt lat="44.89077" lon="5.65221">
        <ele>982.12</ele>
        <time>2010-05-29T12:22:01Z</time>
      </trkpt>
      <trkpt lat="44.89077" lon="5.6523">
        <ele>983.57</ele>
        <time>2010-05-29T12:22:05Z</time>
      </trkpt>
      <trkpt lat="44.89076" lon="5.65233">
        <ele>984.05</ele>
        <time>2010-05-29T12:22:06Z</time>
      </trkpt>
      <trkpt lat="44.89076" lon="5.65235">
        <ele>983.57</ele>
        <time>2010-05-29T12:22:07Z</time>
      </trkpt>
      <trkpt lat="44.89074" lon="5.65241">
        <ele>985.49</ele>
        <time>2010-05-29T12:22:11Z</time>
      </trkpt>
      <trkpt lat="44.89072" lon="5.65244">
        <ele>985.97</ele>
        <time>2010-05-29T12:22:13Z</time>
      </trkpt>
      <trkpt lat="44.89059" lon="5.65265">
        <ele>988.85</ele>
        <time>2010-05-29T12:22:21Z</time>
      </trkpt>
      <trkpt lat="44.89043" lon="5.65287">
        <ele>990.78</ele>
        <time>2010-05-29T12:22:31Z</time>
      </trkpt>
      <trkpt lat="44.89029" lon="5.65304">
        <ele>992.22</ele>
        <time>2010-05-29T12:22:46Z</time>
      </trkpt>
      <trkpt lat="44.89027" lon="5.65302">
        <ele>993.18</ele>
        <time>2010-05-29T12:23:20Z</time>
      </trkpt>
      <trkpt lat="44.89027" lon="5.65295">
        <ele>994.14</ele>
        <time>2010-05-29T12:23:24Z</time>
      </trkpt>
      <trkpt lat="44.8903" lon="5.65284">
        <ele>995.58</ele>
        <time>2010-05-29T12:23:28Z</time>
      </trkpt>
      <trkpt lat="44.89033" lon="5.65274">
        <ele>997.02</ele>
        <time>2010-05-29T12:23:40Z</time>
      </trkpt>
      <trkpt lat="44.89031" lon="5.65271">
        <ele>997.99</ele>
        <time>2010-05-29T12:23:52Z</time>
      </trkpt>
      <trkpt lat="44.89029" lon="5.65261">
        <ele>999.91</ele>
        <time>2010-05-29T12:23:57Z</time>
      </trkpt>
      <trkpt lat="44.89028" lon="5.65256">
        <ele>999.43</ele>
        <time>2010-05-29T12:23:59Z</time>
      </trkpt>
      <trkpt lat="44.89026" lon="5.6525">
        <ele>1001.35</ele>
        <time>2010-05-29T12:24:12Z</time>
      </trkpt>
      <trkpt lat="44.89025" lon="5.65255">
        <ele>1002.79</ele>
        <time>2010-05-29T12:24:25Z</time>
      </trkpt>
      <trkpt lat="44.89017" lon="5.65265">
        <ele>1004.72</ele>
        <time>2010-05-29T12:24:36Z</time>
      </trkpt>
      <trkpt lat="44.89011" lon="5.65264">
        <ele>1006.64</ele>
        <time>2010-05-29T12:24:47Z</time>
      </trkpt>
      <trkpt lat="44.8901" lon="5.65265">
        <ele>1006.64</ele>
        <time>2010-05-29T12:24:48Z</time>
      </trkpt>
      <trkpt lat="44.89007" lon="5.65268">
        <ele>1007.12</ele>
        <time>2010-05-29T12:24:50Z</time>
      </trkpt>
      <trkpt lat="44.89" lon="5.65273">
        <ele>1009.04</ele>
        <time>2010-05-29T12:24:56Z</time>
      </trkpt>
      <trkpt lat="44.88984" lon="5.65284">
        <ele>1011.93</ele>
        <time>2010-05-29T12:25:06Z</time>
      </trkpt>
      <trkpt lat="44.88965" lon="5.65304">
        <ele>1013.37</ele>
        <time>2010-05-29T12:25:17Z</time>
      </trkpt>
      <trkpt lat="44.88958" lon="5.6531">
        <ele>1013.37</ele>
        <time>2010-05-29T12:25:20Z</time>
      </trkpt>
      <trkpt lat="44.88941" lon="5.65334">
        <ele>1014.81</ele>
        <time>2010-05-29T12:25:30Z</time>
      </trkpt>
      <trkpt lat="44.88925" lon="5.65355">
        <ele>1016.25</ele>
        <time>2010-05-29T12:25:39Z</time>
      </trkpt>
      <trkpt lat="44.88921" lon="5.65359">
        <ele>1016.73</ele>
        <time>2010-05-29T12:25:41Z</time>
      </trkpt>
      <trkpt lat="44.88911" lon="5.65375">
        <ele>1017.21</ele>
        <time>2010-05-29T12:25:47Z</time>
      </trkpt>
      <trkpt lat="44.88903" lon="5.65384">
        <ele>1017.69</ele>
        <time>2010-05-29T12:25:52Z</time>
      </trkpt>
      <trkpt lat="44.889" lon="5.65385">
        <ele>1017.69</ele>
        <time>2010-05-29T12:25:54Z</time>
      </trkpt>
      <trkpt lat="44.88889" lon="5.65397">
        <ele>1018.65</ele>
        <time>2010-05-29T12:26:02Z</time>
      </trkpt>
      <trkpt lat="44.88867" lon="5.65414">
        <ele>1022.98</ele>
        <time>2010-05-29T12:26:11Z</time>
      </trkpt>
      <trkpt lat="44.88862" lon="5.65433">
        <ele>1024.9</ele>
        <time>2010-05-29T12:26:18Z</time>
      </trkpt>
      <trkpt lat="44.8886" lon="5.65434">
        <ele>1024.9</ele>
        <time>2010-05-29T12:26:20Z</time>
      </trkpt>
      <trkpt lat="44.88859" lon="5.65432">
        <ele>1025.38</ele>
        <time>2010-05-29T12:26:22Z</time>
      </trkpt>
      <trkpt lat="44.88855" lon="5.65425">
        <ele>1025.86</ele>
        <time>2010-05-29T12:26:26Z</time>
      </trkpt>
      <trkpt lat="44.88847" lon="5.65419">
        <ele>1028.27</ele>
        <time>2010-05-29T12:26:33Z</time>
      </trkpt>
      <trkpt lat="44.88843" lon="5.65423">
        <ele>1029.23</ele>
        <time>2010-05-29T12:26:38Z</time>
      </trkpt>
      <trkpt lat="44.88843" lon="5.65436">
        <ele>1030.19</ele>
        <time>2010-05-29T12:26:43Z</time>
      </trkpt>
      <trkpt lat="44.88841" lon="5.65441">
        <ele>1030.67</ele>
        <time>2010-05-29T12:26:46Z</time>
      </trkpt>
      <trkpt lat="44.88832" lon="5.65451">
        <ele>1032.11</ele>
        <time>2010-05-29T12:26:55Z</time>
      </trkpt>
      <trkpt lat="44.88829" lon="5.65443">
        <ele>1033.07</ele>
        <time>2010-05-29T12:27:10Z</time>
      </trkpt>
      <trkpt lat="44.88828" lon="5.65442">
        <ele>1034.04</ele>
        <time>2010-05-29T12:27:11Z</time>
      </trkpt>
      <trkpt lat="44.88825" lon="5.65434">
        <ele>1035</ele>
        <time>2010-05-29T12:27:15Z</time>
      </trkpt>
      <trkpt lat="44.8881" lon="5.65431">
        <ele>1036.92</ele>
        <time>2010-05-29T12:27:25Z</time>
      </trkpt>
      <trkpt lat="44.88816" lon="5.65442">
        <ele>1038.84</ele>
        <time>2010-05-29T12:27:32Z</time>
      </trkpt>
      <trkpt lat="44.88801" lon="5.65462">
        <ele>1042.21</ele>
        <time>2010-05-29T12:27:44Z</time>
      </trkpt>
      <trkpt lat="44.88775" lon="5.65487">
        <ele>1043.17</ele>
        <time>2010-05-29T12:27:57Z</time>
      </trkpt>
      <trkpt lat="44.88773" lon="5.65491">
        <ele>1043.65</ele>
        <time>2010-05-29T12:28:05Z</time>
      </trkpt>
      <trkpt lat="44.88772" lon="5.65492">
        <ele>1043.65</ele>
        <time>2010-05-29T12:28:14Z</time>
      </trkpt>
      <trkpt lat="44.88772" lon="5.65491">
        <ele>1038.84</ele>
        <time>2010-05-29T12:28:41Z</time>
      </trkpt>
      <trkpt lat="44.88772" lon="5.65491">
        <ele>1043.65</ele>
        <time>2010-05-29T12:28:42Z</time>
      </trkpt>
      <trkpt lat="44.88773" lon="5.65492">
        <ele>1043.65</ele>
        <time>2010-05-29T12:36:58Z</time>
      </trkpt>
      <trkpt lat="44.88769" lon="5.65496">
        <ele>1043.65</ele>
        <time>2010-05-29T12:37:09Z</time>
      </trkpt>
      <trkpt lat="44.88769" lon="5.65495">
        <ele>1042.69</ele>
        <time>2010-05-29T12:37:21Z</time>
      </trkpt>
      <trkpt lat="44.88769" lon="5.65495">
        <ele>1043.65</ele>
        <time>2010-05-29T12:37:59Z</time>
      </trkpt>
      <trkpt lat="44.8876" lon="5.65508">
        <ele>1042.69</ele>
        <time>2010-05-29T12:38:23Z</time>
      </trkpt>
      <trkpt lat="44.88756" lon="5.65513">
        <ele>1042.21</ele>
        <time>2010-05-29T12:38:25Z</time>
      </trkpt>
      <trkpt lat="44.88742" lon="5.6553">
        <ele>1039.8</ele>
        <time>2010-05-29T12:38:31Z</time>
      </trkpt>
      <trkpt lat="44.88718" lon="5.65554">
        <ele>1036.44</ele>
        <time>2010-05-29T12:38:40Z</time>
      </trkpt>
      <trkpt lat="44.88709" lon="5.65564">
        <ele>1034.52</ele>
        <time>2010-05-29T12:38:44Z</time>
      </trkpt>
      <trkpt lat="44.88699" lon="5.65574">
        <ele>1032.59</ele>
        <time>2010-05-29T12:38:48Z</time>
      </trkpt>
      <trkpt lat="44.88683" lon="5.65588">
        <ele>1029.23</ele>
        <time>2010-05-29T12:38:54Z</time>
      </trkpt>
      <trkpt lat="44.88674" lon="5.65598">
        <ele>1027.79</ele>
        <time>2010-05-29T12:38:57Z</time>
      </trkpt>
      <trkpt lat="44.8866" lon="5.65622">
        <ele>1025.38</ele>
        <time>2010-05-29T12:39:03Z</time>
      </trkpt>
      <trkpt lat="44.88647" lon="5.65641">
        <ele>1022.02</ele>
        <time>2010-05-29T12:39:09Z</time>
      </trkpt>
      <trkpt lat="44.88636" lon="5.65654">
        <ele>1020.58</ele>
        <time>2010-05-29T12:39:15Z</time>
      </trkpt>
      <trkpt lat="44.88634" lon="5.65657">
        <ele>1020.58</ele>
        <time>2010-05-29T12:39:28Z</time>
      </trkpt>
      <trkpt lat="44.88634" lon="5.65657">
        <ele>1020.58</ele>
        <time>2010-05-29T12:39:55Z</time>
      </trkpt>
      <trkpt lat="44.88634" lon="5.65657">
        <ele>1020.1</ele>
        <time>2010-05-29T12:40:37Z</time>
      </trkpt>
      <trkpt lat="44.88634" lon="5.65656">
        <ele>1020.1</ele>
        <time>2010-05-29T12:42:01Z</time>
      </trkpt>
      <trkpt lat="44.88634" lon="5.65656">
        <ele>1020.58</ele>
        <time>2010-05-29T12:42:37Z</time>
      </trkpt>
      <trkpt lat="44.88634" lon="5.65657">
        <ele>1020.58</ele>
        <time>2010-05-29T12:42:44Z</time>
      </trkpt>
      <trkpt lat="44.88617" lon="5.65675">
        <ele>1016.73</ele>
        <time>2010-05-29T12:42:53Z</time>
      </trkpt>
      <trkpt lat="44.88604" lon="5.65684">
        <ele>1012.89</ele>
        <time>2010-05-29T12:42:57Z</time>
      </trkpt>
      <trkpt lat="44.88594" lon="5.65692">
        <ele>1010.48</ele>
        <time>2010-05-29T12:43:00Z</time>
      </trkpt>
      <trkpt lat="44.88591" lon="5.65697">
        <ele>1010.48</ele>
        <time>2010-05-29T12:43:01Z</time>
      </trkpt>
      <trkpt lat="44.88588" lon="5.657">
        <ele>1010</ele>
        <time>2010-05-29T12:43:02Z</time>
      </trkpt>
      <trkpt lat="44.88573" lon="5.65715">
        <ele>1006.16</ele>
        <time>2010-05-29T12:43:07Z</time>
      </trkpt>
      <trkpt lat="44.8857" lon="5.65718">
        <ele>1006.16</ele>
        <time>2010-05-29T12:43:08Z</time>
      </trkpt>
      <trkpt lat="44.88559" lon="5.65734">
        <ele>1002.79</ele>
        <time>2010-05-29T12:43:12Z</time>
      </trkpt>
      <trkpt lat="44.88556" lon="5.65738">
        <ele>1003.27</ele>
        <time>2010-05-29T12:43:13Z</time>
      </trkpt>
      <trkpt lat="44.88547" lon="5.65745">
        <ele>1000.39</ele>
        <time>2010-05-29T12:43:16Z</time>
      </trkpt>
      <trkpt lat="44.88545" lon="5.65745">
        <ele>999.43</ele>
        <time>2010-05-29T12:43:17Z</time>
      </trkpt>
      <trkpt lat="44.88542" lon="5.65746">
        <ele>998.47</ele>
        <time>2010-05-29T12:43:18Z</time>
      </trkpt>
      <trkpt lat="44.88538" lon="5.65748">
        <ele>997.51</ele>
        <time>2010-05-29T12:43:19Z</time>
      </trkpt>
      <trkpt lat="44.88534" lon="5.65751">
        <ele>996.06</ele>
        <time>2010-05-29T12:43:20Z</time>
      </trkpt>
      <trkpt lat="44.88532" lon="5.65756">
        <ele>995.1</ele>
        <time>2010-05-29T12:43:21Z</time>
      </trkpt>
      <trkpt lat="44.88521" lon="5.65764">
        <ele>991.74</ele>
        <time>2010-05-29T12:43:24Z</time>
      </trkpt>
      <trkpt lat="44.88509" lon="5.65768">
        <ele>987.89</ele>
        <time>2010-05-29T12:43:28Z</time>
      </trkpt>
      <trkpt lat="44.88504" lon="5.65771">
        <ele>986.93</ele>
        <time>2010-05-29T12:43:30Z</time>
      </trkpt>
      <trkpt lat="44.88498" lon="5.65777">
        <ele>983.57</ele>
        <time>2010-05-29T12:43:33Z</time>
      </trkpt>
      <trkpt lat="44.88494" lon="5.65787">
        <ele>979.72</ele>
        <time>2010-05-29T12:43:36Z</time>
      </trkpt>
      <trkpt lat="44.88488" lon="5.65803">
        <ele>975.88</ele>
        <time>2010-05-29T12:43:41Z</time>
      </trkpt>
      <trkpt lat="44.88483" lon="5.65816">
        <ele>972.99</ele>
        <time>2010-05-29T12:43:45Z</time>
      </trkpt>
      <trkpt lat="44.88477" lon="5.65824">
        <ele>969.63</ele>
        <time>2010-05-29T12:43:48Z</time>
      </trkpt>
      <trkpt lat="44.88469" lon="5.65834">
        <ele>966.74</ele>
        <time>2010-05-29T12:43:51Z</time>
      </trkpt>
      <trkpt lat="44.88461" lon="5.65848">
        <ele>962.42</ele>
        <time>2010-05-29T12:43:54Z</time>
      </trkpt>
      <trkpt lat="44.88453" lon="5.65859">
        <ele>959.05</ele>
        <time>2010-05-29T12:43:57Z</time>
      </trkpt>
      <trkpt lat="44.88451" lon="5.65863">
        <ele>958.09</ele>
        <time>2010-05-29T12:43:59Z</time>
      </trkpt>
      <trkpt lat="44.88448" lon="5.65866">
        <ele>957.61</ele>
        <time>2010-05-29T12:44:05Z</time>
      </trkpt>
      <trkpt lat="44.88447" lon="5.65867">
        <ele>957.61</ele>
        <time>2010-05-29T12:44:06Z</time>
      </trkpt>
      <trkpt lat="44.88437" lon="5.6588">
        <ele>955.69</ele>
        <time>2010-05-29T12:44:11Z</time>
      </trkpt>
      <trkpt lat="44.88435" lon="5.65883">
        <ele>955.21</ele>
        <time>2010-05-29T12:44:12Z</time>
      </trkpt>
      <trkpt lat="44.88433" lon="5.65888">
        <ele>954.73</ele>
        <time>2010-05-29T12:44:13Z</time>
      </trkpt>
      <trkpt lat="44.88431" lon="5.65895">
        <ele>954.25</ele>
        <time>2010-05-29T12:44:14Z</time>
      </trkpt>
      <trkpt lat="44.88429" lon="5.65901">
        <ele>953.77</ele>
        <time>2010-05-29T12:44:15Z</time>
      </trkpt>
      <trkpt lat="44.88426" lon="5.65905">
        <ele>954.25</ele>
        <time>2010-05-29T12:44:16Z</time>
      </trkpt>
      <trkpt lat="44.88422" lon="5.65909">
        <ele>953.77</ele>
        <time>2010-05-29T12:44:17Z</time>
      </trkpt>
      <trkpt lat="44.88419" lon="5.65911">
        <ele>953.77</ele>
        <time>2010-05-29T12:44:18Z</time>
      </trkpt>
      <trkpt lat="44.88415" lon="5.65919">
        <ele>952.8</ele>
        <time>2010-05-29T12:44:27Z</time>
      </trkpt>
      <trkpt lat="44.88415" lon="5.65919">
        <ele>956.17</ele>
        <time>2010-05-29T12:44:38Z</time>
      </trkpt>
      <trkpt lat="44.88415" lon="5.65919">
        <ele>952.8</ele>
        <time>2010-05-29T12:44:49Z</time>
      </trkpt>
      <trkpt lat="44.88415" lon="5.6592">
        <ele>953.28</ele>
        <time>2010-05-29T12:45:22Z</time>
      </trkpt>
      <trkpt lat="44.88414" lon="5.65922">
        <ele>953.28</ele>
        <time>2010-05-29T12:45:42Z</time>
      </trkpt>
      <trkpt lat="44.88415" lon="5.65922">
        <ele>953.28</ele>
        <time>2010-05-29T12:45:54Z</time>
      </trkpt>
      <trkpt lat="44.8841" lon="5.6593">
        <ele>953.77</ele>
        <time>2010-05-29T12:46:00Z</time>
      </trkpt>
      <trkpt lat="44.88409" lon="5.65932">
        <ele>953.77</ele>
        <time>2010-05-29T12:46:01Z</time>
      </trkpt>
      <trkpt lat="44.88387" lon="5.65957">
        <ele>955.21</ele>
        <time>2010-05-29T12:46:12Z</time>
      </trkpt>
      <trkpt lat="44.88373" lon="5.65976">
        <ele>957.61</ele>
        <time>2010-05-29T12:46:22Z</time>
      </trkpt>
      <trkpt lat="44.88359" lon="5.65995">
        <ele>960.01</ele>
        <time>2010-05-29T12:46:33Z</time>
      </trkpt>
      <trkpt lat="44.88351" lon="5.66007">
        <ele>961.94</ele>
        <time>2010-05-29T12:46:39Z</time>
      </trkpt>
      <trkpt lat="44.88342" lon="5.66019">
        <ele>965.3</ele>
        <time>2010-05-29T12:46:47Z</time>
      </trkpt>
      <trkpt lat="44.88333" lon="5.66033">
        <ele>968.67</ele>
        <time>2010-05-29T12:46:56Z</time>
      </trkpt>
      <trkpt lat="44.8833" lon="5.66036">
        <ele>969.63</ele>
        <time>2010-05-29T12:46:58Z</time>
      </trkpt>
      <trkpt lat="44.8832" lon="5.66045">
        <ele>972.99</ele>
        <time>2010-05-29T12:47:05Z</time>
      </trkpt>
      <trkpt lat="44.88319" lon="5.66047">
        <ele>973.47</ele>
        <time>2010-05-29T12:47:06Z</time>
      </trkpt>
      <trkpt lat="44.88315" lon="5.66053">
        <ele>974.43</ele>
        <time>2010-05-29T12:47:21Z</time>
      </trkpt>
      <trkpt lat="44.88313" lon="5.66054">
        <ele>974.91</ele>
        <time>2010-05-29T12:47:35Z</time>
      </trkpt>
      <trkpt lat="44.88313" lon="5.66053">
        <ele>975.88</ele>
        <time>2010-05-29T12:48:04Z</time>
      </trkpt>
      <trkpt lat="44.8831" lon="5.66056">
        <ele>977.32</ele>
        <time>2010-05-29T12:48:49Z</time>
      </trkpt>
      <trkpt lat="44.88302" lon="5.66063">
        <ele>979.24</ele>
        <time>2010-05-29T12:48:54Z</time>
      </trkpt>
      <trkpt lat="44.88298" lon="5.66068">
        <ele>980.68</ele>
        <time>2010-05-29T12:48:57Z</time>
      </trkpt>
      <trkpt lat="44.88293" lon="5.66071">
        <ele>983.09</ele>
        <time>2010-05-29T12:49:01Z</time>
      </trkpt>
      <trkpt lat="44.8829" lon="5.66072">
        <ele>984.05</ele>
        <time>2010-05-29T12:49:04Z</time>
      </trkpt>
      <trkpt lat="44.88288" lon="5.66075">
        <ele>985.01</ele>
        <time>2010-05-29T12:49:14Z</time>
      </trkpt>
      <trkpt lat="44.88281" lon="5.66082">
        <ele>987.89</ele>
        <time>2010-05-29T12:49:23Z</time>
      </trkpt>
      <trkpt lat="44.88274" lon="5.66088">
        <ele>990.78</ele>
        <time>2010-05-29T12:49:34Z</time>
      </trkpt>
      <trkpt lat="44.88273" lon="5.6609">
        <ele>991.26</ele>
        <time>2010-05-29T12:49:55Z</time>
      </trkpt>
      <trkpt lat="44.88264" lon="5.66098">
        <ele>992.7</ele>
        <time>2010-05-29T12:50:03Z</time>
      </trkpt>
      <trkpt lat="44.88251" lon="5.66114">
        <ele>993.18</ele>
        <time>2010-05-29T12:50:15Z</time>
      </trkpt>
      <trkpt lat="44.88251" lon="5.66114">
        <ele>993.18</ele>
        <time>2010-05-29T12:50:44Z</time>
      </trkpt>
      <trkpt lat="44.8825" lon="5.66116">
        <ele>993.18</ele>
        <time>2010-05-29T12:51:12Z</time>
      </trkpt>
      <trkpt lat="44.8824" lon="5.66131">
        <ele>991.74</ele>
        <time>2010-05-29T12:51:18Z</time>
      </trkpt>
      <trkpt lat="44.8823" lon="5.6614">
        <ele>987.89</ele>
        <time>2010-05-29T12:51:22Z</time>
      </trkpt>
      <trkpt lat="44.88224" lon="5.66144">
        <ele>985.01</ele>
        <time>2010-05-29T12:51:24Z</time>
      </trkpt>
      <trkpt lat="44.88221" lon="5.66147">
        <ele>984.05</ele>
        <time>2010-05-29T12:51:25Z</time>
      </trkpt>
      <trkpt lat="44.88203" lon="5.66157">
        <ele>981.64</ele>
        <time>2010-05-29T12:51:28Z</time>
      </trkpt>
      <trkpt lat="44.88179" lon="5.66169">
        <ele>976.84</ele>
        <time>2010-05-29T12:51:32Z</time>
      </trkpt>
      <trkpt lat="44.88167" lon="5.66175">
        <ele>973.47</ele>
        <time>2010-05-29T12:51:34Z</time>
      </trkpt>
      <trkpt lat="44.8814" lon="5.66182">
        <ele>970.59</ele>
        <time>2010-05-29T12:51:39Z</time>
      </trkpt>
      <trkpt lat="44.88123" lon="5.66185">
        <ele>965.78</ele>
        <time>2010-05-29T12:51:43Z</time>
      </trkpt>
      <trkpt lat="44.88119" lon="5.662">
        <ele>962.9</ele>
        <time>2010-05-29T12:51:48Z</time>
      </trkpt>
      <trkpt lat="44.88119" lon="5.66204">
        <ele>961.94</ele>
        <time>2010-05-29T12:51:50Z</time>
      </trkpt>
      <trkpt lat="44.88119" lon="5.66219">
        <ele>956.65</ele>
        <time>2010-05-29T12:51:56Z</time>
      </trkpt>
      <trkpt lat="44.8812" lon="5.66228">
        <ele>952.8</ele>
        <time>2010-05-29T12:52:00Z</time>
      </trkpt>
      <trkpt lat="44.8812" lon="5.66243">
        <ele>948.48</ele>
        <time>2010-05-29T12:52:05Z</time>
      </trkpt>
      <trkpt lat="44.88119" lon="5.66246">
        <ele>947.52</ele>
        <time>2010-05-29T12:52:06Z</time>
      </trkpt>
      <trkpt lat="44.88118" lon="5.6626">
        <ele>942.71</ele>
        <time>2010-05-29T12:52:10Z</time>
      </trkpt>
      <trkpt lat="44.88116" lon="5.66268">
        <ele>940.79</ele>
        <time>2010-05-29T12:52:12Z</time>
      </trkpt>
      <trkpt lat="44.88115" lon="5.66285">
        <ele>936.94</ele>
        <time>2010-05-29T12:52:16Z</time>
      </trkpt>
      <trkpt lat="44.88114" lon="5.66298">
        <ele>935.02</ele>
        <time>2010-05-29T12:52:19Z</time>
      </trkpt>
      <trkpt lat="44.88112" lon="5.66304">
        <ele>933.1</ele>
        <time>2010-05-29T12:52:20Z</time>
      </trkpt>
      <trkpt lat="44.88106" lon="5.66325">
        <ele>929.73</ele>
        <time>2010-05-29T12:52:23Z</time>
      </trkpt>
      <trkpt lat="44.88099" lon="5.66355">
        <ele>925.41</ele>
        <time>2010-05-29T12:52:27Z</time>
      </trkpt>
      <trkpt lat="44.88096" lon="5.66363">
        <ele>925.41</ele>
        <time>2010-05-29T12:52:28Z</time>
      </trkpt>
      <trkpt lat="44.88088" lon="5.66388">
        <ele>921.08</ele>
        <time>2010-05-29T12:52:31Z</time>
      </trkpt>
      <trkpt lat="44.88085" lon="5.66395">
        <ele>921.56</ele>
        <time>2010-05-29T12:52:32Z</time>
      </trkpt>
      <trkpt lat="44.88079" lon="5.66423">
        <ele>918.2</ele>
        <time>2010-05-29T12:52:36Z</time>
      </trkpt>
      <trkpt lat="44.88077" lon="5.66432">
        <ele>916.75</ele>
        <time>2010-05-29T12:52:49Z</time>
      </trkpt>
      <trkpt lat="44.88076" lon="5.66435">
        <ele>917.72</ele>
        <time>2010-05-29T12:53:05Z</time>
      </trkpt>
      <trkpt lat="44.88108" lon="5.66431">
        <ele>915.31</ele>
        <time>2010-05-29T12:53:17Z</time>
      </trkpt>
      <trkpt lat="44.88113" lon="5.6643">
        <ele>915.31</ele>
        <time>2010-05-29T12:53:18Z</time>
      </trkpt>
      <trkpt lat="44.88119" lon="5.66426">
        <ele>913.87</ele>
        <time>2010-05-29T12:53:19Z</time>
      </trkpt>
      <trkpt lat="44.88124" lon="5.66421">
        <ele>912.91</ele>
        <time>2010-05-29T12:53:20Z</time>
      </trkpt>
      <trkpt lat="44.88128" lon="5.66416">
        <ele>911.47</ele>
        <time>2010-05-29T12:53:21Z</time>
      </trkpt>
      <trkpt lat="44.88132" lon="5.6641">
        <ele>911.95</ele>
        <time>2010-05-29T12:53:22Z</time>
      </trkpt>
      <trkpt lat="44.88136" lon="5.66404">
        <ele>911.47</ele>
        <time>2010-05-29T12:53:23Z</time>
      </trkpt>
      <trkpt lat="44.88146" lon="5.66393">
        <ele>910.03</ele>
        <time>2010-05-29T12:53:25Z</time>
      </trkpt>
      <trkpt lat="44.88157" lon="5.66383">
        <ele>909.54</ele>
        <time>2010-05-29T12:53:27Z</time>
      </trkpt>
      <trkpt lat="44.88163" lon="5.66378">
        <ele>909.54</ele>
        <time>2010-05-29T12:53:28Z</time>
      </trkpt>
      <trkpt lat="44.88181" lon="5.66366">
        <ele>908.1</ele>
        <time>2010-05-29T12:53:31Z</time>
      </trkpt>
      <trkpt lat="44.88192" lon="5.66363">
        <ele>908.1</ele>
        <time>2010-05-29T12:53:33Z</time>
      </trkpt>
      <trkpt lat="44.88198" lon="5.66362">
        <ele>908.1</ele>
        <time>2010-05-29T12:53:34Z</time>
      </trkpt>
      <trkpt lat="44.88216" lon="5.66362">
        <ele>907.14</ele>
        <time>2010-05-29T12:53:37Z</time>
      </trkpt>
      <trkpt lat="44.88223" lon="5.66361">
        <ele>906.18</ele>
        <time>2010-05-29T12:53:38Z</time>
      </trkpt>
      <trkpt lat="44.88242" lon="5.66359">
        <ele>904.74</ele>
        <time>2010-05-29T12:53:42Z</time>
      </trkpt>
      <trkpt lat="44.88255" lon="5.66356">
        <ele>904.26</ele>
        <time>2010-05-29T12:53:45Z</time>
      </trkpt>
      <trkpt lat="44.88263" lon="5.66352">
        <ele>903.78</ele>
        <time>2010-05-29T12:53:47Z</time>
      </trkpt>
      <trkpt lat="44.88273" lon="5.6635">
        <ele>904.26</ele>
        <time>2010-05-29T12:53:49Z</time>
      </trkpt>
      <trkpt lat="44.88343" lon="5.66333">
        <ele>900.89</ele>
        <time>2010-05-29T12:54:01Z</time>
      </trkpt>
      <trkpt lat="44.88349" lon="5.6633">
        <ele>901.37</ele>
        <time>2010-05-29T12:54:02Z</time>
      </trkpt>
      <trkpt lat="44.88377" lon="5.66322">
        <ele>899.93</ele>
        <time>2010-05-29T12:54:07Z</time>
      </trkpt>
      <trkpt lat="44.88397" lon="5.6632">
        <ele>898.97</ele>
        <time>2010-05-29T12:54:11Z</time>
      </trkpt>
      <trkpt lat="44.88407" lon="5.66317">
        <ele>898.97</ele>
        <time>2010-05-29T12:54:13Z</time>
      </trkpt>
      <trkpt lat="44.88412" lon="5.66314">
        <ele>898.01</ele>
        <time>2010-05-29T12:54:14Z</time>
      </trkpt>
      <trkpt lat="44.88417" lon="5.66313">
        <ele>898.49</ele>
        <time>2010-05-29T12:54:15Z</time>
      </trkpt>
      <trkpt lat="44.88422" lon="5.66312">
        <ele>898.49</ele>
        <time>2010-05-29T12:54:16Z</time>
      </trkpt>
      <trkpt lat="44.88427" lon="5.66311">
        <ele>898.97</ele>
        <time>2010-05-29T12:54:17Z</time>
      </trkpt>
      <trkpt lat="44.88448" lon="5.6631">
        <ele>898.01</ele>
        <time>2010-05-29T12:54:21Z</time>
      </trkpt>
      <trkpt lat="44.88454" lon="5.66309">
        <ele>897.53</ele>
        <time>2010-05-29T12:54:22Z</time>
      </trkpt>
      <trkpt lat="44.88459" lon="5.66307">
        <ele>897.05</ele>
        <time>2010-05-29T12:54:23Z</time>
      </trkpt>
      <trkpt lat="44.88465" lon="5.66305">
        <ele>897.05</ele>
        <time>2010-05-29T12:54:24Z</time>
      </trkpt>
      <trkpt lat="44.88469" lon="5.66303">
        <ele>896.09</ele>
        <time>2010-05-29T12:54:25Z</time>
      </trkpt>
      <trkpt lat="44.88473" lon="5.663">
        <ele>895.12</ele>
        <time>2010-05-29T12:54:26Z</time>
      </trkpt>
      <trkpt lat="44.88482" lon="5.66295">
        <ele>894.16</ele>
        <time>2010-05-29T12:54:28Z</time>
      </trkpt>
      <trkpt lat="44.88486" lon="5.6629">
        <ele>894.16</ele>
        <time>2010-05-29T12:54:29Z</time>
      </trkpt>
      <trkpt lat="44.8849" lon="5.66285">
        <ele>892.72</ele>
        <time>2010-05-29T12:54:30Z</time>
      </trkpt>
      <trkpt lat="44.88494" lon="5.66279">
        <ele>892.72</ele>
        <time>2010-05-29T12:54:31Z</time>
      </trkpt>
      <trkpt lat="44.88496" lon="5.66275">
        <ele>892.24</ele>
        <time>2010-05-29T12:54:32Z</time>
      </trkpt>
      <trkpt lat="44.885" lon="5.66271">
        <ele>889.84</ele>
        <time>2010-05-29T12:54:36Z</time>
      </trkpt>
      <trkpt lat="44.88501" lon="5.6627">
        <ele>885.99</ele>
        <time>2010-05-29T12:54:47Z</time>
      </trkpt>
      <trkpt lat="44.88501" lon="5.6627">
        <ele>891.28</ele>
        <time>2010-05-29T12:54:48Z</time>
      </trkpt>
      <trkpt lat="44.88501" lon="5.66269">
        <ele>889.84</ele>
        <time>2010-05-29T12:54:51Z</time>
      </trkpt>
      <trkpt lat="44.88501" lon="5.66269">
        <ele>889.84</ele>
        <time>2010-05-29T12:54:55Z</time>
      </trkpt>
      <trkpt lat="44.88501" lon="5.66269">
        <ele>891.28</ele>
        <time>2010-05-29T12:55:26Z</time>
      </trkpt>
      <trkpt lat="44.88501" lon="5.66269">
        <ele>887.91</ele>
        <time>2010-05-29T12:55:28Z</time>
      </trkpt>
      <trkpt lat="44.88501" lon="5.66269">
        <ele>891.28</ele>
        <time>2010-05-29T12:55:30Z</time>
      </trkpt>
      <trkpt lat="44.88501" lon="5.66269">
        <ele>887.91</ele>
        <time>2010-05-29T12:55:48Z</time>
      </trkpt>
      <trkpt lat="44.88501" lon="5.66269">
        <ele>890.32</ele>
        <time>2010-05-29T12:55:50Z</time>
      </trkpt>
      <trkpt lat="44.88501" lon="5.66269">
        <ele>895.12</ele>
        <time>2010-05-29T12:55:55Z</time>
      </trkpt>
      <trkpt lat="44.88501" lon="5.66269">
        <ele>893.68</ele>
        <time>2010-05-29T12:55:56Z</time>
      </trkpt>
      <trkpt lat="44.88501" lon="5.66269">
        <ele>890.32</ele>
        <time>2010-05-29T12:55:58Z</time>
      </trkpt>
      <trkpt lat="44.88502" lon="5.66272">
        <ele>891.28</ele>
        <time>2010-05-29T12:56:31Z</time>
      </trkpt>
      <trkpt lat="44.88504" lon="5.66275">
        <ele>890.8</ele>
        <time>2010-05-29T12:56:47Z</time>
      </trkpt>
      <trkpt lat="44.88504" lon="5.66277">
        <ele>890.8</ele>
        <time>2010-05-29T12:56:48Z</time>
      </trkpt>
      <trkpt lat="44.88504" lon="5.66279">
        <ele>890.8</ele>
        <time>2010-05-29T12:56:49Z</time>
      </trkpt>
      <trkpt lat="44.88504" lon="5.66282">
        <ele>891.28</ele>
        <time>2010-05-29T12:56:50Z</time>
      </trkpt>
      <trkpt lat="44.88504" lon="5.66315">
        <ele>889.36</ele>
        <time>2010-05-29T12:56:59Z</time>
      </trkpt>
      <trkpt lat="44.88507" lon="5.66342">
        <ele>886.47</ele>
        <time>2010-05-29T12:57:03Z</time>
      </trkpt>
      <trkpt lat="44.88511" lon="5.66379">
        <ele>882.15</ele>
        <time>2010-05-29T12:57:10Z</time>
      </trkpt>
      <trkpt lat="44.88518" lon="5.66401">
        <ele>877.82</ele>
        <time>2010-05-29T12:57:14Z</time>
      </trkpt>
      <trkpt lat="44.88517" lon="5.66414">
        <ele>874.94</ele>
        <time>2010-05-29T12:57:18Z</time>
      </trkpt>
      <trkpt lat="44.88527" lon="5.66427">
        <ele>871.57</ele>
        <time>2010-05-29T12:57:22Z</time>
      </trkpt>
      <trkpt lat="44.88535" lon="5.66427">
        <ele>869.65</ele>
        <time>2010-05-29T12:57:25Z</time>
      </trkpt>
      <trkpt lat="44.88543" lon="5.66419">
        <ele>865.32</ele>
        <time>2010-05-29T12:57:28Z</time>
      </trkpt>
      <trkpt lat="44.88545" lon="5.66411">
        <ele>862.92</ele>
        <time>2010-05-29T12:57:31Z</time>
      </trkpt>
      <trkpt lat="44.88549" lon="5.66405">
        <ele>860.04</ele>
        <time>2010-05-29T12:57:35Z</time>
      </trkpt>
      <trkpt lat="44.8855" lon="5.66405">
        <ele>858.59</ele>
        <time>2010-05-29T12:57:39Z</time>
      </trkpt>
      <trkpt lat="44.8855" lon="5.66405">
        <ele>859.56</ele>
        <time>2010-05-29T12:57:41Z</time>
      </trkpt>
      <trkpt lat="44.8855" lon="5.66411">
        <ele>858.59</ele>
        <time>2010-05-29T12:57:43Z</time>
      </trkpt>
      <trkpt lat="44.88552" lon="5.66432">
        <ele>854.75</ele>
        <time>2010-05-29T12:57:48Z</time>
      </trkpt>
      <trkpt lat="44.88558" lon="5.66451">
        <ele>850.9</ele>
        <time>2010-05-29T12:57:52Z</time>
      </trkpt>
      <trkpt lat="44.8856" lon="5.66462">
        <ele>849.94</ele>
        <time>2010-05-29T12:57:54Z</time>
      </trkpt>
      <trkpt lat="44.88557" lon="5.6648">
        <ele>846.1</ele>
        <time>2010-05-29T12:57:58Z</time>
      </trkpt>
      <trkpt lat="44.88552" lon="5.66495">
        <ele>843.21</ele>
        <time>2010-05-29T12:58:02Z</time>
      </trkpt>
      <trkpt lat="44.88546" lon="5.66509">
        <ele>838.41</ele>
        <time>2010-05-29T12:58:05Z</time>
      </trkpt>
      <trkpt lat="44.88539" lon="5.66519">
        <ele>836</ele>
        <time>2010-05-29T12:58:08Z</time>
      </trkpt>
      <trkpt lat="44.88539" lon="5.66521">
        <ele>835.04</ele>
        <time>2010-05-29T12:58:09Z</time>
      </trkpt>
      <trkpt lat="44.88543" lon="5.66533">
        <ele>833.12</ele>
        <time>2010-05-29T12:58:12Z</time>
      </trkpt>
      <trkpt lat="44.8855" lon="5.66544">
        <ele>829.76</ele>
        <time>2010-05-29T12:58:15Z</time>
      </trkpt>
      <trkpt lat="44.88553" lon="5.66548">
        <ele>828.79</ele>
        <time>2010-05-29T12:58:16Z</time>
      </trkpt>
      <trkpt lat="44.88559" lon="5.66553">
        <ele>826.39</ele>
        <time>2010-05-29T12:58:18Z</time>
      </trkpt>
      <trkpt lat="44.88553" lon="5.66568">
        <ele>823.51</ele>
        <time>2010-05-29T12:58:24Z</time>
      </trkpt>
      <trkpt lat="44.88551" lon="5.66572">
        <ele>821.58</ele>
        <time>2010-05-29T12:58:26Z</time>
      </trkpt>
      <trkpt lat="44.88553" lon="5.66579">
        <ele>820.62</ele>
        <time>2010-05-29T12:58:28Z</time>
      </trkpt>
      <trkpt lat="44.88559" lon="5.66586">
        <ele>818.22</ele>
        <time>2010-05-29T12:58:30Z</time>
      </trkpt>
      <trkpt lat="44.88563" lon="5.666">
        <ele>814.37</ele>
        <time>2010-05-29T12:58:34Z</time>
      </trkpt>
      <trkpt lat="44.88566" lon="5.6661">
        <ele>811.97</ele>
        <time>2010-05-29T12:58:37Z</time>
      </trkpt>
      <trkpt lat="44.88571" lon="5.66626">
        <ele>807.16</ele>
        <time>2010-05-29T12:58:41Z</time>
      </trkpt>
      <trkpt lat="44.88577" lon="5.66636">
        <ele>805.72</ele>
        <time>2010-05-29T12:58:43Z</time>
      </trkpt>
      <trkpt lat="44.88586" lon="5.66651">
        <ele>802.36</ele>
        <time>2010-05-29T12:58:46Z</time>
      </trkpt>
      <trkpt lat="44.88588" lon="5.66654">
        <ele>802.36</ele>
        <time>2010-05-29T12:58:47Z</time>
      </trkpt>
      <trkpt lat="44.88589" lon="5.66666">
        <ele>800.44</ele>
        <time>2010-05-29T12:58:54Z</time>
      </trkpt>
      <trkpt lat="44.88592" lon="5.66673">
        <ele>800.44</ele>
        <time>2010-05-29T12:59:11Z</time>
      </trkpt>
      <trkpt lat="44.88592" lon="5.66673">
        <ele>799.95</ele>
        <time>2010-05-29T13:00:18Z</time>
      </trkpt>
      <trkpt lat="44.8859" lon="5.66696">
        <ele>796.59</ele>
        <time>2010-05-29T13:00:25Z</time>
      </trkpt>
      <trkpt lat="44.88586" lon="5.66706">
        <ele>794.67</ele>
        <time>2010-05-29T13:00:27Z</time>
      </trkpt>
      <trkpt lat="44.88585" lon="5.66713">
        <ele>793.71</ele>
        <time>2010-05-29T13:00:28Z</time>
      </trkpt>
      <trkpt lat="44.88585" lon="5.6672">
        <ele>792.74</ele>
        <time>2010-05-29T13:00:29Z</time>
      </trkpt>
      <trkpt lat="44.88584" lon="5.66727">
        <ele>791.3</ele>
        <time>2010-05-29T13:00:30Z</time>
      </trkpt>
      <trkpt lat="44.88581" lon="5.6675">
        <ele>786.98</ele>
        <time>2010-05-29T13:00:34Z</time>
      </trkpt>
      <trkpt lat="44.8858" lon="5.66763">
        <ele>785.05</ele>
        <time>2010-05-29T13:00:36Z</time>
      </trkpt>
      <trkpt lat="44.88581" lon="5.66769">
        <ele>784.57</ele>
        <time>2010-05-29T13:00:37Z</time>
      </trkpt>
      <trkpt lat="44.88581" lon="5.66776">
        <ele>783.13</ele>
        <time>2010-05-29T13:00:38Z</time>
      </trkpt>
      <trkpt lat="44.88583" lon="5.66782">
        <ele>782.17</ele>
        <time>2010-05-29T13:00:39Z</time>
      </trkpt>
      <trkpt lat="44.88583" lon="5.66788">
        <ele>781.21</ele>
        <time>2010-05-29T13:00:40Z</time>
      </trkpt>
      <trkpt lat="44.88584" lon="5.66794">
        <ele>780.25</ele>
        <time>2010-05-29T13:00:41Z</time>
      </trkpt>
      <trkpt lat="44.88584" lon="5.66801">
        <ele>778.81</ele>
        <time>2010-05-29T13:00:42Z</time>
      </trkpt>
      <trkpt lat="44.88585" lon="5.66808">
        <ele>778.81</ele>
        <time>2010-05-29T13:00:43Z</time>
      </trkpt>
      <trkpt lat="44.88588" lon="5.66821">
        <ele>776.88</ele>
        <time>2010-05-29T13:00:45Z</time>
      </trkpt>
      <trkpt lat="44.88588" lon="5.66831">
        <ele>776.4</ele>
        <time>2010-05-29T13:00:46Z</time>
      </trkpt>
      <trkpt lat="44.88588" lon="5.6684">
        <ele>776.4</ele>
        <time>2010-05-29T13:00:47Z</time>
      </trkpt>
      <trkpt lat="44.8859" lon="5.66846">
        <ele>776.4</ele>
        <time>2010-05-29T13:00:48Z</time>
      </trkpt>
      <trkpt lat="44.88591" lon="5.66851">
        <ele>775.92</ele>
        <time>2010-05-29T13:00:49Z</time>
      </trkpt>
      <trkpt lat="44.88594" lon="5.66854">
        <ele>775.44</ele>
        <time>2010-05-29T13:00:50Z</time>
      </trkpt>
      <trkpt lat="44.88608" lon="5.66836">
        <ele>772.08</ele>
        <time>2010-05-29T13:00:57Z</time>
      </trkpt>
      <trkpt lat="44.88611" lon="5.66821">
        <ele>768.71</ele>
        <time>2010-05-29T13:01:01Z</time>
      </trkpt>
      <trkpt lat="44.88612" lon="5.66817">
        <ele>767.27</ele>
        <time>2010-05-29T13:01:02Z</time>
      </trkpt>
      <trkpt lat="44.88615" lon="5.66812">
        <ele>766.79</ele>
        <time>2010-05-29T13:01:03Z</time>
      </trkpt>
      <trkpt lat="44.88617" lon="5.66807">
        <ele>766.31</ele>
        <time>2010-05-29T13:01:04Z</time>
      </trkpt>
      <trkpt lat="44.88625" lon="5.66788">
        <ele>762.46</ele>
        <time>2010-05-29T13:01:09Z</time>
      </trkpt>
      <trkpt lat="44.88625" lon="5.66787">
        <ele>761.02</ele>
        <time>2010-05-29T13:01:12Z</time>
      </trkpt>
      <trkpt lat="44.88626" lon="5.66786">
        <ele>761.02</ele>
        <time>2010-05-29T13:01:13Z</time>
      </trkpt>
      <trkpt lat="44.88626" lon="5.66787">
        <ele>759.1</ele>
        <time>2010-05-29T13:01:16Z</time>
      </trkpt>
      <trkpt lat="44.88627" lon="5.66789">
        <ele>759.1</ele>
        <time>2010-05-29T13:01:26Z</time>
      </trkpt>
      <trkpt lat="44.88627" lon="5.66792">
        <ele>758.14</ele>
        <time>2010-05-29T13:01:28Z</time>
      </trkpt>
      <trkpt lat="44.88628" lon="5.66795">
        <ele>757.18</ele>
        <time>2010-05-29T13:01:29Z</time>
      </trkpt>
      <trkpt lat="44.88627" lon="5.66799">
        <ele>756.21</ele>
        <time>2010-05-29T13:01:30Z</time>
      </trkpt>
      <trkpt lat="44.88627" lon="5.66802">
        <ele>756.21</ele>
        <time>2010-05-29T13:01:31Z</time>
      </trkpt>
      <trkpt lat="44.88628" lon="5.66807">
        <ele>754.77</ele>
        <time>2010-05-29T13:01:32Z</time>
      </trkpt>
      <trkpt lat="44.88629" lon="5.66811">
        <ele>754.29</ele>
        <time>2010-05-29T13:01:33Z</time>
      </trkpt>
      <trkpt lat="44.88633" lon="5.66816">
        <ele>753.33</ele>
        <time>2010-05-29T13:01:35Z</time>
      </trkpt>
      <trkpt lat="44.88635" lon="5.66833">
        <ele>750.45</ele>
        <time>2010-05-29T13:01:40Z</time>
      </trkpt>
      <trkpt lat="44.88637" lon="5.66839">
        <ele>748.52</ele>
        <time>2010-05-29T13:01:42Z</time>
      </trkpt>
      <trkpt lat="44.8864" lon="5.66857">
        <ele>744.2</ele>
        <time>2010-05-29T13:01:46Z</time>
      </trkpt>
      <trkpt lat="44.8864" lon="5.66861">
        <ele>744.2</ele>
        <time>2010-05-29T13:01:47Z</time>
      </trkpt>
      <trkpt lat="44.8864" lon="5.66879">
        <ele>740.83</ele>
        <time>2010-05-29T13:01:51Z</time>
      </trkpt>
      <trkpt lat="44.88642" lon="5.66896">
        <ele>738.43</ele>
        <time>2010-05-29T13:01:54Z</time>
      </trkpt>
      <trkpt lat="44.88644" lon="5.66919">
        <ele>735.07</ele>
        <time>2010-05-29T13:01:59Z</time>
      </trkpt>
      <trkpt lat="44.88648" lon="5.66928">
        <ele>732.66</ele>
        <time>2010-05-29T13:02:01Z</time>
      </trkpt>
      <trkpt lat="44.88653" lon="5.66946">
        <ele>728.34</ele>
        <time>2010-05-29T13:02:05Z</time>
      </trkpt>
      <trkpt lat="44.88656" lon="5.66952">
        <ele>727.37</ele>
        <time>2010-05-29T13:02:06Z</time>
      </trkpt>
      <trkpt lat="44.88658" lon="5.66958">
        <ele>725.93</ele>
        <time>2010-05-29T13:02:07Z</time>
      </trkpt>
      <trkpt lat="44.8866" lon="5.66962">
        <ele>724.97</ele>
        <time>2010-05-29T13:02:08Z</time>
      </trkpt>
      <trkpt lat="44.88671" lon="5.66972">
        <ele>723.53</ele>
        <time>2010-05-29T13:02:10Z</time>
      </trkpt>
      <trkpt lat="44.88683" lon="5.6699">
        <ele>719.68</ele>
        <time>2010-05-29T13:02:15Z</time>
      </trkpt>
      <trkpt lat="44.88684" lon="5.66991">
        <ele>720.16</ele>
        <time>2010-05-29T13:02:16Z</time>
      </trkpt>
      <trkpt lat="44.88688" lon="5.66997">
        <ele>717.76</ele>
        <time>2010-05-29T13:02:19Z</time>
      </trkpt>
      <trkpt lat="44.88689" lon="5.66999">
        <ele>718.24</ele>
        <time>2010-05-29T13:02:20Z</time>
      </trkpt>
      <trkpt lat="44.8869" lon="5.67001">
        <ele>717.28</ele>
        <time>2010-05-29T13:02:21Z</time>
      </trkpt>
      <trkpt lat="44.88691" lon="5.67004">
        <ele>716.32</ele>
        <time>2010-05-29T13:02:22Z</time>
      </trkpt>
      <trkpt lat="44.88692" lon="5.67006">
        <ele>716.32</ele>
        <time>2010-05-29T13:02:23Z</time>
      </trkpt>
      <trkpt lat="44.88694" lon="5.67008">
        <ele>715.84</ele>
        <time>2010-05-29T13:02:24Z</time>
      </trkpt>
      <trkpt lat="44.88695" lon="5.67009">
        <ele>715.36</ele>
        <time>2010-05-29T13:02:25Z</time>
      </trkpt>
      <trkpt lat="44.88698" lon="5.67014">
        <ele>713.44</ele>
        <time>2010-05-29T13:02:28Z</time>
      </trkpt>
      <trkpt lat="44.88703" lon="5.67018">
        <ele>711.51</ele>
        <time>2010-05-29T13:02:45Z</time>
      </trkpt>
      <trkpt lat="44.88702" lon="5.67019">
        <ele>711.51</ele>
        <time>2010-05-29T13:02:59Z</time>
      </trkpt>
      <trkpt lat="44.88703" lon="5.67018">
        <ele>711.51</ele>
        <time>2010-05-29T13:03:07Z</time>
      </trkpt>
      <trkpt lat="44.88703" lon="5.6702">
        <ele>711.51</ele>
        <time>2010-05-29T13:03:18Z</time>
      </trkpt>
      <trkpt lat="44.88704" lon="5.67019">
        <ele>711.99</ele>
        <time>2010-05-29T13:03:30Z</time>
      </trkpt>
      <trkpt lat="44.88705" lon="5.67019">
        <ele>710.07</ele>
        <time>2010-05-29T13:04:01Z</time>
      </trkpt>
      <trkpt lat="44.88708" lon="5.67032">
        <ele>706.71</ele>
        <time>2010-05-29T13:04:08Z</time>
      </trkpt>
      <trkpt lat="44.88711" lon="5.67036">
        <ele>703.34</ele>
        <time>2010-05-29T13:04:12Z</time>
      </trkpt>
      <trkpt lat="44.88713" lon="5.67036">
        <ele>703.34</ele>
        <time>2010-05-29T13:04:23Z</time>
      </trkpt>
      <trkpt lat="44.88714" lon="5.67035">
        <ele>704.3</ele>
        <time>2010-05-29T13:05:29Z</time>
      </trkpt>
      <trkpt lat="44.88717" lon="5.6703">
        <ele>701.9</ele>
        <time>2010-05-29T13:05:33Z</time>
      </trkpt>
      <trkpt lat="44.88718" lon="5.67019">
        <ele>698.53</ele>
        <time>2010-05-29T13:05:38Z</time>
      </trkpt>
      <trkpt lat="44.88722" lon="5.67016">
        <ele>697.09</ele>
        <time>2010-05-29T13:06:01Z</time>
      </trkpt>
      <trkpt lat="44.88722" lon="5.67015">
        <ele>695.17</ele>
        <time>2010-05-29T13:06:40Z</time>
      </trkpt>
      <trkpt lat="44.88723" lon="5.67016">
        <ele>694.69</ele>
        <time>2010-05-29T13:06:42Z</time>
      </trkpt>
      <trkpt lat="44.88725" lon="5.67016">
        <ele>693.25</ele>
        <time>2010-05-29T13:06:45Z</time>
      </trkpt>
      <trkpt lat="44.88726" lon="5.67018">
        <ele>691.81</ele>
        <time>2010-05-29T13:07:01Z</time>
      </trkpt>
      <trkpt lat="44.88728" lon="5.67023">
        <ele>690.36</ele>
        <time>2010-05-29T13:07:18Z</time>
      </trkpt>
      <trkpt lat="44.88728" lon="5.67026">
        <ele>691.33</ele>
        <time>2010-05-29T13:08:06Z</time>
      </trkpt>
      <trkpt lat="44.88726" lon="5.67012">
        <ele>687.48</ele>
        <time>2010-05-29T13:08:12Z</time>
      </trkpt>
      <trkpt lat="44.88726" lon="5.67008">
        <ele>687</ele>
        <time>2010-05-29T13:08:13Z</time>
      </trkpt>
      <trkpt lat="44.8873" lon="5.6699">
        <ele>685.08</ele>
        <time>2010-05-29T13:08:17Z</time>
      </trkpt>
      <trkpt lat="44.88737" lon="5.6696">
        <ele>682.19</ele>
        <time>2010-05-29T13:08:23Z</time>
      </trkpt>
      <trkpt lat="44.88736" lon="5.66959">
        <ele>681.71</ele>
        <time>2010-05-29T13:08:24Z</time>
      </trkpt>
      <trkpt lat="44.88738" lon="5.66951">
        <ele>680.27</ele>
        <time>2010-05-29T13:08:27Z</time>
      </trkpt>
      <trkpt lat="44.8874" lon="5.6693">
        <ele>676.42</ele>
        <time>2010-05-29T13:08:32Z</time>
      </trkpt>
      <trkpt lat="44.88747" lon="5.66912">
        <ele>674.5</ele>
        <time>2010-05-29T13:08:36Z</time>
      </trkpt>
      <trkpt lat="44.8875" lon="5.66898">
        <ele>672.1</ele>
        <time>2010-05-29T13:08:40Z</time>
      </trkpt>
      <trkpt lat="44.88755" lon="5.66883">
        <ele>670.18</ele>
        <time>2010-05-29T13:08:44Z</time>
      </trkpt>
      <trkpt lat="44.88756" lon="5.66876">
        <ele>669.22</ele>
        <time>2010-05-29T13:08:46Z</time>
      </trkpt>
      <trkpt lat="44.88761" lon="5.66855">
        <ele>664.41</ele>
        <time>2010-05-29T13:08:51Z</time>
      </trkpt>
      <trkpt lat="44.88763" lon="5.66851">
        <ele>664.89</ele>
        <time>2010-05-29T13:08:52Z</time>
      </trkpt>
      <trkpt lat="44.88768" lon="5.66835">
        <ele>661.04</ele>
        <time>2010-05-29T13:08:57Z</time>
      </trkpt>
      <trkpt lat="44.88771" lon="5.66832">
        <ele>659.6</ele>
        <time>2010-05-29T13:09:00Z</time>
      </trkpt>
      <trkpt lat="44.88774" lon="5.66829">
        <ele>657.2</ele>
        <time>2010-05-29T13:09:09Z</time>
      </trkpt>
      <trkpt lat="44.88775" lon="5.66826">
        <ele>655.28</ele>
        <time>2010-05-29T13:09:12Z</time>
      </trkpt>
      <trkpt lat="44.88775" lon="5.66826">
        <ele>655.76</ele>
        <time>2010-05-29T13:10:03Z</time>
      </trkpt>
      <trkpt lat="44.88774" lon="5.66842">
        <ele>655.76</ele>
        <time>2010-05-29T13:10:11Z</time>
      </trkpt>
      <trkpt lat="44.88773" lon="5.66871">
        <ele>655.28</ele>
        <time>2010-05-29T13:10:22Z</time>
      </trkpt>
      <trkpt lat="44.88773" lon="5.66878">
        <ele>654.31</ele>
        <time>2010-05-29T13:10:24Z</time>
      </trkpt>
      <trkpt lat="44.88768" lon="5.66894">
        <ele>651.91</ele>
        <time>2010-05-29T13:10:29Z</time>
      </trkpt>
      <trkpt lat="44.88767" lon="5.66913">
        <ele>649.51</ele>
        <time>2010-05-29T13:10:34Z</time>
      </trkpt>
      <trkpt lat="44.88766" lon="5.66926">
        <ele>647.59</ele>
        <time>2010-05-29T13:10:38Z</time>
      </trkpt>
      <trkpt lat="44.88771" lon="5.66941">
        <ele>645.66</ele>
        <time>2010-05-29T13:10:42Z</time>
      </trkpt>
      <trkpt lat="44.88771" lon="5.66952">
        <ele>643.26</ele>
        <time>2010-05-29T13:10:46Z</time>
      </trkpt>
      <trkpt lat="44.88771" lon="5.66955">
        <ele>642.3</ele>
        <time>2010-05-29T13:10:47Z</time>
      </trkpt>
      <trkpt lat="44.88773" lon="5.66972">
        <ele>639.41</ele>
        <time>2010-05-29T13:10:52Z</time>
      </trkpt>
      <trkpt lat="44.88773" lon="5.6698">
        <ele>637.97</ele>
        <time>2010-05-29T13:10:55Z</time>
      </trkpt>
      <trkpt lat="44.88773" lon="5.66984">
        <ele>636.05</ele>
        <time>2010-05-29T13:10:57Z</time>
      </trkpt>
      <trkpt lat="44.8877" lon="5.66997">
        <ele>633.65</ele>
        <time>2010-05-29T13:11:01Z</time>
      </trkpt>
      <trkpt lat="44.88771" lon="5.67004">
        <ele>632.2</ele>
        <time>2010-05-29T13:11:03Z</time>
      </trkpt>
      <trkpt lat="44.88774" lon="5.67017">
        <ele>629.32</ele>
        <time>2010-05-29T13:11:07Z</time>
      </trkpt>
      <trkpt lat="44.88776" lon="5.67028">
        <ele>625.96</ele>
        <time>2010-05-29T13:11:10Z</time>
      </trkpt>
      <trkpt lat="44.88773" lon="5.67041">
        <ele>623.55</ele>
        <time>2010-05-29T13:11:13Z</time>
      </trkpt>
      <trkpt lat="44.88774" lon="5.67044">
        <ele>621.63</ele>
        <time>2010-05-29T13:11:14Z</time>
      </trkpt>
      <trkpt lat="44.88782" lon="5.67063">
        <ele>617.78</ele>
        <time>2010-05-29T13:11:18Z</time>
      </trkpt>
      <trkpt lat="44.8879" lon="5.67079">
        <ele>613.94</ele>
        <time>2010-05-29T13:11:22Z</time>
      </trkpt>
      <trkpt lat="44.88802" lon="5.67093">
        <ele>610.57</ele>
        <time>2010-05-29T13:11:25Z</time>
      </trkpt>
      <trkpt lat="44.88806" lon="5.67098">
        <ele>610.09</ele>
        <time>2010-05-29T13:11:26Z</time>
      </trkpt>
      <trkpt lat="44.88809" lon="5.67102">
        <ele>609.13</ele>
        <time>2010-05-29T13:11:27Z</time>
      </trkpt>
      <trkpt lat="44.88812" lon="5.67105">
        <ele>608.65</ele>
        <time>2010-05-29T13:11:28Z</time>
      </trkpt>
      <trkpt lat="44.88814" lon="5.67108">
        <ele>607.69</ele>
        <time>2010-05-29T13:11:29Z</time>
      </trkpt>
      <trkpt lat="44.88817" lon="5.67111">
        <ele>607.21</ele>
        <time>2010-05-29T13:11:30Z</time>
      </trkpt>
      <trkpt lat="44.88819" lon="5.67114">
        <ele>605.77</ele>
        <time>2010-05-29T13:11:31Z</time>
      </trkpt>
      <trkpt lat="44.8882" lon="5.67117">
        <ele>604.33</ele>
        <time>2010-05-29T13:11:32Z</time>
      </trkpt>
      <trkpt lat="44.88821" lon="5.67122">
        <ele>602.4</ele>
        <time>2010-05-29T13:11:33Z</time>
      </trkpt>
      <trkpt lat="44.8882" lon="5.67125">
        <ele>602.88</ele>
        <time>2010-05-29T13:11:34Z</time>
      </trkpt>
      <trkpt lat="44.8882" lon="5.67125">
        <ele>602.4</ele>
        <time>2010-05-29T13:11:38Z</time>
      </trkpt>
      <trkpt lat="44.8882" lon="5.67122">
        <ele>603.36</ele>
        <time>2010-05-29T13:11:39Z</time>
      </trkpt>
      <trkpt lat="44.88821" lon="5.67124">
        <ele>603.85</ele>
        <time>2010-05-29T13:11:47Z</time>
      </trkpt>
      <trkpt lat="44.88821" lon="5.67124">
        <ele>604.33</ele>
        <time>2010-05-29T13:11:49Z</time>
      </trkpt>
      <trkpt lat="44.88826" lon="5.6714">
        <ele>600.48</ele>
        <time>2010-05-29T13:11:56Z</time>
      </trkpt>
      <trkpt lat="44.88829" lon="5.67154">
        <ele>596.15</ele>
        <time>2010-05-29T13:12:00Z</time>
      </trkpt>
      <trkpt lat="44.88828" lon="5.6716">
        <ele>594.23</ele>
        <time>2010-05-29T13:12:02Z</time>
      </trkpt>
      <trkpt lat="44.8883" lon="5.67174">
        <ele>590.39</ele>
        <time>2010-05-29T13:12:06Z</time>
      </trkpt>
      <trkpt lat="44.88835" lon="5.67195">
        <ele>586.06</ele>
        <time>2010-05-29T13:12:11Z</time>
      </trkpt>
      <trkpt lat="44.88836" lon="5.67207">
        <ele>584.14</ele>
        <time>2010-05-29T13:12:14Z</time>
      </trkpt>
      <trkpt lat="44.88832" lon="5.67216">
        <ele>582.22</ele>
        <time>2010-05-29T13:12:17Z</time>
      </trkpt>
      <trkpt lat="44.88826" lon="5.67222">
        <ele>581.25</ele>
        <time>2010-05-29T13:12:20Z</time>
      </trkpt>
      <trkpt lat="44.88824" lon="5.67226">
        <ele>579.33</ele>
        <time>2010-05-29T13:12:34Z</time>
      </trkpt>
      <trkpt lat="44.88823" lon="5.67233">
        <ele>578.85</ele>
        <time>2010-05-29T13:14:38Z</time>
      </trkpt>
      <trkpt lat="44.8882" lon="5.67235">
        <ele>578.37</ele>
        <time>2010-05-29T13:15:07Z</time>
      </trkpt>
      <trkpt lat="44.88814" lon="5.67242">
        <ele>576.93</ele>
        <time>2010-05-29T13:15:14Z</time>
      </trkpt>
      <trkpt lat="44.88813" lon="5.67247">
        <ele>575.49</ele>
        <time>2010-05-29T13:15:16Z</time>
      </trkpt>
      <trkpt lat="44.88815" lon="5.67249">
        <ele>575.49</ele>
        <time>2010-05-29T13:15:18Z</time>
      </trkpt>
      <trkpt lat="44.88822" lon="5.67252">
        <ele>571.64</ele>
        <time>2010-05-29T13:15:22Z</time>
      </trkpt>
      <trkpt lat="44.88831" lon="5.67254">
        <ele>567.32</ele>
        <time>2010-05-29T13:15:26Z</time>
      </trkpt>
      <trkpt lat="44.88841" lon="5.67259">
        <ele>563.47</ele>
        <time>2010-05-29T13:15:29Z</time>
      </trkpt>
      <trkpt lat="44.88856" lon="5.67267">
        <ele>560.59</ele>
        <time>2010-05-29T13:15:33Z</time>
      </trkpt>
      <trkpt lat="44.8887" lon="5.67274">
        <ele>557.22</ele>
        <time>2010-05-29T13:15:36Z</time>
      </trkpt>
      <trkpt lat="44.8888" lon="5.67285">
        <ele>553.86</ele>
        <time>2010-05-29T13:15:39Z</time>
      </trkpt>
      <trkpt lat="44.88887" lon="5.67297">
        <ele>551.93</ele>
        <time>2010-05-29T13:15:42Z</time>
      </trkpt>
      <trkpt lat="44.88889" lon="5.67308">
        <ele>549.53</ele>
        <time>2010-05-29T13:15:44Z</time>
      </trkpt>
      <trkpt lat="44.88892" lon="5.67335">
        <ele>546.17</ele>
        <time>2010-05-29T13:15:49Z</time>
      </trkpt>
      <trkpt lat="44.88891" lon="5.67339">
        <ele>545.2</ele>
        <time>2010-05-29T13:15:50Z</time>
      </trkpt>
      <trkpt lat="44.8889" lon="5.67342">
        <ele>544.72</ele>
        <time>2010-05-29T13:15:51Z</time>
      </trkpt>
      <trkpt lat="44.88888" lon="5.67345">
        <ele>544.24</ele>
        <time>2010-05-29T13:15:52Z</time>
      </trkpt>
      <trkpt lat="44.88886" lon="5.67347">
        <ele>543.76</ele>
        <time>2010-05-29T13:15:53Z</time>
      </trkpt>
      <trkpt lat="44.88886" lon="5.67349">
        <ele>543.28</ele>
        <time>2010-05-29T13:15:54Z</time>
      </trkpt>
      <trkpt lat="44.88886" lon="5.67351">
        <ele>542.8</ele>
        <time>2010-05-29T13:15:55Z</time>
      </trkpt>
      <trkpt lat="44.88887" lon="5.67352">
        <ele>541.84</ele>
        <time>2010-05-29T13:16:10Z</time>
      </trkpt>
      <trkpt lat="44.88887" lon="5.67352">
        <ele>541.84</ele>
        <time>2010-05-29T13:16:32Z</time>
      </trkpt>
      <trkpt lat="44.88906" lon="5.67332">
        <ele>540.4</ele>
        <time>2010-05-29T13:16:40Z</time>
      </trkpt>
      <trkpt lat="44.8891" lon="5.67331">
        <ele>541.36</ele>
        <time>2010-05-29T13:16:41Z</time>
      </trkpt>
      <trkpt lat="44.88915" lon="5.67331">
        <ele>541.36</ele>
        <time>2010-05-29T13:16:42Z</time>
      </trkpt>
      <trkpt lat="44.8892" lon="5.67333">
        <ele>541.84</ele>
        <time>2010-05-29T13:16:43Z</time>
      </trkpt>
      <trkpt lat="44.88924" lon="5.67333">
        <ele>542.32</ele>
        <time>2010-05-29T13:16:44Z</time>
      </trkpt>
      <trkpt lat="44.88928" lon="5.67334">
        <ele>542.32</ele>
        <time>2010-05-29T13:16:45Z</time>
      </trkpt>
      <trkpt lat="44.88935" lon="5.67334">
        <ele>541.84</ele>
        <time>2010-05-29T13:16:53Z</time>
      </trkpt>
      <trkpt lat="44.88937" lon="5.67337">
        <ele>541.36</ele>
        <time>2010-05-29T13:17:04Z</time>
      </trkpt>
      <trkpt lat="44.88938" lon="5.67339">
        <ele>540.4</ele>
        <time>2010-05-29T13:17:05Z</time>
      </trkpt>
      <trkpt lat="44.8894" lon="5.6734">
        <ele>539.92</ele>
        <time>2010-05-29T13:17:06Z</time>
      </trkpt>
      <trkpt lat="44.88941" lon="5.67343">
        <ele>538.96</ele>
        <time>2010-05-29T13:17:07Z</time>
      </trkpt>
      <trkpt lat="44.88942" lon="5.67347">
        <ele>538.48</ele>
        <time>2010-05-29T13:17:08Z</time>
      </trkpt>
      <trkpt lat="44.88943" lon="5.67349">
        <ele>537.99</ele>
        <time>2010-05-29T13:17:09Z</time>
      </trkpt>
      <trkpt lat="44.88945" lon="5.67352">
        <ele>536.55</ele>
        <time>2010-05-29T13:17:10Z</time>
      </trkpt>
      <trkpt lat="44.88946" lon="5.67355">
        <ele>535.59</ele>
        <time>2010-05-29T13:17:11Z</time>
      </trkpt>
      <trkpt lat="44.88948" lon="5.67358">
        <ele>534.63</ele>
        <time>2010-05-29T13:17:12Z</time>
      </trkpt>
      <trkpt lat="44.88949" lon="5.67361">
        <ele>533.67</ele>
        <time>2010-05-29T13:17:13Z</time>
      </trkpt>
      <trkpt lat="44.8895" lon="5.67368">
        <ele>531.27</ele>
        <time>2010-05-29T13:17:16Z</time>
      </trkpt>
      <trkpt lat="44.8895" lon="5.67375">
        <ele>529.82</ele>
        <time>2010-05-29T13:17:19Z</time>
      </trkpt>
      <trkpt lat="44.88948" lon="5.67384">
        <ele>525.02</ele>
        <time>2010-05-29T13:17:23Z</time>
      </trkpt>
      <trkpt lat="44.88949" lon="5.67396">
        <ele>522.61</ele>
        <time>2010-05-29T13:17:26Z</time>
      </trkpt>
      <trkpt lat="44.8895" lon="5.67403">
        <ele>521.17</ele>
        <time>2010-05-29T13:17:28Z</time>
      </trkpt>
      <trkpt lat="44.88952" lon="5.67407">
        <ele>519.73</ele>
        <time>2010-05-29T13:17:29Z</time>
      </trkpt>
      <trkpt lat="44.88948" lon="5.6742">
        <ele>516.85</ele>
        <time>2010-05-29T13:17:34Z</time>
      </trkpt>
      <trkpt lat="44.88945" lon="5.67423">
        <ele>514.44</ele>
        <time>2010-05-29T13:17:52Z</time>
      </trkpt>
      <trkpt lat="44.88939" lon="5.6744">
        <ele>511.08</ele>
        <time>2010-05-29T13:18:04Z</time>
      </trkpt>
      <trkpt lat="44.88948" lon="5.67473">
        <ele>507.71</ele>
        <time>2010-05-29T13:18:10Z</time>
      </trkpt>
      <trkpt lat="44.88944" lon="5.67483">
        <ele>506.75</ele>
        <time>2010-05-29T13:18:12Z</time>
      </trkpt>
      <trkpt lat="44.88932" lon="5.67524">
        <ele>503.39</ele>
        <time>2010-05-29T13:18:20Z</time>
      </trkpt>
      <trkpt lat="44.88931" lon="5.6753">
        <ele>502.43</ele>
        <time>2010-05-29T13:18:21Z</time>
      </trkpt>
      <trkpt lat="44.8893" lon="5.6755">
        <ele>500.5</ele>
        <time>2010-05-29T13:18:25Z</time>
      </trkpt>
      <trkpt lat="44.88931" lon="5.67557">
        <ele>500.02</ele>
        <time>2010-05-29T13:18:27Z</time>
      </trkpt>
      <trkpt lat="44.8893" lon="5.67565">
        <ele>497.62</ele>
        <time>2010-05-29T13:18:31Z</time>
      </trkpt>
      <trkpt lat="44.8893" lon="5.67567">
        <ele>497.14</ele>
        <time>2010-05-29T13:18:40Z</time>
      </trkpt>
      <trkpt lat="44.8893" lon="5.67567">
        <ele>498.1</ele>
        <time>2010-05-29T13:18:47Z</time>
      </trkpt>
      <trkpt lat="44.88915" lon="5.67569">
        <ele>497.14</ele>
        <time>2010-05-29T13:18:58Z</time>
      </trkpt>
      <trkpt lat="44.88914" lon="5.6756">
        <ele>499.06</ele>
        <time>2010-05-29T13:19:06Z</time>
      </trkpt>
      <trkpt lat="44.88926" lon="5.67566">
        <ele>497.62</ele>
        <time>2010-05-29T13:19:15Z</time>
      </trkpt>
      <trkpt lat="44.88928" lon="5.67568">
        <ele>497.14</ele>
        <time>2010-05-29T13:19:21Z</time>
      </trkpt>
      <trkpt lat="44.88928" lon="5.67571">
        <ele>496.66</ele>
        <time>2010-05-29T13:19:34Z</time>
      </trkpt>
      <trkpt lat="44.88928" lon="5.67571">
        <ele>497.14</ele>
        <time>2010-05-29T13:20:40Z</time>
      </trkpt>
      <trkpt lat="44.88928" lon="5.6757">
        <ele>497.14</ele>
        <time>2010-05-29T13:21:07Z</time>
      </trkpt>
      <trkpt lat="44.88928" lon="5.6757">
        <ele>496.66</ele>
        <time>2010-05-29T13:22:20Z</time>
      </trkpt>
      <trkpt lat="44.88928" lon="5.6757">
        <ele>496.66</ele>
        <time>2010-05-29T13:23:50Z</time>
      </trkpt>
      <trkpt lat="44.88928" lon="5.6757">
        <ele>496.18</ele>
        <time>2010-05-29T13:24:12Z</time>
      </trkpt>
      <trkpt lat="44.88928" lon="5.67569">
        <ele>496.18</ele>
        <time>2010-05-29T13:24:39Z</time>
      </trkpt>
      <trkpt lat="44.88927" lon="5.67569">
        <ele>496.66</ele>
        <time>2010-05-29T13:24:58Z</time>
      </trkpt>
      <trkpt lat="44.88928" lon="5.67569">
        <ele>496.66</ele>
        <time>2010-05-29T13:26:04Z</time>
      </trkpt>
      <trkpt lat="44.88927" lon="5.67568">
        <ele>496.66</ele>
        <time>2010-05-29T13:27:38Z</time>
      </trkpt>
      <trkpt lat="44.88927" lon="5.67569">
        <ele>496.18</ele>
        <time>2010-05-29T13:29:00Z</time>
      </trkpt>
      <trkpt lat="44.88927" lon="5.67569">
        <ele>495.7</ele>
        <time>2010-05-29T13:30:51Z</time>
      </trkpt>
      <trkpt lat="44.88927" lon="5.67569">
        <ele>494.74</ele>
        <time>2010-05-29T13:31:12Z</time>
      </trkpt>
      <trkpt lat="44.88927" lon="5.67569">
        <ele>496.18</ele>
        <time>2010-05-29T13:31:15Z</time>
      </trkpt>
      <trkpt lat="44.88928" lon="5.67569">
        <ele>493.77</ele>
        <time>2010-05-29T13:31:42Z</time>
      </trkpt>
      <trkpt lat="44.88928" lon="5.67569">
        <ele>494.26</ele>
        <time>2010-05-29T13:32:01Z</time>
      </trkpt>
      <trkpt lat="44.88928" lon="5.67569">
        <ele>493.29</ele>
        <time>2010-05-29T13:32:03Z</time>
      </trkpt>
      <trkpt lat="44.88929" lon="5.67568">
        <ele>494.74</ele>
        <time>2010-05-29T13:32:23Z</time>
      </trkpt>
      <trkpt lat="44.88928" lon="5.67569">
        <ele>495.7</ele>
        <time>2010-05-29T13:32:28Z</time>
      </trkpt>
      <trkpt lat="44.88928" lon="5.67569">
        <ele>495.22</ele>
        <time>2010-05-29T13:32:47Z</time>
      </trkpt>
      <trkpt lat="44.88928" lon="5.67569">
        <ele>495.22</ele>
        <time>2010-05-29T13:33:10Z</time>
      </trkpt>
      <trkpt lat="44.88928" lon="5.67569">
        <ele>494.26</ele>
        <time>2010-05-29T13:33:32Z</time>
      </trkpt>
      <trkpt lat="44.88928" lon="5.67568">
        <ele>495.22</ele>
        <time>2010-05-29T13:34:16Z</time>
      </trkpt>
      <trkpt lat="44.88928" lon="5.67568">
        <ele>495.22</ele>
        <time>2010-05-29T13:34:37Z</time>
      </trkpt>
      <trkpt lat="44.88928" lon="5.67568">
        <ele>495.7</ele>
        <time>2010-05-29T13:35:14Z</time>
      </trkpt>
      <trkpt lat="44.88929" lon="5.67569">
        <ele>495.22</ele>
        <time>2010-05-29T13:35:26Z</time>
      </trkpt>
      <trkpt lat="44.88928" lon="5.67569">
        <ele>495.22</ele>
        <time>2010-05-29T13:35:39Z</time>
      </trkpt>
      <trkpt lat="44.88928" lon="5.67568">
        <ele>495.22</ele>
        <time>2010-05-29T13:36:04Z</time>
      </trkpt>
      <trkpt lat="44.88929" lon="5.67568">
        <ele>495.22</ele>
        <time>2010-05-29T13:36:29Z</time>
      </trkpt>
      <trkpt lat="44.88929" lon="5.67568">
        <ele>494.74</ele>
        <time>2010-05-29T13:36:53Z</time>
      </trkpt>
      <trkpt lat="44.88929" lon="5.67568">
        <ele>494.26</ele>
        <time>2010-05-29T13:37:05Z</time>
      </trkpt>
      <trkpt lat="44.8893" lon="5.67566">
        <ele>494.74</ele>
        <time>2010-05-29T13:37:19Z</time>
      </trkpt>
      <trkpt lat="44.88929" lon="5.67567">
        <ele>494.74</ele>
        <time>2010-05-29T13:37:33Z</time>
      </trkpt>
      <trkpt lat="44.88929" lon="5.67567">
        <ele>494.26</ele>
        <time>2010-05-29T13:37:50Z</time>
      </trkpt>
      <trkpt lat="44.88928" lon="5.67567">
        <ele>493.77</ele>
        <time>2010-05-29T13:38:33Z</time>
      </trkpt>
      <trkpt lat="44.88927" lon="5.67567">
        <ele>495.22</ele>
        <time>2010-05-29T13:38:42Z</time>
      </trkpt>
      <trkpt lat="44.88928" lon="5.6755">
        <ele>497.14</ele>
        <time>2010-05-29T13:38:56Z</time>
      </trkpt>
      <trkpt lat="44.88929" lon="5.67542">
        <ele>497.14</ele>
        <time>2010-05-29T13:39:11Z</time>
      </trkpt>
      <trkpt lat="44.88929" lon="5.67521">
        <ele>499.06</ele>
        <time>2010-05-29T13:39:27Z</time>
      </trkpt>
      <trkpt lat="44.88929" lon="5.67507">
        <ele>500.5</ele>
        <time>2010-05-29T13:39:40Z</time>
      </trkpt>
      <trkpt lat="44.8893" lon="5.67504">
        <ele>500.98</ele>
        <time>2010-05-29T13:39:56Z</time>
      </trkpt>
      <trkpt lat="44.88932" lon="5.67503">
        <ele>500.98</ele>
        <time>2010-05-29T13:40:05Z</time>
      </trkpt>
      <trkpt lat="44.88945" lon="5.67491">
        <ele>502.43</ele>
        <time>2010-05-29T13:40:20Z</time>
      </trkpt>
      <trkpt lat="44.88949" lon="5.67487">
        <ele>502.43</ele>
        <time>2010-05-29T13:40:24Z</time>
      </trkpt>
      <trkpt lat="44.88948" lon="5.67475">
        <ele>502.91</ele>
        <time>2010-05-29T13:40:33Z</time>
      </trkpt>
      <trkpt lat="44.88943" lon="5.67461">
        <ele>505.79</ele>
        <time>2010-05-29T13:40:47Z</time>
      </trkpt>
      <trkpt lat="44.88941" lon="5.67453">
        <ele>507.23</ele>
        <time>2010-05-29T13:40:59Z</time>
      </trkpt>
      <trkpt lat="44.88941" lon="5.67443">
        <ele>509.16</ele>
        <time>2010-05-29T13:41:11Z</time>
      </trkpt>
      <trkpt lat="44.8894" lon="5.67441">
        <ele>509.64</ele>
        <time>2010-05-29T13:41:24Z</time>
      </trkpt>
      <trkpt lat="44.8894" lon="5.67441">
        <ele>510.12</ele>
        <time>2010-05-29T13:41:47Z</time>
      </trkpt>
      <trkpt lat="44.8894" lon="5.6744">
        <ele>509.16</ele>
        <time>2010-05-29T13:41:49Z</time>
      </trkpt>
      <trkpt lat="44.8893" lon="5.67428">
        <ele>509.16</ele>
        <time>2010-05-29T13:41:59Z</time>
      </trkpt>
      <trkpt lat="44.88919" lon="5.67434">
        <ele>511.08</ele>
        <time>2010-05-29T13:42:07Z</time>
      </trkpt>
      <trkpt lat="44.88912" lon="5.6745">
        <ele>509.64</ele>
        <time>2010-05-29T13:42:15Z</time>
      </trkpt>
      <trkpt lat="44.88903" lon="5.67451">
        <ele>510.12</ele>
        <time>2010-05-29T13:42:19Z</time>
      </trkpt>
      <trkpt lat="44.88884" lon="5.67458">
        <ele>509.64</ele>
        <time>2010-05-29T13:42:28Z</time>
      </trkpt>
      <trkpt lat="44.8887" lon="5.67461">
        <ele>509.64</ele>
        <time>2010-05-29T13:42:33Z</time>
      </trkpt>
      <trkpt lat="44.88861" lon="5.67462">
        <ele>510.12</ele>
        <time>2010-05-29T13:42:36Z</time>
      </trkpt>
      <trkpt lat="44.88845" lon="5.67463">
        <ele>511.08</ele>
        <time>2010-05-29T13:42:47Z</time>
      </trkpt>
      <trkpt lat="44.88843" lon="5.67463">
        <ele>511.56</ele>
        <time>2010-05-29T13:42:59Z</time>
      </trkpt>
      <trkpt lat="44.88837" lon="5.67464">
        <ele>511.56</ele>
        <time>2010-05-29T13:43:02Z</time>
      </trkpt>
      <trkpt lat="44.88837" lon="5.67465">
        <ele>511.08</ele>
        <time>2010-05-29T13:43:04Z</time>
      </trkpt>
      <trkpt lat="44.88822" lon="5.67475">
        <ele>510.6</ele>
        <time>2010-05-29T13:43:10Z</time>
      </trkpt>
      <trkpt lat="44.88802" lon="5.67482">
        <ele>510.12</ele>
        <time>2010-05-29T13:43:18Z</time>
      </trkpt>
      <trkpt lat="44.8879" lon="5.67492">
        <ele>508.19</ele>
        <time>2010-05-29T13:43:23Z</time>
      </trkpt>
      <trkpt lat="44.88787" lon="5.67499">
        <ele>505.79</ele>
        <time>2010-05-29T13:43:25Z</time>
      </trkpt>
      <trkpt lat="44.88778" lon="5.67521">
        <ele>503.87</ele>
        <time>2010-05-29T13:43:31Z</time>
      </trkpt>
      <trkpt lat="44.88766" lon="5.67528">
        <ele>503.39</ele>
        <time>2010-05-29T13:43:37Z</time>
      </trkpt>
      <trkpt lat="44.88768" lon="5.67527">
        <ele>503.39</ele>
        <time>2010-05-29T13:43:39Z</time>
      </trkpt>
      <trkpt lat="44.88766" lon="5.67525">
        <ele>503.39</ele>
        <time>2010-05-29T13:43:42Z</time>
      </trkpt>
      <trkpt lat="44.88765" lon="5.67526">
        <ele>503.39</ele>
        <time>2010-05-29T13:43:43Z</time>
      </trkpt>
      <trkpt lat="44.88749" lon="5.67526">
        <ele>504.83</ele>
        <time>2010-05-29T13:43:48Z</time>
      </trkpt>
      <trkpt lat="44.88734" lon="5.67531">
        <ele>503.39</ele>
        <time>2010-05-29T13:43:52Z</time>
      </trkpt>
      <trkpt lat="44.88727" lon="5.67532">
        <ele>503.87</ele>
        <time>2010-05-29T13:44:04Z</time>
      </trkpt>
      <trkpt lat="44.88726" lon="5.67533">
        <ele>503.87</ele>
        <time>2010-05-29T13:44:05Z</time>
      </trkpt>
      <trkpt lat="44.88716" lon="5.67533">
        <ele>505.31</ele>
        <time>2010-05-29T13:44:15Z</time>
      </trkpt>
      <trkpt lat="44.88711" lon="5.67531">
        <ele>508.67</ele>
        <time>2010-05-29T13:44:32Z</time>
      </trkpt>
      <trkpt lat="44.8871" lon="5.6753">
        <ele>509.64</ele>
        <time>2010-05-29T13:44:34Z</time>
      </trkpt>
      <trkpt lat="44.88707" lon="5.67529">
        <ele>510.12</ele>
        <time>2010-05-29T13:44:50Z</time>
      </trkpt>
      <trkpt lat="44.88704" lon="5.67529">
        <ele>510.12</ele>
        <time>2010-05-29T13:44:53Z</time>
      </trkpt>
      <trkpt lat="44.88683" lon="5.67533">
        <ele>511.56</ele>
        <time>2010-05-29T13:45:05Z</time>
      </trkpt>
      <trkpt lat="44.88673" lon="5.67536">
        <ele>510.12</ele>
        <time>2010-05-29T13:45:11Z</time>
      </trkpt>
      <trkpt lat="44.88668" lon="5.67539">
        <ele>511.08</ele>
        <time>2010-05-29T13:45:21Z</time>
      </trkpt>
      <trkpt lat="44.88659" lon="5.67537">
        <ele>511.08</ele>
        <time>2010-05-29T13:45:31Z</time>
      </trkpt>
      <trkpt lat="44.88658" lon="5.67537">
        <ele>511.08</ele>
        <time>2010-05-29T13:45:32Z</time>
      </trkpt>
      <trkpt lat="44.88641" lon="5.67541">
        <ele>511.56</ele>
        <time>2010-05-29T13:45:42Z</time>
      </trkpt>
      <trkpt lat="44.88629" lon="5.67544">
        <ele>513</ele>
        <time>2010-05-29T13:45:52Z</time>
      </trkpt>
      <trkpt lat="44.88618" lon="5.67549">
        <ele>513.96</ele>
        <time>2010-05-29T13:46:00Z</time>
      </trkpt>
      <trkpt lat="44.8861" lon="5.67552">
        <ele>514.92</ele>
        <time>2010-05-29T13:46:11Z</time>
      </trkpt>
      <trkpt lat="44.88602" lon="5.67551">
        <ele>514.92</ele>
        <time>2010-05-29T13:46:15Z</time>
      </trkpt>
      <trkpt lat="44.88595" lon="5.67551">
        <ele>515.88</ele>
        <time>2010-05-29T13:46:19Z</time>
      </trkpt>
      <trkpt lat="44.88589" lon="5.67551">
        <ele>515.4</ele>
        <time>2010-05-29T13:46:35Z</time>
      </trkpt>
      <trkpt lat="44.88587" lon="5.67552">
        <ele>515.4</ele>
        <time>2010-05-29T13:46:43Z</time>
      </trkpt>
      <trkpt lat="44.88578" lon="5.67556">
        <ele>514.92</ele>
        <time>2010-05-29T13:46:50Z</time>
      </trkpt>
      <trkpt lat="44.88566" lon="5.67559">
        <ele>513.48</ele>
        <time>2010-05-29T13:47:02Z</time>
      </trkpt>
      <trkpt lat="44.88563" lon="5.6756">
        <ele>513</ele>
        <time>2010-05-29T13:47:11Z</time>
      </trkpt>
      <trkpt lat="44.88557" lon="5.67565">
        <ele>514.44</ele>
        <time>2010-05-29T13:47:24Z</time>
      </trkpt>
      <trkpt lat="44.88556" lon="5.67567">
        <ele>514.92</ele>
        <time>2010-05-29T13:47:28Z</time>
      </trkpt>
      <trkpt lat="44.88553" lon="5.67575">
        <ele>513.48</ele>
        <time>2010-05-29T13:47:32Z</time>
      </trkpt>
      <trkpt lat="44.88547" lon="5.6758">
        <ele>512.04</ele>
        <time>2010-05-29T13:47:36Z</time>
      </trkpt>
      <trkpt lat="44.88537" lon="5.67584">
        <ele>511.08</ele>
        <time>2010-05-29T13:47:41Z</time>
      </trkpt>
      <trkpt lat="44.88525" lon="5.67595">
        <ele>507.23</ele>
        <time>2010-05-29T13:47:47Z</time>
      </trkpt>
      <trkpt lat="44.88524" lon="5.67596">
        <ele>507.23</ele>
        <time>2010-05-29T13:47:48Z</time>
      </trkpt>
      <trkpt lat="44.88522" lon="5.67595">
        <ele>506.75</ele>
        <time>2010-05-29T13:47:49Z</time>
      </trkpt>
      <trkpt lat="44.88519" lon="5.67594">
        <ele>507.23</ele>
        <time>2010-05-29T13:47:51Z</time>
      </trkpt>
      <trkpt lat="44.88516" lon="5.67592">
        <ele>507.23</ele>
        <time>2010-05-29T13:47:54Z</time>
      </trkpt>
      <trkpt lat="44.88501" lon="5.67589">
        <ele>508.67</ele>
        <time>2010-05-29T13:48:04Z</time>
      </trkpt>
      <trkpt lat="44.88497" lon="5.67589">
        <ele>509.64</ele>
        <time>2010-05-29T13:48:19Z</time>
      </trkpt>
      <trkpt lat="44.88492" lon="5.6759">
        <ele>510.6</ele>
        <time>2010-05-29T13:48:31Z</time>
      </trkpt>
      <trkpt lat="44.88484" lon="5.67594">
        <ele>512.52</ele>
        <time>2010-05-29T13:48:39Z</time>
      </trkpt>
      <trkpt lat="44.88477" lon="5.67598">
        <ele>514.44</ele>
        <time>2010-05-29T13:48:50Z</time>
      </trkpt>
      <trkpt lat="44.88463" lon="5.67601">
        <ele>516.37</ele>
        <time>2010-05-29T13:49:02Z</time>
      </trkpt>
      <trkpt lat="44.88455" lon="5.67599">
        <ele>518.29</ele>
        <time>2010-05-29T13:49:14Z</time>
      </trkpt>
      <trkpt lat="44.88444" lon="5.67599">
        <ele>520.69</ele>
        <time>2010-05-29T13:49:26Z</time>
      </trkpt>
      <trkpt lat="44.88435" lon="5.676">
        <ele>523.58</ele>
        <time>2010-05-29T13:49:39Z</time>
      </trkpt>
      <trkpt lat="44.88427" lon="5.676">
        <ele>525.02</ele>
        <time>2010-05-29T13:49:44Z</time>
      </trkpt>
      <trkpt lat="44.88423" lon="5.67603">
        <ele>524.54</ele>
        <time>2010-05-29T13:49:47Z</time>
      </trkpt>
      <trkpt lat="44.88411" lon="5.6761">
        <ele>525.02</ele>
        <time>2010-05-29T13:49:55Z</time>
      </trkpt>
      <trkpt lat="44.88397" lon="5.67615">
        <ele>525.02</ele>
        <time>2010-05-29T13:50:01Z</time>
      </trkpt>
      <trkpt lat="44.88384" lon="5.67623">
        <ele>526.46</ele>
        <time>2010-05-29T13:50:12Z</time>
      </trkpt>
      <trkpt lat="44.88374" lon="5.67628">
        <ele>528.86</ele>
        <time>2010-05-29T13:50:28Z</time>
      </trkpt>
      <trkpt lat="44.88351" lon="5.67648">
        <ele>529.34</ele>
        <time>2010-05-29T13:50:38Z</time>
      </trkpt>
      <trkpt lat="44.8834" lon="5.6765">
        <ele>530.79</ele>
        <time>2010-05-29T13:50:43Z</time>
      </trkpt>
      <trkpt lat="44.88333" lon="5.67648">
        <ele>532.23</ele>
        <time>2010-05-29T13:50:45Z</time>
      </trkpt>
      <trkpt lat="44.88321" lon="5.67646">
        <ele>533.67</ele>
        <time>2010-05-29T13:50:50Z</time>
      </trkpt>
      <trkpt lat="44.88308" lon="5.67655">
        <ele>533.19</ele>
        <time>2010-05-29T13:50:57Z</time>
      </trkpt>
      <trkpt lat="44.88301" lon="5.67657">
        <ele>534.15</ele>
        <time>2010-05-29T13:51:06Z</time>
      </trkpt>
      <trkpt lat="44.88288" lon="5.67667">
        <ele>536.07</ele>
        <time>2010-05-29T13:51:17Z</time>
      </trkpt>
      <trkpt lat="44.88275" lon="5.67671">
        <ele>537.99</ele>
        <time>2010-05-29T13:51:23Z</time>
      </trkpt>
      <trkpt lat="44.88244" lon="5.67674">
        <ele>539.44</ele>
        <time>2010-05-29T13:51:31Z</time>
      </trkpt>
      <trkpt lat="44.8824" lon="5.67674">
        <ele>539.92</ele>
        <time>2010-05-29T13:51:32Z</time>
      </trkpt>
      <trkpt lat="44.88216" lon="5.67672">
        <ele>542.8</ele>
        <time>2010-05-29T13:51:40Z</time>
      </trkpt>
      <trkpt lat="44.88204" lon="5.67674">
        <ele>543.28</ele>
        <time>2010-05-29T13:51:45Z</time>
      </trkpt>
      <trkpt lat="44.88193" lon="5.67682">
        <ele>544.24</ele>
        <time>2010-05-29T13:51:54Z</time>
      </trkpt>
      <trkpt lat="44.88191" lon="5.67681">
        <ele>544.24</ele>
        <time>2010-05-29T13:52:22Z</time>
      </trkpt>
      <trkpt lat="44.88184" lon="5.67678">
        <ele>545.2</ele>
        <time>2010-05-29T13:52:27Z</time>
      </trkpt>
      <trkpt lat="44.88167" lon="5.67676">
        <ele>546.65</ele>
        <time>2010-05-29T13:52:34Z</time>
      </trkpt>
      <trkpt lat="44.88163" lon="5.67675">
        <ele>547.61</ele>
        <time>2010-05-29T13:52:36Z</time>
      </trkpt>
      <trkpt lat="44.88158" lon="5.67676">
        <ele>548.09</ele>
        <time>2010-05-29T13:52:38Z</time>
      </trkpt>
      <trkpt lat="44.8815" lon="5.67681">
        <ele>548.09</ele>
        <time>2010-05-29T13:52:42Z</time>
      </trkpt>
      <trkpt lat="44.88138" lon="5.67684">
        <ele>548.09</ele>
        <time>2010-05-29T13:52:46Z</time>
      </trkpt>
      <trkpt lat="44.88113" lon="5.67683">
        <ele>550.97</ele>
        <time>2010-05-29T13:52:56Z</time>
      </trkpt>
      <trkpt lat="44.88102" lon="5.67685">
        <ele>550.49</ele>
        <time>2010-05-29T13:53:00Z</time>
      </trkpt>
      <trkpt lat="44.88076" lon="5.67671">
        <ele>554.82</ele>
        <time>2010-05-29T13:53:11Z</time>
      </trkpt>
      <trkpt lat="44.88071" lon="5.67664">
        <ele>556.26</ele>
        <time>2010-05-29T13:53:14Z</time>
      </trkpt>
      <trkpt lat="44.88066" lon="5.67657">
        <ele>558.66</ele>
        <time>2010-05-29T13:53:19Z</time>
      </trkpt>
      <trkpt lat="44.8805" lon="5.67659">
        <ele>561.07</ele>
        <time>2010-05-29T13:53:31Z</time>
      </trkpt>
      <trkpt lat="44.88046" lon="5.6766">
        <ele>561.07</ele>
        <time>2010-05-29T13:53:45Z</time>
      </trkpt>
      <trkpt lat="44.88046" lon="5.6766">
        <ele>560.59</ele>
        <time>2010-05-29T13:53:47Z</time>
      </trkpt>
      <trkpt lat="44.8803" lon="5.67661">
        <ele>562.99</ele>
        <time>2010-05-29T13:53:58Z</time>
      </trkpt>
      <trkpt lat="44.88025" lon="5.67657">
        <ele>564.91</ele>
        <time>2010-05-29T13:54:08Z</time>
      </trkpt>
      <trkpt lat="44.88021" lon="5.67647">
        <ele>567.8</ele>
        <time>2010-05-29T13:54:18Z</time>
      </trkpt>
      <trkpt lat="44.88014" lon="5.67643">
        <ele>571.16</ele>
        <time>2010-05-29T13:54:28Z</time>
      </trkpt>
      <trkpt lat="44.88013" lon="5.67643">
        <ele>571.16</ele>
        <time>2010-05-29T13:54:32Z</time>
      </trkpt>
      <trkpt lat="44.88005" lon="5.67644">
        <ele>570.68</ele>
        <time>2010-05-29T13:54:45Z</time>
      </trkpt>
      <trkpt lat="44.88003" lon="5.67644">
        <ele>570.68</ele>
        <time>2010-05-29T13:54:58Z</time>
      </trkpt>
      <trkpt lat="44.88003" lon="5.67644">
        <ele>572.12</ele>
        <time>2010-05-29T13:55:23Z</time>
      </trkpt>
      <trkpt lat="44.88003" lon="5.67644">
        <ele>568.76</ele>
        <time>2010-05-29T13:55:25Z</time>
      </trkpt>
      <trkpt lat="44.88" lon="5.67644">
        <ele>572.12</ele>
        <time>2010-05-29T13:55:34Z</time>
      </trkpt>
      <trkpt lat="44.87998" lon="5.67644">
        <ele>567.8</ele>
        <time>2010-05-29T13:55:56Z</time>
      </trkpt>
      <trkpt lat="44.87998" lon="5.67644">
        <ele>568.28</ele>
        <time>2010-05-29T13:55:57Z</time>
      </trkpt>
      <trkpt lat="44.87997" lon="5.67643">
        <ele>570.68</ele>
        <time>2010-05-29T13:55:59Z</time>
      </trkpt>
      <trkpt lat="44.87998" lon="5.67647">
        <ele>570.68</ele>
        <time>2010-05-29T13:56:21Z</time>
      </trkpt>
      <trkpt lat="44.87998" lon="5.67646">
        <ele>571.16</ele>
        <time>2010-05-29T13:56:39Z</time>
      </trkpt>
      <trkpt lat="44.87998" lon="5.67646">
        <ele>570.68</ele>
        <time>2010-05-29T13:56:52Z</time>
      </trkpt>
      <trkpt lat="44.87991" lon="5.67658">
        <ele>568.28</ele>
        <time>2010-05-29T13:56:58Z</time>
      </trkpt>
      <trkpt lat="44.87985" lon="5.67666">
        <ele>568.76</ele>
        <time>2010-05-29T13:57:00Z</time>
      </trkpt>
      <trkpt lat="44.87981" lon="5.67668">
        <ele>568.76</ele>
        <time>2010-05-29T13:57:01Z</time>
      </trkpt>
      <trkpt lat="44.87968" lon="5.67674">
        <ele>568.28</ele>
        <time>2010-05-29T13:57:04Z</time>
      </trkpt>
      <trkpt lat="44.87963" lon="5.67677">
        <ele>567.8</ele>
        <time>2010-05-29T13:57:05Z</time>
      </trkpt>
      <trkpt lat="44.87955" lon="5.6768">
        <ele>567.8</ele>
        <time>2010-05-29T13:57:06Z</time>
      </trkpt>
      <trkpt lat="44.87895" lon="5.67699">
        <ele>568.28</ele>
        <time>2010-05-29T13:57:17Z</time>
      </trkpt>
      <trkpt lat="44.87887" lon="5.67701">
        <ele>569.24</ele>
        <time>2010-05-29T13:57:19Z</time>
      </trkpt>
      <trkpt lat="44.87862" lon="5.67707">
        <ele>569.24</ele>
        <time>2010-05-29T13:57:25Z</time>
      </trkpt>
      <trkpt lat="44.87792" lon="5.67714">
        <ele>567.8</ele>
        <time>2010-05-29T13:57:37Z</time>
      </trkpt>
      <trkpt lat="44.87773" lon="5.67715">
        <ele>567.8</ele>
        <time>2010-05-29T13:57:41Z</time>
      </trkpt>
      <trkpt lat="44.87737" lon="5.67721">
        <ele>568.76</ele>
        <time>2010-05-29T13:57:48Z</time>
      </trkpt>
      <trkpt lat="44.87724" lon="5.67721">
        <ele>568.76</ele>
        <time>2010-05-29T13:57:50Z</time>
      </trkpt>
      <trkpt lat="44.87707" lon="5.67723">
        <ele>568.76</ele>
        <time>2010-05-29T13:57:53Z</time>
      </trkpt>
      <trkpt lat="44.8769" lon="5.67724">
        <ele>567.8</ele>
        <time>2010-05-29T13:57:56Z</time>
      </trkpt>
      <trkpt lat="44.87679" lon="5.67724">
        <ele>568.76</ele>
        <time>2010-05-29T13:57:58Z</time>
      </trkpt>
      <trkpt lat="44.87617" lon="5.67718">
        <ele>570.2</ele>
        <time>2010-05-29T13:58:10Z</time>
      </trkpt>
      <trkpt lat="44.87583" lon="5.67711">
        <ele>571.16</ele>
        <time>2010-05-29T13:58:19Z</time>
      </trkpt>
      <trkpt lat="44.87539" lon="5.67698">
        <ele>571.64</ele>
        <time>2010-05-29T13:58:30Z</time>
      </trkpt>
      <trkpt lat="44.87504" lon="5.67695">
        <ele>571.16</ele>
        <time>2010-05-29T13:58:39Z</time>
      </trkpt>
      <trkpt lat="44.87463" lon="5.67701">
        <ele>570.2</ele>
        <time>2010-05-29T13:58:49Z</time>
      </trkpt>
      <trkpt lat="44.87422" lon="5.67688">
        <ele>568.76</ele>
        <time>2010-05-29T13:58:59Z</time>
      </trkpt>
      <trkpt lat="44.87404" lon="5.67681">
        <ele>568.28</ele>
        <time>2010-05-29T13:59:02Z</time>
      </trkpt>
      <trkpt lat="44.87353" lon="5.67662">
        <ele>566.83</ele>
        <time>2010-05-29T13:59:12Z</time>
      </trkpt>
      <trkpt lat="44.87334" lon="5.67652">
        <ele>565.39</ele>
        <time>2010-05-29T13:59:21Z</time>
      </trkpt>
      <trkpt lat="44.87319" lon="5.67644">
        <ele>565.39</ele>
        <time>2010-05-29T13:59:38Z</time>
      </trkpt>
      <trkpt lat="44.87288" lon="5.67612">
        <ele>563.47</ele>
        <time>2010-05-29T13:59:50Z</time>
      </trkpt>
      <trkpt lat="44.87286" lon="5.67609">
        <ele>563.47</ele>
        <time>2010-05-29T14:00:01Z</time>
      </trkpt>
      <trkpt lat="44.87286" lon="5.67606">
        <ele>563.95</ele>
        <time>2010-05-29T14:00:21Z</time>
      </trkpt>
      <trkpt lat="44.87284" lon="5.67607">
        <ele>563.95</ele>
        <time>2010-05-29T14:00:39Z</time>
      </trkpt>
      <trkpt lat="44.87282" lon="5.67608">
        <ele>562.99</ele>
        <time>2010-05-29T14:01:41Z</time>
      </trkpt>
      <trkpt lat="44.87282" lon="5.67607">
        <ele>562.99</ele>
        <time>2010-05-29T14:02:54Z</time>
      </trkpt>
      <trkpt lat="44.87281" lon="5.67607">
        <ele>561.55</ele>
        <time>2010-05-29T14:05:22Z</time>
      </trkpt>
      <trkpt lat="44.8728" lon="5.67607">
        <ele>561.07</ele>
        <time>2010-05-29T14:06:15Z</time>
      </trkpt>
      <trkpt lat="44.87281" lon="5.67608">
        <ele>561.07</ele>
        <time>2010-05-29T14:07:14Z</time>
      </trkpt>
      <trkpt lat="44.87283" lon="5.67612">
        <ele>561.55</ele>
        <time>2010-05-29T14:07:25Z</time>
      </trkpt>
      <trkpt lat="44.87283" lon="5.67612">
        <ele>561.55</ele>
        <time>2010-05-29T14:07:42Z</time>
      </trkpt>
      <trkpt lat="44.87283" lon="5.67612">
        <ele>561.55</ele>
        <time>2010-05-29T14:07:57Z</time>
      </trkpt>
      <trkpt lat="44.87304" lon="5.67644">
        <ele>562.03</ele>
        <time>2010-05-29T14:08:11Z</time>
      </trkpt>
      <trkpt lat="44.87319" lon="5.67652">
        <ele>562.51</ele>
        <time>2010-05-29T14:08:18Z</time>
      </trkpt>
      <trkpt lat="44.87319" lon="5.67656">
        <ele>562.03</ele>
        <time>2010-05-29T14:08:32Z</time>
      </trkpt>
      <trkpt lat="44.87319" lon="5.67656">
        <ele>562.03</ele>
        <time>2010-05-29T14:08:40Z</time>
      </trkpt>
      <trkpt lat="44.87303" lon="5.67662">
        <ele>558.66</ele>
        <time>2010-05-29T14:08:46Z</time>
      </trkpt>
      <trkpt lat="44.87288" lon="5.67667">
        <ele>554.82</ele>
        <time>2010-05-29T14:08:50Z</time>
      </trkpt>
      <trkpt lat="44.87283" lon="5.67675">
        <ele>553.86</ele>
        <time>2010-05-29T14:08:52Z</time>
      </trkpt>
      <trkpt lat="44.87286" lon="5.67701">
        <ele>550.01</ele>
        <time>2010-05-29T14:08:56Z</time>
      </trkpt>
      <trkpt lat="44.87294" lon="5.67721">
        <ele>546.17</ele>
        <time>2010-05-29T14:09:00Z</time>
      </trkpt>
      <trkpt lat="44.87293" lon="5.67724">
        <ele>545.69</ele>
        <time>2010-05-29T14:09:01Z</time>
      </trkpt>
      <trkpt lat="44.87291" lon="5.67729">
        <ele>544.72</ele>
        <time>2010-05-29T14:09:10Z</time>
      </trkpt>
      <trkpt lat="44.8729" lon="5.6773">
        <ele>545.2</ele>
        <time>2010-05-29T14:09:33Z</time>
      </trkpt>
      <trkpt lat="44.87271" lon="5.67722">
        <ele>542.8</ele>
        <time>2010-05-29T14:09:43Z</time>
      </trkpt>
      <trkpt lat="44.87265" lon="5.67719">
        <ele>541.84</ele>
        <time>2010-05-29T14:09:45Z</time>
      </trkpt>
      <trkpt lat="44.87247" lon="5.67707">
        <ele>538.96</ele>
        <time>2010-05-29T14:09:51Z</time>
      </trkpt>
      <trkpt lat="44.87217" lon="5.67693">
        <ele>537.03</ele>
        <time>2010-05-29T14:10:02Z</time>
      </trkpt>
      <trkpt lat="44.87161" lon="5.6767">
        <ele>535.59</ele>
        <time>2010-05-29T14:10:16Z</time>
      </trkpt>
      <trkpt lat="44.87134" lon="5.6766">
        <ele>537.03</ele>
        <time>2010-05-29T14:10:23Z</time>
      </trkpt>
      <trkpt lat="44.8712" lon="5.67654">
        <ele>539.44</ele>
        <time>2010-05-29T14:10:27Z</time>
      </trkpt>
      <trkpt lat="44.87116" lon="5.67652">
        <ele>540.4</ele>
        <time>2010-05-29T14:10:29Z</time>
      </trkpt>
      <trkpt lat="44.87111" lon="5.67654">
        <ele>541.36</ele>
        <time>2010-05-29T14:10:39Z</time>
      </trkpt>
      <trkpt lat="44.87109" lon="5.67657">
        <ele>541.84</ele>
        <time>2010-05-29T14:10:46Z</time>
      </trkpt>
      <trkpt lat="44.87106" lon="5.67658">
        <ele>542.32</ele>
        <time>2010-05-29T14:10:50Z</time>
      </trkpt>
      <trkpt lat="44.87101" lon="5.67659">
        <ele>542.8</ele>
        <time>2010-05-29T14:11:01Z</time>
      </trkpt>
      <trkpt lat="44.87088" lon="5.6766">
        <ele>544.72</ele>
        <time>2010-05-29T14:11:13Z</time>
      </trkpt>
      <trkpt lat="44.87084" lon="5.67661">
        <ele>544.72</ele>
        <time>2010-05-29T14:11:16Z</time>
      </trkpt>
      <trkpt lat="44.87082" lon="5.6766">
        <ele>545.69</ele>
        <time>2010-05-29T14:11:19Z</time>
      </trkpt>
      <trkpt lat="44.87083" lon="5.67659">
        <ele>546.17</ele>
        <time>2010-05-29T14:11:21Z</time>
      </trkpt>
      <trkpt lat="44.87093" lon="5.67649">
        <ele>549.05</ele>
        <time>2010-05-29T14:11:34Z</time>
      </trkpt>
      <trkpt lat="44.87093" lon="5.67649">
        <ele>549.53</ele>
        <time>2010-05-29T14:11:40Z</time>
      </trkpt>
      <trkpt lat="44.87087" lon="5.67649">
        <ele>551.45</ele>
        <time>2010-05-29T14:11:49Z</time>
      </trkpt>
      <trkpt lat="44.87089" lon="5.67646">
        <ele>552.41</ele>
        <time>2010-05-29T14:12:05Z</time>
      </trkpt>
      <trkpt lat="44.87084" lon="5.67644">
        <ele>554.82</ele>
        <time>2010-05-29T14:12:15Z</time>
      </trkpt>
      <trkpt lat="44.87079" lon="5.67643">
        <ele>555.78</ele>
        <time>2010-05-29T14:12:25Z</time>
      </trkpt>
      <trkpt lat="44.87078" lon="5.67634">
        <ele>558.18</ele>
        <time>2010-05-29T14:12:41Z</time>
      </trkpt>
      <trkpt lat="44.87077" lon="5.67633">
        <ele>557.7</ele>
        <time>2010-05-29T14:13:01Z</time>
      </trkpt>
      <trkpt lat="44.87077" lon="5.67633">
        <ele>557.7</ele>
        <time>2010-05-29T14:13:05Z</time>
      </trkpt>
      <trkpt lat="44.87078" lon="5.67622">
        <ele>559.14</ele>
        <time>2010-05-29T14:13:09Z</time>
      </trkpt>
      <trkpt lat="44.87073" lon="5.67612">
        <ele>560.59</ele>
        <time>2010-05-29T14:13:13Z</time>
      </trkpt>
      <trkpt lat="44.87067" lon="5.67608">
        <ele>562.03</ele>
        <time>2010-05-29T14:13:16Z</time>
      </trkpt>
      <trkpt lat="44.87061" lon="5.67601">
        <ele>563.47</ele>
        <time>2010-05-29T14:13:20Z</time>
      </trkpt>
      <trkpt lat="44.87049" lon="5.676">
        <ele>565.87</ele>
        <time>2010-05-29T14:13:30Z</time>
      </trkpt>
      <trkpt lat="44.87047" lon="5.67601">
        <ele>565.87</ele>
        <time>2010-05-29T14:13:31Z</time>
      </trkpt>
      <trkpt lat="44.87042" lon="5.67587">
        <ele>567.32</ele>
        <time>2010-05-29T14:13:37Z</time>
      </trkpt>
      <trkpt lat="44.87029" lon="5.67566">
        <ele>568.28</ele>
        <time>2010-05-29T14:13:45Z</time>
      </trkpt>
      <trkpt lat="44.87029" lon="5.67556">
        <ele>569.24</ele>
        <time>2010-05-29T14:13:49Z</time>
      </trkpt>
      <trkpt lat="44.87031" lon="5.67551">
        <ele>569.72</ele>
        <time>2010-05-29T14:13:51Z</time>
      </trkpt>
      <trkpt lat="44.87031" lon="5.67545">
        <ele>570.68</ele>
        <time>2010-05-29T14:13:53Z</time>
      </trkpt>
      <trkpt lat="44.87034" lon="5.67537">
        <ele>572.12</ele>
        <time>2010-05-29T14:13:57Z</time>
      </trkpt>
      <trkpt lat="44.87025" lon="5.67511">
        <ele>573.08</ele>
        <time>2010-05-29T14:14:06Z</time>
      </trkpt>
      <trkpt lat="44.87022" lon="5.67507">
        <ele>574.53</ele>
        <time>2010-05-29T14:14:08Z</time>
      </trkpt>
      <trkpt lat="44.87018" lon="5.67487">
        <ele>576.45</ele>
        <time>2010-05-29T14:14:17Z</time>
      </trkpt>
      <trkpt lat="44.87016" lon="5.67481">
        <ele>577.41</ele>
        <time>2010-05-29T14:14:20Z</time>
      </trkpt>
      <trkpt lat="44.87015" lon="5.67471">
        <ele>578.85</ele>
        <time>2010-05-29T14:14:24Z</time>
      </trkpt>
      <trkpt lat="44.87017" lon="5.67463">
        <ele>579.33</ele>
        <time>2010-05-29T14:14:27Z</time>
      </trkpt>
      <trkpt lat="44.87022" lon="5.67447">
        <ele>580.29</ele>
        <time>2010-05-29T14:14:33Z</time>
      </trkpt>
      <trkpt lat="44.87024" lon="5.67435">
        <ele>582.22</ele>
        <time>2010-05-29T14:14:38Z</time>
      </trkpt>
      <trkpt lat="44.87026" lon="5.67433">
        <ele>582.7</ele>
        <time>2010-05-29T14:14:39Z</time>
      </trkpt>
      <trkpt lat="44.87018" lon="5.67417">
        <ele>586.06</ele>
        <time>2010-05-29T14:14:50Z</time>
      </trkpt>
      <trkpt lat="44.87016" lon="5.67416">
        <ele>586.06</ele>
        <time>2010-05-29T14:14:51Z</time>
      </trkpt>
      <trkpt lat="44.87009" lon="5.67402">
        <ele>587.98</ele>
        <time>2010-05-29T14:15:02Z</time>
      </trkpt>
      <trkpt lat="44.8701" lon="5.674">
        <ele>587.98</ele>
        <time>2010-05-29T14:15:17Z</time>
      </trkpt>
      <trkpt lat="44.87011" lon="5.674">
        <ele>587.5</ele>
        <time>2010-05-29T14:15:52Z</time>
      </trkpt>
      <trkpt lat="44.86999" lon="5.67429">
        <ele>588.46</ele>
        <time>2010-05-29T14:16:01Z</time>
      </trkpt>
      <trkpt lat="44.86983" lon="5.67471">
        <ele>589.43</ele>
        <time>2010-05-29T14:16:12Z</time>
      </trkpt>
      <trkpt lat="44.86977" lon="5.67485">
        <ele>592.31</ele>
        <time>2010-05-29T14:16:16Z</time>
      </trkpt>
      <trkpt lat="44.8697" lon="5.67495">
        <ele>593.75</ele>
        <time>2010-05-29T14:16:20Z</time>
      </trkpt>
      <trkpt lat="44.86957" lon="5.67513">
        <ele>596.64</ele>
        <time>2010-05-29T14:16:27Z</time>
      </trkpt>
      <trkpt lat="44.8695" lon="5.67541">
        <ele>599.04</ele>
        <time>2010-05-29T14:16:37Z</time>
      </trkpt>
      <trkpt lat="44.86958" lon="5.6757">
        <ele>597.6</ele>
        <time>2010-05-29T14:16:47Z</time>
      </trkpt>
      <trkpt lat="44.86952" lon="5.67612">
        <ele>600.48</ele>
        <time>2010-05-29T14:16:57Z</time>
      </trkpt>
      <trkpt lat="44.86935" lon="5.67641">
        <ele>600</ele>
        <time>2010-05-29T14:17:08Z</time>
      </trkpt>
      <trkpt lat="44.86924" lon="5.67664">
        <ele>599.04</ele>
        <time>2010-05-29T14:17:15Z</time>
      </trkpt>
      <trkpt lat="44.86914" lon="5.67684">
        <ele>600.48</ele>
        <time>2010-05-29T14:17:23Z</time>
      </trkpt>
      <trkpt lat="44.86905" lon="5.67703">
        <ele>600.96</ele>
        <time>2010-05-29T14:17:31Z</time>
      </trkpt>
      <trkpt lat="44.86905" lon="5.67713">
        <ele>601.44</ele>
        <time>2010-05-29T14:17:35Z</time>
      </trkpt>
      <trkpt lat="44.86895" lon="5.67735">
        <ele>603.85</ele>
        <time>2010-05-29T14:17:43Z</time>
      </trkpt>
      <trkpt lat="44.86894" lon="5.67737">
        <ele>603.85</ele>
        <time>2010-05-29T14:17:44Z</time>
      </trkpt>
      <trkpt lat="44.86882" lon="5.67762">
        <ele>607.21</ele>
        <time>2010-05-29T14:17:54Z</time>
      </trkpt>
      <trkpt lat="44.86864" lon="5.67792">
        <ele>610.09</ele>
        <time>2010-05-29T14:18:07Z</time>
      </trkpt>
      <trkpt lat="44.86853" lon="5.67819">
        <ele>612.98</ele>
        <time>2010-05-29T14:18:19Z</time>
      </trkpt>
      <trkpt lat="44.8685" lon="5.67829">
        <ele>614.42</ele>
        <time>2010-05-29T14:18:24Z</time>
      </trkpt>
      <trkpt lat="44.86841" lon="5.67846">
        <ele>614.9</ele>
        <time>2010-05-29T14:18:38Z</time>
      </trkpt>
      <trkpt lat="44.86831" lon="5.67866">
        <ele>615.86</ele>
        <time>2010-05-29T14:18:49Z</time>
      </trkpt>
      <trkpt lat="44.86829" lon="5.67869">
        <ele>616.34</ele>
        <time>2010-05-29T14:18:51Z</time>
      </trkpt>
      <trkpt lat="44.86817" lon="5.67886">
        <ele>617.78</ele>
        <time>2010-05-29T14:19:01Z</time>
      </trkpt>
      <trkpt lat="44.86802" lon="5.67921">
        <ele>620.19</ele>
        <time>2010-05-29T14:19:14Z</time>
      </trkpt>
      <trkpt lat="44.86787" lon="5.67946">
        <ele>620.67</ele>
        <time>2010-05-29T14:19:23Z</time>
      </trkpt>
      <trkpt lat="44.86765" lon="5.67982">
        <ele>621.63</ele>
        <time>2010-05-29T14:19:35Z</time>
      </trkpt>
      <trkpt lat="44.86746" lon="5.68015">
        <ele>622.11</ele>
        <time>2010-05-29T14:19:46Z</time>
      </trkpt>
      <trkpt lat="44.86729" lon="5.68045">
        <ele>623.55</ele>
        <time>2010-05-29T14:19:55Z</time>
      </trkpt>
      <trkpt lat="44.86723" lon="5.68054">
        <ele>624.51</ele>
        <time>2010-05-29T14:19:59Z</time>
      </trkpt>
      <trkpt lat="44.86722" lon="5.68065">
        <ele>625.96</ele>
        <time>2010-05-29T14:20:03Z</time>
      </trkpt>
      <trkpt lat="44.86723" lon="5.6807">
        <ele>626.92</ele>
        <time>2010-05-29T14:20:05Z</time>
      </trkpt>
      <trkpt lat="44.86723" lon="5.68073">
        <ele>627.4</ele>
        <time>2010-05-29T14:20:07Z</time>
      </trkpt>
      <trkpt lat="44.86721" lon="5.68094">
        <ele>630.76</ele>
        <time>2010-05-29T14:20:17Z</time>
      </trkpt>
      <trkpt lat="44.86722" lon="5.68099">
        <ele>631.72</ele>
        <time>2010-05-29T14:20:20Z</time>
      </trkpt>
      <trkpt lat="44.86719" lon="5.6812">
        <ele>634.61</ele>
        <time>2010-05-29T14:20:32Z</time>
      </trkpt>
      <trkpt lat="44.86709" lon="5.68127">
        <ele>638.45</ele>
        <time>2010-05-29T14:20:41Z</time>
      </trkpt>
      <trkpt lat="44.86709" lon="5.68127">
        <ele>638.45</ele>
        <time>2010-05-29T14:20:42Z</time>
      </trkpt>
      <trkpt lat="44.86701" lon="5.68141">
        <ele>640.38</ele>
        <time>2010-05-29T14:20:52Z</time>
      </trkpt>
      <trkpt lat="44.86697" lon="5.68144">
        <ele>639.89</ele>
        <time>2010-05-29T14:21:08Z</time>
      </trkpt>
      <trkpt lat="44.86697" lon="5.68144">
        <ele>639.89</ele>
        <time>2010-05-29T14:21:13Z</time>
      </trkpt>
      <trkpt lat="44.86694" lon="5.68146">
        <ele>640.38</ele>
        <time>2010-05-29T14:21:25Z</time>
      </trkpt>
      <trkpt lat="44.86694" lon="5.68146">
        <ele>639.89</ele>
        <time>2010-05-29T14:21:51Z</time>
      </trkpt>
      <trkpt lat="44.86691" lon="5.68145">
        <ele>640.86</ele>
        <time>2010-05-29T14:22:03Z</time>
      </trkpt>
      <trkpt lat="44.8669" lon="5.6815">
        <ele>641.34</ele>
        <time>2010-05-29T14:22:13Z</time>
      </trkpt>
      <trkpt lat="44.8669" lon="5.68154">
        <ele>640.86</ele>
        <time>2010-05-29T14:22:15Z</time>
      </trkpt>
      <trkpt lat="44.86689" lon="5.68158">
        <ele>641.34</ele>
        <time>2010-05-29T14:22:37Z</time>
      </trkpt>
      <trkpt lat="44.86689" lon="5.68158">
        <ele>640.86</ele>
        <time>2010-05-29T14:22:40Z</time>
      </trkpt>
      <trkpt lat="44.86689" lon="5.68173">
        <ele>642.78</ele>
        <time>2010-05-29T14:22:47Z</time>
      </trkpt>
      <trkpt lat="44.86688" lon="5.68183">
        <ele>643.26</ele>
        <time>2010-05-29T14:22:51Z</time>
      </trkpt>
      <trkpt lat="44.86676" lon="5.68218">
        <ele>646.62</ele>
        <time>2010-05-29T14:23:04Z</time>
      </trkpt>
      <trkpt lat="44.86675" lon="5.68231">
        <ele>648.55</ele>
        <time>2010-05-29T14:23:11Z</time>
      </trkpt>
      <trkpt lat="44.86667" lon="5.68231">
        <ele>648.55</ele>
        <time>2010-05-29T14:23:17Z</time>
      </trkpt>
      <trkpt lat="44.86663" lon="5.68235">
        <ele>647.1</ele>
        <time>2010-05-29T14:23:19Z</time>
      </trkpt>
      <trkpt lat="44.86655" lon="5.68246">
        <ele>646.62</ele>
        <time>2010-05-29T14:23:21Z</time>
      </trkpt>
      <trkpt lat="44.86642" lon="5.68276">
        <ele>646.14</ele>
        <time>2010-05-29T14:23:28Z</time>
      </trkpt>
      <trkpt lat="44.86637" lon="5.68281">
        <ele>645.18</ele>
        <time>2010-05-29T14:23:30Z</time>
      </trkpt>
      <trkpt lat="44.86624" lon="5.68295">
        <ele>645.66</ele>
        <time>2010-05-29T14:23:34Z</time>
      </trkpt>
      <trkpt lat="44.86586" lon="5.68307">
        <ele>645.66</ele>
        <time>2010-05-29T14:23:42Z</time>
      </trkpt>
      <trkpt lat="44.86575" lon="5.68337">
        <ele>647.59</ele>
        <time>2010-05-29T14:23:48Z</time>
      </trkpt>
      <trkpt lat="44.86572" lon="5.68349">
        <ele>649.03</ele>
        <time>2010-05-29T14:23:51Z</time>
      </trkpt>
      <trkpt lat="44.86564" lon="5.68359">
        <ele>650.95</ele>
        <time>2010-05-29T14:23:54Z</time>
      </trkpt>
      <trkpt lat="44.86536" lon="5.68386">
        <ele>650.95</ele>
        <time>2010-05-29T14:24:02Z</time>
      </trkpt>
      <trkpt lat="44.86519" lon="5.68413">
        <ele>648.55</ele>
        <time>2010-05-29T14:24:07Z</time>
      </trkpt>
      <trkpt lat="44.86512" lon="5.68433">
        <ele>647.59</ele>
        <time>2010-05-29T14:24:10Z</time>
      </trkpt>
      <trkpt lat="44.86496" lon="5.68461">
        <ele>645.66</ele>
        <time>2010-05-29T14:24:14Z</time>
      </trkpt>
      <trkpt lat="44.86492" lon="5.68469">
        <ele>646.14</ele>
        <time>2010-05-29T14:24:15Z</time>
      </trkpt>
      <trkpt lat="44.8648" lon="5.68495">
        <ele>645.18</ele>
        <time>2010-05-29T14:24:19Z</time>
      </trkpt>
      <trkpt lat="44.86468" lon="5.68513">
        <ele>645.18</ele>
        <time>2010-05-29T14:24:24Z</time>
      </trkpt>
      <trkpt lat="44.8646" lon="5.68545">
        <ele>647.59</ele>
        <time>2010-05-29T14:24:35Z</time>
      </trkpt>
      <trkpt lat="44.8646" lon="5.68569">
        <ele>649.99</ele>
        <time>2010-05-29T14:24:43Z</time>
      </trkpt>
      <trkpt lat="44.8646" lon="5.68572">
        <ele>650.95</ele>
        <time>2010-05-29T14:24:44Z</time>
      </trkpt>
      <trkpt lat="44.86459" lon="5.68584">
        <ele>653.35</ele>
        <time>2010-05-29T14:24:50Z</time>
      </trkpt>
      <trkpt lat="44.86459" lon="5.68594">
        <ele>654.31</ele>
        <time>2010-05-29T14:24:54Z</time>
      </trkpt>
      <trkpt lat="44.86458" lon="5.68609">
        <ele>654.8</ele>
        <time>2010-05-29T14:24:59Z</time>
      </trkpt>
      <trkpt lat="44.86452" lon="5.68627">
        <ele>655.76</ele>
        <time>2010-05-29T14:25:04Z</time>
      </trkpt>
      <trkpt lat="44.86454" lon="5.68637">
        <ele>657.2</ele>
        <time>2010-05-29T14:25:07Z</time>
      </trkpt>
      <trkpt lat="44.86454" lon="5.68644">
        <ele>658.16</ele>
        <time>2010-05-29T14:25:09Z</time>
      </trkpt>
      <trkpt lat="44.86451" lon="5.68658">
        <ele>660.08</ele>
        <time>2010-05-29T14:25:15Z</time>
      </trkpt>
      <trkpt lat="44.86441" lon="5.68677">
        <ele>661.52</ele>
        <time>2010-05-29T14:25:24Z</time>
      </trkpt>
      <trkpt lat="44.8643" lon="5.68701">
        <ele>663.45</ele>
        <time>2010-05-29T14:25:36Z</time>
      </trkpt>
      <trkpt lat="44.86417" lon="5.68723">
        <ele>665.37</ele>
        <time>2010-05-29T14:25:50Z</time>
      </trkpt>
      <trkpt lat="44.86413" lon="5.68728">
        <ele>666.33</ele>
        <time>2010-05-29T14:25:54Z</time>
      </trkpt>
      <trkpt lat="44.86411" lon="5.68736">
        <ele>667.77</ele>
        <time>2010-05-29T14:25:59Z</time>
      </trkpt>
      <trkpt lat="44.864" lon="5.6874">
        <ele>670.18</ele>
        <time>2010-05-29T14:26:09Z</time>
      </trkpt>
      <trkpt lat="44.86395" lon="5.68746">
        <ele>670.18</ele>
        <time>2010-05-29T14:26:14Z</time>
      </trkpt>
      <trkpt lat="44.86389" lon="5.68754">
        <ele>670.18</ele>
        <time>2010-05-29T14:26:19Z</time>
      </trkpt>
      <trkpt lat="44.86389" lon="5.68763">
        <ele>671.14</ele>
        <time>2010-05-29T14:26:27Z</time>
      </trkpt>
      <trkpt lat="44.86385" lon="5.68771">
        <ele>673.06</ele>
        <time>2010-05-29T14:26:38Z</time>
      </trkpt>
      <trkpt lat="44.86383" lon="5.68771">
        <ele>673.06</ele>
        <time>2010-05-29T14:26:42Z</time>
      </trkpt>
      <trkpt lat="44.86364" lon="5.68784">
        <ele>674.5</ele>
        <time>2010-05-29T14:26:54Z</time>
      </trkpt>
      <trkpt lat="44.86362" lon="5.68811">
        <ele>674.5</ele>
        <time>2010-05-29T14:27:04Z</time>
      </trkpt>
      <trkpt lat="44.86354" lon="5.68819">
        <ele>675.46</ele>
        <time>2010-05-29T14:27:09Z</time>
      </trkpt>
      <trkpt lat="44.86351" lon="5.68821">
        <ele>674.98</ele>
        <time>2010-05-29T14:27:11Z</time>
      </trkpt>
      <trkpt lat="44.86335" lon="5.6884">
        <ele>676.91</ele>
        <time>2010-05-29T14:27:23Z</time>
      </trkpt>
      <trkpt lat="44.86325" lon="5.68848">
        <ele>676.91</ele>
        <time>2010-05-29T14:27:30Z</time>
      </trkpt>
      <trkpt lat="44.86312" lon="5.68857">
        <ele>678.83</ele>
        <time>2010-05-29T14:27:38Z</time>
      </trkpt>
      <trkpt lat="44.86296" lon="5.68863">
        <ele>680.75</ele>
        <time>2010-05-29T14:27:48Z</time>
      </trkpt>
      <trkpt lat="44.86276" lon="5.68871">
        <ele>682.19</ele>
        <time>2010-05-29T14:27:59Z</time>
      </trkpt>
      <trkpt lat="44.8627" lon="5.68876">
        <ele>683.63</ele>
        <time>2010-05-29T14:28:03Z</time>
      </trkpt>
      <trkpt lat="44.86263" lon="5.68886">
        <ele>685.56</ele>
        <time>2010-05-29T14:28:11Z</time>
      </trkpt>
      <trkpt lat="44.86239" lon="5.68885">
        <ele>686.52</ele>
        <time>2010-05-29T14:28:23Z</time>
      </trkpt>
      <trkpt lat="44.86238" lon="5.68887">
        <ele>687.48</ele>
        <time>2010-05-29T14:28:25Z</time>
      </trkpt>
      <trkpt lat="44.8624" lon="5.68889">
        <ele>688.44</ele>
        <time>2010-05-29T14:28:27Z</time>
      </trkpt>
      <trkpt lat="44.86256" lon="5.68898">
        <ele>689.88</ele>
        <time>2010-05-29T14:28:37Z</time>
      </trkpt>
      <trkpt lat="44.8625" lon="5.6891">
        <ele>692.29</ele>
        <time>2010-05-29T14:28:46Z</time>
      </trkpt>
      <trkpt lat="44.86247" lon="5.6892">
        <ele>693.73</ele>
        <time>2010-05-29T14:28:51Z</time>
      </trkpt>
      <trkpt lat="44.86244" lon="5.68924">
        <ele>695.65</ele>
        <time>2010-05-29T14:29:01Z</time>
      </trkpt>
      <trkpt lat="44.86241" lon="5.6893">
        <ele>697.57</ele>
        <time>2010-05-29T14:29:09Z</time>
      </trkpt>
      <trkpt lat="44.86249" lon="5.68931">
        <ele>698.53</ele>
        <time>2010-05-29T14:29:24Z</time>
      </trkpt>
      <trkpt lat="44.86257" lon="5.68933">
        <ele>699.98</ele>
        <time>2010-05-29T14:29:35Z</time>
      </trkpt>
      <trkpt lat="44.86286" lon="5.68933">
        <ele>700.46</ele>
        <time>2010-05-29T14:29:47Z</time>
      </trkpt>
      <trkpt lat="44.86295" lon="5.6893">
        <ele>699.5</ele>
        <time>2010-05-29T14:29:59Z</time>
      </trkpt>
      <trkpt lat="44.86295" lon="5.6893">
        <ele>699.5</ele>
        <time>2010-05-29T14:30:21Z</time>
      </trkpt>
      <trkpt lat="44.86295" lon="5.6893">
        <ele>699.5</ele>
        <time>2010-05-29T14:30:41Z</time>
      </trkpt>
      <trkpt lat="44.86295" lon="5.68931">
        <ele>699.5</ele>
        <time>2010-05-29T14:31:14Z</time>
      </trkpt>
      <trkpt lat="44.86295" lon="5.68931">
        <ele>699.02</ele>
        <time>2010-05-29T14:31:47Z</time>
      </trkpt>
      <trkpt lat="44.86295" lon="5.68931">
        <ele>698.53</ele>
        <time>2010-05-29T14:34:21Z</time>
      </trkpt>
      <trkpt lat="44.86294" lon="5.68929">
        <ele>699.98</ele>
        <time>2010-05-29T14:34:43Z</time>
      </trkpt>
      <trkpt lat="44.86295" lon="5.6893">
        <ele>699.98</ele>
        <time>2010-05-29T14:35:14Z</time>
      </trkpt>
      <trkpt lat="44.86295" lon="5.68929">
        <ele>700.46</ele>
        <time>2010-05-29T14:35:38Z</time>
      </trkpt>
      <trkpt lat="44.86295" lon="5.6893">
        <ele>700.46</ele>
        <time>2010-05-29T14:36:01Z</time>
      </trkpt>
      <trkpt lat="44.86295" lon="5.68933">
        <ele>699.98</ele>
        <time>2010-05-29T14:36:25Z</time>
      </trkpt>
      <trkpt lat="44.86294" lon="5.68933">
        <ele>699.98</ele>
        <time>2010-05-29T14:36:40Z</time>
      </trkpt>
      <trkpt lat="44.86293" lon="5.68932">
        <ele>700.46</ele>
        <time>2010-05-29T14:37:08Z</time>
      </trkpt>
      <trkpt lat="44.8626" lon="5.68934">
        <ele>699.98</ele>
        <time>2010-05-29T14:37:21Z</time>
      </trkpt>
      <trkpt lat="44.86239" lon="5.68929">
        <ele>698.53</ele>
        <time>2010-05-29T14:37:31Z</time>
      </trkpt>
      <trkpt lat="44.86244" lon="5.68924">
        <ele>697.09</ele>
        <time>2010-05-29T14:37:34Z</time>
      </trkpt>
      <trkpt lat="44.86249" lon="5.68919">
        <ele>696.13</ele>
        <time>2010-05-29T14:37:37Z</time>
      </trkpt>
      <trkpt lat="44.8625" lon="5.68917">
        <ele>694.69</ele>
        <time>2010-05-29T14:37:38Z</time>
      </trkpt>
      <trkpt lat="44.86251" lon="5.6891">
        <ele>694.21</ele>
        <time>2010-05-29T14:37:40Z</time>
      </trkpt>
      <trkpt lat="44.86255" lon="5.68901">
        <ele>690.36</ele>
        <time>2010-05-29T14:37:45Z</time>
      </trkpt>
      <trkpt lat="44.86249" lon="5.68893">
        <ele>689.88</ele>
        <time>2010-05-29T14:37:50Z</time>
      </trkpt>
      <trkpt lat="44.86239" lon="5.68886">
        <ele>687.96</ele>
        <time>2010-05-29T14:37:58Z</time>
      </trkpt>
      <trkpt lat="44.8625" lon="5.68882">
        <ele>687.96</ele>
        <time>2010-05-29T14:38:04Z</time>
      </trkpt>
      <trkpt lat="44.86267" lon="5.68874">
        <ele>684.12</ele>
        <time>2010-05-29T14:38:12Z</time>
      </trkpt>
      <trkpt lat="44.86291" lon="5.68862">
        <ele>682.19</ele>
        <time>2010-05-29T14:38:18Z</time>
      </trkpt>
      <trkpt lat="44.86296" lon="5.68859">
        <ele>682.19</ele>
        <time>2010-05-29T14:38:19Z</time>
      </trkpt>
      <trkpt lat="44.86317" lon="5.68847">
        <ele>679.31</ele>
        <time>2010-05-29T14:38:23Z</time>
      </trkpt>
      <trkpt lat="44.86334" lon="5.68836">
        <ele>676.91</ele>
        <time>2010-05-29T14:38:27Z</time>
      </trkpt>
      <trkpt lat="44.86335" lon="5.68833">
        <ele>676.42</ele>
        <time>2010-05-29T14:38:28Z</time>
      </trkpt>
      <trkpt lat="44.86337" lon="5.68829">
        <ele>675.94</ele>
        <time>2010-05-29T14:38:29Z</time>
      </trkpt>
      <trkpt lat="44.8634" lon="5.68826">
        <ele>675.94</ele>
        <time>2010-05-29T14:38:30Z</time>
      </trkpt>
      <trkpt lat="44.86344" lon="5.68823">
        <ele>676.42</ele>
        <time>2010-05-29T14:38:31Z</time>
      </trkpt>
      <trkpt lat="44.86349" lon="5.68819">
        <ele>674.98</ele>
        <time>2010-05-29T14:38:32Z</time>
      </trkpt>
      <trkpt lat="44.86352" lon="5.68814">
        <ele>675.46</ele>
        <time>2010-05-29T14:38:33Z</time>
      </trkpt>
      <trkpt lat="44.86354" lon="5.68809">
        <ele>675.46</ele>
        <time>2010-05-29T14:38:34Z</time>
      </trkpt>
      <trkpt lat="44.86354" lon="5.68804">
        <ele>675.46</ele>
        <time>2010-05-29T14:38:35Z</time>
      </trkpt>
      <trkpt lat="44.86354" lon="5.68799">
        <ele>675.94</ele>
        <time>2010-05-29T14:38:36Z</time>
      </trkpt>
      <trkpt lat="44.86355" lon="5.68795">
        <ele>675.46</ele>
        <time>2010-05-29T14:38:37Z</time>
      </trkpt>
      <trkpt lat="44.86358" lon="5.6879">
        <ele>674.98</ele>
        <time>2010-05-29T14:38:38Z</time>
      </trkpt>
      <trkpt lat="44.86362" lon="5.68786">
        <ele>674.5</ele>
        <time>2010-05-29T14:38:39Z</time>
      </trkpt>
      <trkpt lat="44.86367" lon="5.68782">
        <ele>674.98</ele>
        <time>2010-05-29T14:38:40Z</time>
      </trkpt>
      <trkpt lat="44.86371" lon="5.68781">
        <ele>674.02</ele>
        <time>2010-05-29T14:38:41Z</time>
      </trkpt>
      <trkpt lat="44.86374" lon="5.6878">
        <ele>674.02</ele>
        <time>2010-05-29T14:38:42Z</time>
      </trkpt>
      <trkpt lat="44.86376" lon="5.68779">
        <ele>673.06</ele>
        <time>2010-05-29T14:38:43Z</time>
      </trkpt>
      <trkpt lat="44.86378" lon="5.68777">
        <ele>672.58</ele>
        <time>2010-05-29T14:38:44Z</time>
      </trkpt>
      <trkpt lat="44.86379" lon="5.68773">
        <ele>672.58</ele>
        <time>2010-05-29T14:38:45Z</time>
      </trkpt>
      <trkpt lat="44.86382" lon="5.68761">
        <ele>671.14</ele>
        <time>2010-05-29T14:38:48Z</time>
      </trkpt>
      <trkpt lat="44.86404" lon="5.68737">
        <ele>667.77</ele>
        <time>2010-05-29T14:38:55Z</time>
      </trkpt>
      <trkpt lat="44.86408" lon="5.68729">
        <ele>667.29</ele>
        <time>2010-05-29T14:38:56Z</time>
      </trkpt>
      <trkpt lat="44.86416" lon="5.68715">
        <ele>666.33</ele>
        <time>2010-05-29T14:38:58Z</time>
      </trkpt>
      <trkpt lat="44.86419" lon="5.68708">
        <ele>665.85</ele>
        <time>2010-05-29T14:38:59Z</time>
      </trkpt>
      <trkpt lat="44.86431" lon="5.68682">
        <ele>663.45</ele>
        <time>2010-05-29T14:39:03Z</time>
      </trkpt>
      <trkpt lat="44.86434" lon="5.68674">
        <ele>662.01</ele>
        <time>2010-05-29T14:39:04Z</time>
      </trkpt>
      <trkpt lat="44.86445" lon="5.68634">
        <ele>657.2</ele>
        <time>2010-05-29T14:39:09Z</time>
      </trkpt>
      <trkpt lat="44.86447" lon="5.68603">
        <ele>654.8</ele>
        <time>2010-05-29T14:39:14Z</time>
      </trkpt>
      <trkpt lat="44.86446" lon="5.68598">
        <ele>653.83</ele>
        <time>2010-05-29T14:39:15Z</time>
      </trkpt>
      <trkpt lat="44.86443" lon="5.68576">
        <ele>650.47</ele>
        <time>2010-05-29T14:39:19Z</time>
      </trkpt>
      <trkpt lat="44.86447" lon="5.68546">
        <ele>646.62</ele>
        <time>2010-05-29T14:39:23Z</time>
      </trkpt>
      <trkpt lat="44.86468" lon="5.68515">
        <ele>645.18</ele>
        <time>2010-05-29T14:39:29Z</time>
      </trkpt>
      <trkpt lat="44.86489" lon="5.68471">
        <ele>647.1</ele>
        <time>2010-05-29T14:39:36Z</time>
      </trkpt>
      <trkpt lat="44.86501" lon="5.68451">
        <ele>647.59</ele>
        <time>2010-05-29T14:39:39Z</time>
      </trkpt>
      <trkpt lat="44.86506" lon="5.68431">
        <ele>648.07</ele>
        <time>2010-05-29T14:39:42Z</time>
      </trkpt>
      <trkpt lat="44.86521" lon="5.68404">
        <ele>651.43</ele>
        <time>2010-05-29T14:39:48Z</time>
      </trkpt>
      <trkpt lat="44.86538" lon="5.68391">
        <ele>651.91</ele>
        <time>2010-05-29T14:39:52Z</time>
      </trkpt>
      <trkpt lat="44.86561" lon="5.68356">
        <ele>650.47</ele>
        <time>2010-05-29T14:39:58Z</time>
      </trkpt>
      <trkpt lat="44.86564" lon="5.68339">
        <ele>649.03</ele>
        <time>2010-05-29T14:40:00Z</time>
      </trkpt>
      <trkpt lat="44.86595" lon="5.68318">
        <ele>646.62</ele>
        <time>2010-05-29T14:40:07Z</time>
      </trkpt>
      <trkpt lat="44.86611" lon="5.68303">
        <ele>647.59</ele>
        <time>2010-05-29T14:40:10Z</time>
      </trkpt>
      <trkpt lat="44.86629" lon="5.6829">
        <ele>648.07</ele>
        <time>2010-05-29T14:40:13Z</time>
      </trkpt>
      <trkpt lat="44.8664" lon="5.68272">
        <ele>647.1</ele>
        <time>2010-05-29T14:40:17Z</time>
      </trkpt>
      <trkpt lat="44.86646" lon="5.68255">
        <ele>647.1</ele>
        <time>2010-05-29T14:40:21Z</time>
      </trkpt>
      <trkpt lat="44.86651" lon="5.68246">
        <ele>649.51</ele>
        <time>2010-05-29T14:40:24Z</time>
      </trkpt>
      <trkpt lat="44.8666" lon="5.68239">
        <ele>650.95</ele>
        <time>2010-05-29T14:40:32Z</time>
      </trkpt>
      <trkpt lat="44.8666" lon="5.68239">
        <ele>650.95</ele>
        <time>2010-05-29T14:40:35Z</time>
      </trkpt>
      <trkpt lat="44.86664" lon="5.68237">
        <ele>650.47</ele>
        <time>2010-05-29T14:40:49Z</time>
      </trkpt>
      <trkpt lat="44.86668" lon="5.68234">
        <ele>651.43</ele>
        <time>2010-05-29T14:41:02Z</time>
      </trkpt>
      <trkpt lat="44.8667" lon="5.68233">
        <ele>651.43</ele>
        <time>2010-05-29T14:41:04Z</time>
      </trkpt>
      <trkpt lat="44.86669" lon="5.6823">
        <ele>649.51</ele>
        <time>2010-05-29T14:41:06Z</time>
      </trkpt>
      <trkpt lat="44.86668" lon="5.68229">
        <ele>648.55</ele>
        <time>2010-05-29T14:41:21Z</time>
      </trkpt>
      <trkpt lat="44.86669" lon="5.68227">
        <ele>648.55</ele>
        <time>2010-05-29T14:41:47Z</time>
      </trkpt>
      <trkpt lat="44.86675" lon="5.68209">
        <ele>647.59</ele>
        <time>2010-05-29T14:41:52Z</time>
      </trkpt>
      <trkpt lat="44.86682" lon="5.68165">
        <ele>644.22</ele>
        <time>2010-05-29T14:41:57Z</time>
      </trkpt>
      <trkpt lat="44.86696" lon="5.68139">
        <ele>642.3</ele>
        <time>2010-05-29T14:42:02Z</time>
      </trkpt>
      <trkpt lat="44.86704" lon="5.6813">
        <ele>637.49</ele>
        <time>2010-05-29T14:42:04Z</time>
      </trkpt>
      <trkpt lat="44.86707" lon="5.68123">
        <ele>637.01</ele>
        <time>2010-05-29T14:42:05Z</time>
      </trkpt>
      <trkpt lat="44.86711" lon="5.6811">
        <ele>634.13</ele>
        <time>2010-05-29T14:42:07Z</time>
      </trkpt>
      <trkpt lat="44.86716" lon="5.68067">
        <ele>628.36</ele>
        <time>2010-05-29T14:42:13Z</time>
      </trkpt>
      <trkpt lat="44.8672" lon="5.68059">
        <ele>627.4</ele>
        <time>2010-05-29T14:42:14Z</time>
      </trkpt>
      <trkpt lat="44.86753" lon="5.68002">
        <ele>624.99</ele>
        <time>2010-05-29T14:42:22Z</time>
      </trkpt>
      <trkpt lat="44.86775" lon="5.67963">
        <ele>624.51</ele>
        <time>2010-05-29T14:42:30Z</time>
      </trkpt>
      <trkpt lat="44.86793" lon="5.67931">
        <ele>622.59</ele>
        <time>2010-05-29T14:42:36Z</time>
      </trkpt>
      <trkpt lat="44.86819" lon="5.67879">
        <ele>621.15</ele>
        <time>2010-05-29T14:42:44Z</time>
      </trkpt>
      <trkpt lat="44.86831" lon="5.67855">
        <ele>619.71</ele>
        <time>2010-05-29T14:42:47Z</time>
      </trkpt>
      <trkpt lat="44.86849" lon="5.67807">
        <ele>616.34</ele>
        <time>2010-05-29T14:42:52Z</time>
      </trkpt>
      <trkpt lat="44.86871" lon="5.67764">
        <ele>611.54</ele>
        <time>2010-05-29T14:42:56Z</time>
      </trkpt>
      <trkpt lat="44.8688" lon="5.67745">
        <ele>607.69</ele>
        <time>2010-05-29T14:42:58Z</time>
      </trkpt>
      <trkpt lat="44.86889" lon="5.67729">
        <ele>606.73</ele>
        <time>2010-05-29T14:43:00Z</time>
      </trkpt>
      <trkpt lat="44.86903" lon="5.67702">
        <ele>605.29</ele>
        <time>2010-05-29T14:43:03Z</time>
      </trkpt>
      <trkpt lat="44.86927" lon="5.67656">
        <ele>604.33</ele>
        <time>2010-05-29T14:43:09Z</time>
      </trkpt>
      <trkpt lat="44.86944" lon="5.67626">
        <ele>605.29</ele>
        <time>2010-05-29T14:43:13Z</time>
      </trkpt>
      <trkpt lat="44.86951" lon="5.67583">
        <ele>602.4</ele>
        <time>2010-05-29T14:43:18Z</time>
      </trkpt>
      <trkpt lat="44.8696" lon="5.67519">
        <ele>600.48</ele>
        <time>2010-05-29T14:43:27Z</time>
      </trkpt>
      <trkpt lat="44.86975" lon="5.67498">
        <ele>595.67</ele>
        <time>2010-05-29T14:43:30Z</time>
      </trkpt>
      <trkpt lat="44.8698" lon="5.67492">
        <ele>594.23</ele>
        <time>2010-05-29T14:43:31Z</time>
      </trkpt>
      <trkpt lat="44.86988" lon="5.67477">
        <ele>593.75</ele>
        <time>2010-05-29T14:43:33Z</time>
      </trkpt>
      <trkpt lat="44.87001" lon="5.67444">
        <ele>591.83</ele>
        <time>2010-05-29T14:43:37Z</time>
      </trkpt>
      <trkpt lat="44.87011" lon="5.67418">
        <ele>590.87</ele>
        <time>2010-05-29T14:43:40Z</time>
      </trkpt>
      <trkpt lat="44.87017" lon="5.67408">
        <ele>590.87</ele>
        <time>2010-05-29T14:43:50Z</time>
      </trkpt>
      <trkpt lat="44.87018" lon="5.67409">
        <ele>591.35</ele>
        <time>2010-05-29T14:44:05Z</time>
      </trkpt>
      <trkpt lat="44.87024" lon="5.67413">
        <ele>590.39</ele>
        <time>2010-05-29T14:44:08Z</time>
      </trkpt>
      <trkpt lat="44.87036" lon="5.67424">
        <ele>587.02</ele>
        <time>2010-05-29T14:44:12Z</time>
      </trkpt>
      <trkpt lat="44.87032" lon="5.67441">
        <ele>584.62</ele>
        <time>2010-05-29T14:44:16Z</time>
      </trkpt>
      <trkpt lat="44.87022" lon="5.6746">
        <ele>582.22</ele>
        <time>2010-05-29T14:44:19Z</time>
      </trkpt>
      <trkpt lat="44.87029" lon="5.67505">
        <ele>577.89</ele>
        <time>2010-05-29T14:44:27Z</time>
      </trkpt>
      <trkpt lat="44.87036" lon="5.67531">
        <ele>574.53</ele>
        <time>2010-05-29T14:44:33Z</time>
      </trkpt>
      <trkpt lat="44.87036" lon="5.67538">
        <ele>574.04</ele>
        <time>2010-05-29T14:44:34Z</time>
      </trkpt>
      <trkpt lat="44.87033" lon="5.67551">
        <ele>572.12</ele>
        <time>2010-05-29T14:44:36Z</time>
      </trkpt>
      <trkpt lat="44.87037" lon="5.67567">
        <ele>570.2</ele>
        <time>2010-05-29T14:44:40Z</time>
      </trkpt>
      <trkpt lat="44.87038" lon="5.67568">
        <ele>570.2</ele>
        <time>2010-05-29T14:44:41Z</time>
      </trkpt>
      <trkpt lat="44.87051" lon="5.67583">
        <ele>567.8</ele>
        <time>2010-05-29T14:44:49Z</time>
      </trkpt>
      <trkpt lat="44.87056" lon="5.67584">
        <ele>566.35</ele>
        <time>2010-05-29T14:44:52Z</time>
      </trkpt>
      <trkpt lat="44.87061" lon="5.67589">
        <ele>565.87</ele>
        <time>2010-05-29T14:45:08Z</time>
      </trkpt>
      <trkpt lat="44.87062" lon="5.6759">
        <ele>565.87</ele>
        <time>2010-05-29T14:45:09Z</time>
      </trkpt>
      <trkpt lat="44.87077" lon="5.67606">
        <ele>563.95</ele>
        <time>2010-05-29T14:45:15Z</time>
      </trkpt>
      <trkpt lat="44.87082" lon="5.67627">
        <ele>562.51</ele>
        <time>2010-05-29T14:45:19Z</time>
      </trkpt>
      <trkpt lat="44.87084" lon="5.67637">
        <ele>561.55</ele>
        <time>2010-05-29T14:45:22Z</time>
      </trkpt>
      <trkpt lat="44.87084" lon="5.67642">
        <ele>558.66</ele>
        <time>2010-05-29T14:45:30Z</time>
      </trkpt>
      <trkpt lat="44.87084" lon="5.67643">
        <ele>558.18</ele>
        <time>2010-05-29T14:45:32Z</time>
      </trkpt>
      <trkpt lat="44.87085" lon="5.67641">
        <ele>557.7</ele>
        <time>2010-05-29T14:45:36Z</time>
      </trkpt>
      <trkpt lat="44.87082" lon="5.6764">
        <ele>556.74</ele>
        <time>2010-05-29T14:45:43Z</time>
      </trkpt>
      <trkpt lat="44.87084" lon="5.67642">
        <ele>555.78</ele>
        <time>2010-05-29T14:45:47Z</time>
      </trkpt>
      <trkpt lat="44.87082" lon="5.67648">
        <ele>554.82</ele>
        <time>2010-05-29T14:45:51Z</time>
      </trkpt>
      <trkpt lat="44.87082" lon="5.6765">
        <ele>553.86</ele>
        <time>2010-05-29T14:46:08Z</time>
      </trkpt>
      <trkpt lat="44.87082" lon="5.67649">
        <ele>553.86</ele>
        <time>2010-05-29T14:46:19Z</time>
      </trkpt>
      <trkpt lat="44.87087" lon="5.67648">
        <ele>552.9</ele>
        <time>2010-05-29T14:46:24Z</time>
      </trkpt>
      <trkpt lat="44.87078" lon="5.67657">
        <ele>550.01</ele>
        <time>2010-05-29T14:46:31Z</time>
      </trkpt>
      <trkpt lat="44.87075" lon="5.67661">
        <ele>549.05</ele>
        <time>2010-05-29T14:46:43Z</time>
      </trkpt>
      <trkpt lat="44.87075" lon="5.67661">
        <ele>549.05</ele>
        <time>2010-05-29T14:46:44Z</time>
      </trkpt>
      <trkpt lat="44.87097" lon="5.67659">
        <ele>546.17</ele>
        <time>2010-05-29T14:46:50Z</time>
      </trkpt>
      <trkpt lat="44.87105" lon="5.67649">
        <ele>544.72</ele>
        <time>2010-05-29T14:46:59Z</time>
      </trkpt>
      <trkpt lat="44.87108" lon="5.67648">
        <ele>544.24</ele>
        <time>2010-05-29T14:47:15Z</time>
      </trkpt>
      <trkpt lat="44.87119" lon="5.67651">
        <ele>545.2</ele>
        <time>2010-05-29T14:47:33Z</time>
      </trkpt>
      <trkpt lat="44.87121" lon="5.67652">
        <ele>545.2</ele>
        <time>2010-05-29T14:47:34Z</time>
      </trkpt>
      <trkpt lat="44.8713" lon="5.67657">
        <ele>543.28</ele>
        <time>2010-05-29T14:47:38Z</time>
      </trkpt>
      <trkpt lat="44.87136" lon="5.6766">
        <ele>539.92</ele>
        <time>2010-05-29T14:47:41Z</time>
      </trkpt>
      <trkpt lat="44.87161" lon="5.67669">
        <ele>537.03</ele>
        <time>2010-05-29T14:47:56Z</time>
      </trkpt>
      <trkpt lat="44.87162" lon="5.67668">
        <ele>537.03</ele>
        <time>2010-05-29T14:47:57Z</time>
      </trkpt>
      <trkpt lat="44.87189" lon="5.67679">
        <ele>538.48</ele>
        <time>2010-05-29T14:48:06Z</time>
      </trkpt>
      <trkpt lat="44.87212" lon="5.67686">
        <ele>540.4</ele>
        <time>2010-05-29T14:48:10Z</time>
      </trkpt>
      <trkpt lat="44.87228" lon="5.67692">
        <ele>542.32</ele>
        <time>2010-05-29T14:48:13Z</time>
      </trkpt>
      <trkpt lat="44.8725" lon="5.67705">
        <ele>541.84</ele>
        <time>2010-05-29T14:48:18Z</time>
      </trkpt>
      <trkpt lat="44.87268" lon="5.67714">
        <ele>544.24</ele>
        <time>2010-05-29T14:48:23Z</time>
      </trkpt>
      <trkpt lat="44.87291" lon="5.67727">
        <ele>546.17</ele>
        <time>2010-05-29T14:48:33Z</time>
      </trkpt>
      <trkpt lat="44.87297" lon="5.67728">
        <ele>546.65</ele>
        <time>2010-05-29T14:48:44Z</time>
      </trkpt>
      <trkpt lat="44.87297" lon="5.67728">
        <ele>545.69</ele>
        <time>2010-05-29T14:48:49Z</time>
      </trkpt>
      <trkpt lat="44.87298" lon="5.67729">
        <ele>545.2</ele>
        <time>2010-05-29T14:49:31Z</time>
      </trkpt>
      <trkpt lat="44.87296" lon="5.67726">
        <ele>545.69</ele>
        <time>2010-05-29T14:53:20Z</time>
      </trkpt>
      <trkpt lat="44.87297" lon="5.67728">
        <ele>545.69</ele>
        <time>2010-05-29T14:53:40Z</time>
      </trkpt>
      <trkpt lat="44.87297" lon="5.67728">
        <ele>545.69</ele>
        <time>2010-05-29T14:53:47Z</time>
      </trkpt>
      <trkpt lat="44.8729" lon="5.67707">
        <ele>548.57</ele>
        <time>2010-05-29T14:53:59Z</time>
      </trkpt>
      <trkpt lat="44.87281" lon="5.67691">
        <ele>551.45</ele>
        <time>2010-05-29T14:54:11Z</time>
      </trkpt>
      <trkpt lat="44.87279" lon="5.6768">
        <ele>552.41</ele>
        <time>2010-05-29T14:54:17Z</time>
      </trkpt>
      <trkpt lat="44.87278" lon="5.67674">
        <ele>553.38</ele>
        <time>2010-05-29T14:54:20Z</time>
      </trkpt>
      <trkpt lat="44.87284" lon="5.67667">
        <ele>555.3</ele>
        <time>2010-05-29T14:54:25Z</time>
      </trkpt>
      <trkpt lat="44.87295" lon="5.67662">
        <ele>557.7</ele>
        <time>2010-05-29T14:54:33Z</time>
      </trkpt>
      <trkpt lat="44.87301" lon="5.67658">
        <ele>558.66</ele>
        <time>2010-05-29T14:54:37Z</time>
      </trkpt>
      <trkpt lat="44.87317" lon="5.67654">
        <ele>562.51</ele>
        <time>2010-05-29T14:54:47Z</time>
      </trkpt>
      <trkpt lat="44.87323" lon="5.67654">
        <ele>562.99</ele>
        <time>2010-05-29T14:54:58Z</time>
      </trkpt>
      <trkpt lat="44.8733" lon="5.67657">
        <ele>563.47</ele>
        <time>2010-05-29T14:55:14Z</time>
      </trkpt>
      <trkpt lat="44.8735" lon="5.67662">
        <ele>563.95</ele>
        <time>2010-05-29T14:55:24Z</time>
      </trkpt>
      <trkpt lat="44.87365" lon="5.67668">
        <ele>564.43</ele>
        <time>2010-05-29T14:55:29Z</time>
      </trkpt>
      <trkpt lat="44.8739" lon="5.67678">
        <ele>565.39</ele>
        <time>2010-05-29T14:55:38Z</time>
      </trkpt>
      <trkpt lat="44.87398" lon="5.67682">
        <ele>565.87</ele>
        <time>2010-05-29T14:55:41Z</time>
      </trkpt>
      <trkpt lat="44.87412" lon="5.67687">
        <ele>566.35</ele>
        <time>2010-05-29T14:55:46Z</time>
      </trkpt>
      <trkpt lat="44.87432" lon="5.67695">
        <ele>566.83</ele>
        <time>2010-05-29T14:55:53Z</time>
      </trkpt>
      <trkpt lat="44.87448" lon="5.6769">
        <ele>567.32</ele>
        <time>2010-05-29T14:55:58Z</time>
      </trkpt>
      <trkpt lat="44.87493" lon="5.67692">
        <ele>567.8</ele>
        <time>2010-05-29T14:56:10Z</time>
      </trkpt>
      <trkpt lat="44.87507" lon="5.67694">
        <ele>567.8</ele>
        <time>2010-05-29T14:56:14Z</time>
      </trkpt>
      <trkpt lat="44.87524" lon="5.67696">
        <ele>567.8</ele>
        <time>2010-05-29T14:56:19Z</time>
      </trkpt>
      <trkpt lat="44.87547" lon="5.67699">
        <ele>567.8</ele>
        <time>2010-05-29T14:56:26Z</time>
      </trkpt>
      <trkpt lat="44.8757" lon="5.67711">
        <ele>567.32</ele>
        <time>2010-05-29T14:56:33Z</time>
      </trkpt>
      <trkpt lat="44.87632" lon="5.6772">
        <ele>565.87</ele>
        <time>2010-05-29T14:56:45Z</time>
      </trkpt>
      <trkpt lat="44.87646" lon="5.6772">
        <ele>565.39</ele>
        <time>2010-05-29T14:56:48Z</time>
      </trkpt>
      <trkpt lat="44.87663" lon="5.67717">
        <ele>564.91</ele>
        <time>2010-05-29T14:56:52Z</time>
      </trkpt>
      <trkpt lat="44.87693" lon="5.67711">
        <ele>564.91</ele>
        <time>2010-05-29T14:57:00Z</time>
      </trkpt>
      <trkpt lat="44.87716" lon="5.67709">
        <ele>564.91</ele>
        <time>2010-05-29T14:57:05Z</time>
      </trkpt>
      <trkpt lat="44.8773" lon="5.67706">
        <ele>564.91</ele>
        <time>2010-05-29T14:57:08Z</time>
      </trkpt>
      <trkpt lat="44.8774" lon="5.67705">
        <ele>564.91</ele>
        <time>2010-05-29T14:57:10Z</time>
      </trkpt>
      <trkpt lat="44.87751" lon="5.67705">
        <ele>564.91</ele>
        <time>2010-05-29T14:57:12Z</time>
      </trkpt>
      <trkpt lat="44.87797" lon="5.67698">
        <ele>564.43</ele>
        <time>2010-05-29T14:57:21Z</time>
      </trkpt>
      <trkpt lat="44.87842" lon="5.67688">
        <ele>566.35</ele>
        <time>2010-05-29T14:57:31Z</time>
      </trkpt>
      <trkpt lat="44.87863" lon="5.67688">
        <ele>565.39</ele>
        <time>2010-05-29T14:57:36Z</time>
      </trkpt>
      <trkpt lat="44.87892" lon="5.67685">
        <ele>564.43</ele>
        <time>2010-05-29T14:57:41Z</time>
      </trkpt>
      <trkpt lat="44.87904" lon="5.67683">
        <ele>564.43</ele>
        <time>2010-05-29T14:57:43Z</time>
      </trkpt>
      <trkpt lat="44.87931" lon="5.67676">
        <ele>564.91</ele>
        <time>2010-05-29T14:57:48Z</time>
      </trkpt>
      <trkpt lat="44.87936" lon="5.67675">
        <ele>565.39</ele>
        <time>2010-05-29T14:57:49Z</time>
      </trkpt>
      <trkpt lat="44.87951" lon="5.67673">
        <ele>565.39</ele>
        <time>2010-05-29T14:57:52Z</time>
      </trkpt>
      <trkpt lat="44.87956" lon="5.67671">
        <ele>565.39</ele>
        <time>2010-05-29T14:57:53Z</time>
      </trkpt>
      <trkpt lat="44.8796" lon="5.67669">
        <ele>565.39</ele>
        <time>2010-05-29T14:57:54Z</time>
      </trkpt>
      <trkpt lat="44.87965" lon="5.67667">
        <ele>565.87</ele>
        <time>2010-05-29T14:57:55Z</time>
      </trkpt>
      <trkpt lat="44.87969" lon="5.67666">
        <ele>565.87</ele>
        <time>2010-05-29T14:57:56Z</time>
      </trkpt>
      <trkpt lat="44.87973" lon="5.67663">
        <ele>566.83</ele>
        <time>2010-05-29T14:57:57Z</time>
      </trkpt>
      <trkpt lat="44.87977" lon="5.6766">
        <ele>566.35</ele>
        <time>2010-05-29T14:57:58Z</time>
      </trkpt>
      <trkpt lat="44.87979" lon="5.67658">
        <ele>566.83</ele>
        <time>2010-05-29T14:57:59Z</time>
      </trkpt>
      <trkpt lat="44.87983" lon="5.67656">
        <ele>567.32</ele>
        <time>2010-05-29T14:58:00Z</time>
      </trkpt>
      <trkpt lat="44.87993" lon="5.67649">
        <ele>569.24</ele>
        <time>2010-05-29T14:58:06Z</time>
      </trkpt>
      <trkpt lat="44.87992" lon="5.67649">
        <ele>569.24</ele>
        <time>2010-05-29T14:58:07Z</time>
      </trkpt>
      <trkpt lat="44.87986" lon="5.67655">
        <ele>570.2</ele>
        <time>2010-05-29T14:58:16Z</time>
      </trkpt>
      <trkpt lat="44.87971" lon="5.67654">
        <ele>573.08</ele>
        <time>2010-05-29T14:58:26Z</time>
      </trkpt>
      <trkpt lat="44.87963" lon="5.67653">
        <ele>574.04</ele>
        <time>2010-05-29T14:58:31Z</time>
      </trkpt>
      <trkpt lat="44.87961" lon="5.67652">
        <ele>575.01</ele>
        <time>2010-05-29T14:58:32Z</time>
      </trkpt>
      <trkpt lat="44.87948" lon="5.67649">
        <ele>576.45</ele>
        <time>2010-05-29T14:58:40Z</time>
      </trkpt>
      <trkpt lat="44.87932" lon="5.67647">
        <ele>578.37</ele>
        <time>2010-05-29T14:58:47Z</time>
      </trkpt>
      <trkpt lat="44.87926" lon="5.67646">
        <ele>578.85</ele>
        <time>2010-05-29T14:58:48Z</time>
      </trkpt>
      <trkpt lat="44.87901" lon="5.67644">
        <ele>581.73</ele>
        <time>2010-05-29T14:58:59Z</time>
      </trkpt>
      <trkpt lat="44.87878" lon="5.67637">
        <ele>584.62</ele>
        <time>2010-05-29T14:59:10Z</time>
      </trkpt>
      <trkpt lat="44.87876" lon="5.67635">
        <ele>585.58</ele>
        <time>2010-05-29T14:59:12Z</time>
      </trkpt>
      <trkpt lat="44.87854" lon="5.67631">
        <ele>588.46</ele>
        <time>2010-05-29T14:59:24Z</time>
      </trkpt>
      <trkpt lat="44.87841" lon="5.67626">
        <ele>589.91</ele>
        <time>2010-05-29T14:59:33Z</time>
      </trkpt>
      <trkpt lat="44.87816" lon="5.67621">
        <ele>591.83</ele>
        <time>2010-05-29T14:59:47Z</time>
      </trkpt>
      <trkpt lat="44.87808" lon="5.6762">
        <ele>591.83</ele>
        <time>2010-05-29T14:59:50Z</time>
      </trkpt>
      <trkpt lat="44.87785" lon="5.67611">
        <ele>593.75</ele>
        <time>2010-05-29T15:00:02Z</time>
      </trkpt>
      <trkpt lat="44.87773" lon="5.67606">
        <ele>595.19</ele>
        <time>2010-05-29T15:00:08Z</time>
      </trkpt>
      <trkpt lat="44.87768" lon="5.67604">
        <ele>595.19</ele>
        <time>2010-05-29T15:00:12Z</time>
      </trkpt>
      <trkpt lat="44.87754" lon="5.67606">
        <ele>596.64</ele>
        <time>2010-05-29T15:00:20Z</time>
      </trkpt>
      <trkpt lat="44.87744" lon="5.67605">
        <ele>598.08</ele>
        <time>2010-05-29T15:00:25Z</time>
      </trkpt>
      <trkpt lat="44.87729" lon="5.67602">
        <ele>599.52</ele>
        <time>2010-05-29T15:00:33Z</time>
      </trkpt>
      <trkpt lat="44.87715" lon="5.67601">
        <ele>599.52</ele>
        <time>2010-05-29T15:00:40Z</time>
      </trkpt>
      <trkpt lat="44.8769" lon="5.67594">
        <ele>600.96</ele>
        <time>2010-05-29T15:00:54Z</time>
      </trkpt>
      <trkpt lat="44.87687" lon="5.67594">
        <ele>600.96</ele>
        <time>2010-05-29T15:00:55Z</time>
      </trkpt>
      <trkpt lat="44.8767" lon="5.67595">
        <ele>602.88</ele>
        <time>2010-05-29T15:01:05Z</time>
      </trkpt>
      <trkpt lat="44.87657" lon="5.67594">
        <ele>603.85</ele>
        <time>2010-05-29T15:01:12Z</time>
      </trkpt>
      <trkpt lat="44.87642" lon="5.67587">
        <ele>606.25</ele>
        <time>2010-05-29T15:01:20Z</time>
      </trkpt>
      <trkpt lat="44.87634" lon="5.67583">
        <ele>606.25</ele>
        <time>2010-05-29T15:01:24Z</time>
      </trkpt>
      <trkpt lat="44.87612" lon="5.67583">
        <ele>609.61</ele>
        <time>2010-05-29T15:01:35Z</time>
      </trkpt>
      <trkpt lat="44.87609" lon="5.67583">
        <ele>609.61</ele>
        <time>2010-05-29T15:01:36Z</time>
      </trkpt>
      <trkpt lat="44.87602" lon="5.67582">
        <ele>610.57</ele>
        <time>2010-05-29T15:01:40Z</time>
      </trkpt>
      <trkpt lat="44.87596" lon="5.67582">
        <ele>611.54</ele>
        <time>2010-05-29T15:01:43Z</time>
      </trkpt>
      <trkpt lat="44.87589" lon="5.67581">
        <ele>612.02</ele>
        <time>2010-05-29T15:01:48Z</time>
      </trkpt>
      <trkpt lat="44.87567" lon="5.67576">
        <ele>612.98</ele>
        <time>2010-05-29T15:01:58Z</time>
      </trkpt>
      <trkpt lat="44.87554" lon="5.67574">
        <ele>614.42</ele>
        <time>2010-05-29T15:02:03Z</time>
      </trkpt>
      <trkpt lat="44.87542" lon="5.67571">
        <ele>616.34</ele>
        <time>2010-05-29T15:02:09Z</time>
      </trkpt>
      <trkpt lat="44.87535" lon="5.67576">
        <ele>616.34</ele>
        <time>2010-05-29T15:02:13Z</time>
      </trkpt>
      <trkpt lat="44.8751" lon="5.67566">
        <ele>618.26</ele>
        <time>2010-05-29T15:02:26Z</time>
      </trkpt>
      <trkpt lat="44.87493" lon="5.67563">
        <ele>619.23</ele>
        <time>2010-05-29T15:02:33Z</time>
      </trkpt>
      <trkpt lat="44.87479" lon="5.67558">
        <ele>621.15</ele>
        <time>2010-05-29T15:02:40Z</time>
      </trkpt>
      <trkpt lat="44.87469" lon="5.67552">
        <ele>622.11</ele>
        <time>2010-05-29T15:02:45Z</time>
      </trkpt>
      <trkpt lat="44.87462" lon="5.67547">
        <ele>623.07</ele>
        <time>2010-05-29T15:02:49Z</time>
      </trkpt>
      <trkpt lat="44.8745" lon="5.67544">
        <ele>623.55</ele>
        <time>2010-05-29T15:02:55Z</time>
      </trkpt>
      <trkpt lat="44.87442" lon="5.67542">
        <ele>623.55</ele>
        <time>2010-05-29T15:02:58Z</time>
      </trkpt>
      <trkpt lat="44.87434" lon="5.67538">
        <ele>624.51</ele>
        <time>2010-05-29T15:03:02Z</time>
      </trkpt>
      <trkpt lat="44.8742" lon="5.67527">
        <ele>628.36</ele>
        <time>2010-05-29T15:03:10Z</time>
      </trkpt>
      <trkpt lat="44.87418" lon="5.67525">
        <ele>628.84</ele>
        <time>2010-05-29T15:03:11Z</time>
      </trkpt>
      <trkpt lat="44.87417" lon="5.67524">
        <ele>629.32</ele>
        <time>2010-05-29T15:03:12Z</time>
      </trkpt>
      <trkpt lat="44.87412" lon="5.67522">
        <ele>631.24</ele>
        <time>2010-05-29T15:03:24Z</time>
      </trkpt>
      <trkpt lat="44.8741" lon="5.67522">
        <ele>633.17</ele>
        <time>2010-05-29T15:03:34Z</time>
      </trkpt>
      <trkpt lat="44.87406" lon="5.67517">
        <ele>634.61</ele>
        <time>2010-05-29T15:03:43Z</time>
      </trkpt>
      <trkpt lat="44.8741" lon="5.67514">
        <ele>637.01</ele>
        <time>2010-05-29T15:03:57Z</time>
      </trkpt>
      <trkpt lat="44.87405" lon="5.67514">
        <ele>639.41</ele>
        <time>2010-05-29T15:04:08Z</time>
      </trkpt>
      <trkpt lat="44.87404" lon="5.67513">
        <ele>639.89</ele>
        <time>2010-05-29T15:04:09Z</time>
      </trkpt>
      <trkpt lat="44.87401" lon="5.6751">
        <ele>642.78</ele>
        <time>2010-05-29T15:04:21Z</time>
      </trkpt>
      <trkpt lat="44.874" lon="5.67512">
        <ele>643.26</ele>
        <time>2010-05-29T15:04:24Z</time>
      </trkpt>
      <trkpt lat="44.87398" lon="5.67509">
        <ele>645.66</ele>
        <time>2010-05-29T15:04:35Z</time>
      </trkpt>
      <trkpt lat="44.87398" lon="5.67504">
        <ele>647.59</ele>
        <time>2010-05-29T15:05:07Z</time>
      </trkpt>
      <trkpt lat="44.87398" lon="5.67502">
        <ele>648.07</ele>
        <time>2010-05-29T15:05:21Z</time>
      </trkpt>
      <trkpt lat="44.87396" lon="5.67501">
        <ele>648.55</ele>
        <time>2010-05-29T15:05:25Z</time>
      </trkpt>
      <trkpt lat="44.87393" lon="5.67501">
        <ele>649.99</ele>
        <time>2010-05-29T15:05:28Z</time>
      </trkpt>
      <trkpt lat="44.87386" lon="5.67498">
        <ele>651.91</ele>
        <time>2010-05-29T15:05:39Z</time>
      </trkpt>
      <trkpt lat="44.87384" lon="5.67497">
        <ele>652.39</ele>
        <time>2010-05-29T15:05:42Z</time>
      </trkpt>
      <trkpt lat="44.87383" lon="5.67489">
        <ele>654.31</ele>
        <time>2010-05-29T15:05:54Z</time>
      </trkpt>
      <trkpt lat="44.87384" lon="5.67484">
        <ele>655.76</ele>
        <time>2010-05-29T15:05:58Z</time>
      </trkpt>
      <trkpt lat="44.87378" lon="5.67483">
        <ele>658.64</ele>
        <time>2010-05-29T15:06:21Z</time>
      </trkpt>
      <trkpt lat="44.87378" lon="5.67482">
        <ele>659.12</ele>
        <time>2010-05-29T15:06:40Z</time>
      </trkpt>
      <trkpt lat="44.87376" lon="5.67477">
        <ele>660.08</ele>
        <time>2010-05-29T15:06:44Z</time>
      </trkpt>
      <trkpt lat="44.87371" lon="5.67471">
        <ele>662.97</ele>
        <time>2010-05-29T15:06:53Z</time>
      </trkpt>
      <trkpt lat="44.87368" lon="5.67464">
        <ele>665.37</ele>
        <time>2010-05-29T15:07:02Z</time>
      </trkpt>
      <trkpt lat="44.87364" lon="5.67463">
        <ele>666.81</ele>
        <time>2010-05-29T15:07:13Z</time>
      </trkpt>
      <trkpt lat="44.87357" lon="5.67456">
        <ele>670.18</ele>
        <time>2010-05-29T15:07:28Z</time>
      </trkpt>
      <trkpt lat="44.87354" lon="5.6745">
        <ele>672.58</ele>
        <time>2010-05-29T15:07:38Z</time>
      </trkpt>
      <trkpt lat="44.8735" lon="5.67444">
        <ele>673.54</ele>
        <time>2010-05-29T15:07:48Z</time>
      </trkpt>
      <trkpt lat="44.87348" lon="5.6744">
        <ele>675.46</ele>
        <time>2010-05-29T15:07:54Z</time>
      </trkpt>
      <trkpt lat="44.8734" lon="5.67431">
        <ele>677.87</ele>
        <time>2010-05-29T15:08:06Z</time>
      </trkpt>
      <trkpt lat="44.87339" lon="5.67429">
        <ele>678.83</ele>
        <time>2010-05-29T15:08:09Z</time>
      </trkpt>
      <trkpt lat="44.87337" lon="5.67428">
        <ele>679.31</ele>
        <time>2010-05-29T15:08:12Z</time>
      </trkpt>
      <trkpt lat="44.87329" lon="5.67419">
        <ele>681.23</ele>
        <time>2010-05-29T15:08:23Z</time>
      </trkpt>
      <trkpt lat="44.87328" lon="5.67418">
        <ele>681.23</ele>
        <time>2010-05-29T15:08:25Z</time>
      </trkpt>
      <trkpt lat="44.87324" lon="5.67414">
        <ele>682.19</ele>
        <time>2010-05-29T15:08:29Z</time>
      </trkpt>
      <trkpt lat="44.87315" lon="5.67407">
        <ele>684.12</ele>
        <time>2010-05-29T15:08:40Z</time>
      </trkpt>
      <trkpt lat="44.87314" lon="5.67403">
        <ele>684.6</ele>
        <time>2010-05-29T15:08:44Z</time>
      </trkpt>
      <trkpt lat="44.87311" lon="5.67398">
        <ele>685.56</ele>
        <time>2010-05-29T15:08:57Z</time>
      </trkpt>
      <trkpt lat="44.87301" lon="5.67388">
        <ele>687</ele>
        <time>2010-05-29T15:15:30Z</time>
      </trkpt>
      <trkpt lat="44.873" lon="5.67388">
        <ele>687</ele>
        <time>2010-05-29T15:15:31Z</time>
      </trkpt>
      <trkpt lat="44.87291" lon="5.67378">
        <ele>688.44</ele>
        <time>2010-05-29T15:15:42Z</time>
      </trkpt>
      <trkpt lat="44.87289" lon="5.67374">
        <ele>688.92</ele>
        <time>2010-05-29T15:15:53Z</time>
      </trkpt>
      <trkpt lat="44.87285" lon="5.67366">
        <ele>690.36</ele>
        <time>2010-05-29T15:16:12Z</time>
      </trkpt>
      <trkpt lat="44.87281" lon="5.67357">
        <ele>692.77</ele>
        <time>2010-05-29T15:16:23Z</time>
      </trkpt>
      <trkpt lat="44.87278" lon="5.67357">
        <ele>692.77</ele>
        <time>2010-05-29T15:16:33Z</time>
      </trkpt>
      <trkpt lat="44.87278" lon="5.67356">
        <ele>692.77</ele>
        <time>2010-05-29T15:16:51Z</time>
      </trkpt>
      <trkpt lat="44.87279" lon="5.67356">
        <ele>693.25</ele>
        <time>2010-05-29T15:17:05Z</time>
      </trkpt>
      <trkpt lat="44.87281" lon="5.67351">
        <ele>693.73</ele>
        <time>2010-05-29T15:17:28Z</time>
      </trkpt>
      <trkpt lat="44.87281" lon="5.67351">
        <ele>693.25</ele>
        <time>2010-05-29T15:17:48Z</time>
      </trkpt>
      <trkpt lat="44.87283" lon="5.67351">
        <ele>696.61</ele>
        <time>2010-05-29T15:20:47Z</time>
      </trkpt>
      <trkpt lat="44.87283" lon="5.67351">
        <ele>692.77</ele>
        <time>2010-05-29T15:20:48Z</time>
      </trkpt>
      <trkpt lat="44.8728" lon="5.67355">
        <ele>693.25</ele>
        <time>2010-05-29T15:21:10Z</time>
      </trkpt>
      <trkpt lat="44.8728" lon="5.67355">
        <ele>693.73</ele>
        <time>2010-05-29T15:21:17Z</time>
      </trkpt>
      <trkpt lat="44.87284" lon="5.6735">
        <ele>693.25</ele>
        <time>2010-05-29T15:21:25Z</time>
      </trkpt>
      <trkpt lat="44.87287" lon="5.67352">
        <ele>694.69</ele>
        <time>2010-05-29T15:21:30Z</time>
      </trkpt>
      <trkpt lat="44.87291" lon="5.67353">
        <ele>696.13</ele>
        <time>2010-05-29T15:21:36Z</time>
      </trkpt>
      <trkpt lat="44.87295" lon="5.67357">
        <ele>698.05</ele>
        <time>2010-05-29T15:21:47Z</time>
      </trkpt>
      <trkpt lat="44.87299" lon="5.67359">
        <ele>699.02</ele>
        <time>2010-05-29T15:21:58Z</time>
      </trkpt>
      <trkpt lat="44.87299" lon="5.67359">
        <ele>700.46</ele>
        <time>2010-05-29T15:22:01Z</time>
      </trkpt>
      <trkpt lat="44.87308" lon="5.6736">
        <ele>702.38</ele>
        <time>2010-05-29T15:22:13Z</time>
      </trkpt>
      <trkpt lat="44.87315" lon="5.67361">
        <ele>704.78</ele>
        <time>2010-05-29T15:22:27Z</time>
      </trkpt>
      <trkpt lat="44.87326" lon="5.67359">
        <ele>707.67</ele>
        <time>2010-05-29T15:22:41Z</time>
      </trkpt>
      <trkpt lat="44.87326" lon="5.67359">
        <ele>708.15</ele>
        <time>2010-05-29T15:22:43Z</time>
      </trkpt>
      <trkpt lat="44.87335" lon="5.67364">
        <ele>710.55</ele>
        <time>2010-05-29T15:22:58Z</time>
      </trkpt>
      <trkpt lat="44.8734" lon="5.67364">
        <ele>711.99</ele>
        <time>2010-05-29T15:23:10Z</time>
      </trkpt>
      <trkpt lat="44.87348" lon="5.67363">
        <ele>713.92</ele>
        <time>2010-05-29T15:23:21Z</time>
      </trkpt>
      <trkpt lat="44.87352" lon="5.67364">
        <ele>715.36</ele>
        <time>2010-05-29T15:23:28Z</time>
      </trkpt>
      <trkpt lat="44.87363" lon="5.67367">
        <ele>718.24</ele>
        <time>2010-05-29T15:23:42Z</time>
      </trkpt>
      <trkpt lat="44.87367" lon="5.67368">
        <ele>718.72</ele>
        <time>2010-05-29T15:23:47Z</time>
      </trkpt>
      <trkpt lat="44.87376" lon="5.6737">
        <ele>721.13</ele>
        <time>2010-05-29T15:24:00Z</time>
      </trkpt>
      <trkpt lat="44.87386" lon="5.67377">
        <ele>723.05</ele>
        <time>2010-05-29T15:24:15Z</time>
      </trkpt>
      <trkpt lat="44.87392" lon="5.67378">
        <ele>725.45</ele>
        <time>2010-05-29T15:24:26Z</time>
      </trkpt>
      <trkpt lat="44.87399" lon="5.67381">
        <ele>728.34</ele>
        <time>2010-05-29T15:24:39Z</time>
      </trkpt>
      <trkpt lat="44.87406" lon="5.67384">
        <ele>730.26</ele>
        <time>2010-05-29T15:24:51Z</time>
      </trkpt>
      <trkpt lat="44.87412" lon="5.67384">
        <ele>731.7</ele>
        <time>2010-05-29T15:25:02Z</time>
      </trkpt>
      <trkpt lat="44.87423" lon="5.67387">
        <ele>734.1</ele>
        <time>2010-05-29T15:25:16Z</time>
      </trkpt>
      <trkpt lat="44.8743" lon="5.67388">
        <ele>736.03</ele>
        <time>2010-05-29T15:25:28Z</time>
      </trkpt>
      <trkpt lat="44.8744" lon="5.67392">
        <ele>738.43</ele>
        <time>2010-05-29T15:25:41Z</time>
      </trkpt>
      <trkpt lat="44.87446" lon="5.67395">
        <ele>739.39</ele>
        <time>2010-05-29T15:25:53Z</time>
      </trkpt>
      <trkpt lat="44.87446" lon="5.67395">
        <ele>738.43</ele>
        <time>2010-05-29T15:25:59Z</time>
      </trkpt>
      <trkpt lat="44.87446" lon="5.67394">
        <ele>739.87</ele>
        <time>2010-05-29T15:26:04Z</time>
      </trkpt>
      <trkpt lat="44.8745" lon="5.67396">
        <ele>741.79</ele>
        <time>2010-05-29T15:26:27Z</time>
      </trkpt>
      <trkpt lat="44.8747" lon="5.67403">
        <ele>745.64</ele>
        <time>2010-05-29T15:26:40Z</time>
      </trkpt>
      <trkpt lat="44.87476" lon="5.67403">
        <ele>745.64</ele>
        <time>2010-05-29T15:26:46Z</time>
      </trkpt>
      <trkpt lat="44.87482" lon="5.67404">
        <ele>746.6</ele>
        <time>2010-05-29T15:26:52Z</time>
      </trkpt>
      <trkpt lat="44.87496" lon="5.67399">
        <ele>748.52</ele>
        <time>2010-05-29T15:27:02Z</time>
      </trkpt>
      <trkpt lat="44.87506" lon="5.67401">
        <ele>750.45</ele>
        <time>2010-05-29T15:27:09Z</time>
      </trkpt>
      <trkpt lat="44.87511" lon="5.67398">
        <ele>751.41</ele>
        <time>2010-05-29T15:27:13Z</time>
      </trkpt>
      <trkpt lat="44.87512" lon="5.67395">
        <ele>749.97</ele>
        <time>2010-05-29T15:27:15Z</time>
      </trkpt>
      <trkpt lat="44.87513" lon="5.67394">
        <ele>750.45</ele>
        <time>2010-05-29T15:27:17Z</time>
      </trkpt>
      <trkpt lat="44.87512" lon="5.67391">
        <ele>750.45</ele>
        <time>2010-05-29T15:27:19Z</time>
      </trkpt>
      <trkpt lat="44.87524" lon="5.67373">
        <ele>749.97</ele>
        <time>2010-05-29T15:27:31Z</time>
      </trkpt>
      <trkpt lat="44.87526" lon="5.6737">
        <ele>749.49</ele>
        <time>2010-05-29T15:27:33Z</time>
      </trkpt>
      <trkpt lat="44.87539" lon="5.67352">
        <ele>746.6</ele>
        <time>2010-05-29T15:27:47Z</time>
      </trkpt>
      <trkpt lat="44.87544" lon="5.67349">
        <ele>746.6</ele>
        <time>2010-05-29T15:27:53Z</time>
      </trkpt>
      <trkpt lat="44.87552" lon="5.6735">
        <ele>749</ele>
        <time>2010-05-29T15:28:08Z</time>
      </trkpt>
      <trkpt lat="44.87558" lon="5.67352">
        <ele>750.45</ele>
        <time>2010-05-29T15:28:21Z</time>
      </trkpt>
      <trkpt lat="44.87557" lon="5.67356">
        <ele>751.89</ele>
        <time>2010-05-29T15:28:30Z</time>
      </trkpt>
      <trkpt lat="44.87557" lon="5.67359">
        <ele>753.33</ele>
        <time>2010-05-29T15:28:44Z</time>
      </trkpt>
      <trkpt lat="44.87559" lon="5.67358">
        <ele>753.33</ele>
        <time>2010-05-29T15:29:02Z</time>
      </trkpt>
      <trkpt lat="44.87562" lon="5.67358">
        <ele>754.29</ele>
        <time>2010-05-29T15:29:09Z</time>
      </trkpt>
      <trkpt lat="44.87572" lon="5.67354">
        <ele>753.81</ele>
        <time>2010-05-29T15:29:18Z</time>
      </trkpt>
      <trkpt lat="44.87574" lon="5.67351">
        <ele>754.29</ele>
        <time>2010-05-29T15:29:39Z</time>
      </trkpt>
      <trkpt lat="44.87578" lon="5.6735">
        <ele>754.29</ele>
        <time>2010-05-29T15:29:51Z</time>
      </trkpt>
      <trkpt lat="44.8759" lon="5.67343">
        <ele>754.77</ele>
        <time>2010-05-29T15:30:04Z</time>
      </trkpt>
      <trkpt lat="44.87595" lon="5.67339">
        <ele>756.21</ele>
        <time>2010-05-29T15:30:09Z</time>
      </trkpt>
      <trkpt lat="44.87602" lon="5.67343">
        <ele>757.66</ele>
        <time>2010-05-29T15:30:20Z</time>
      </trkpt>
      <trkpt lat="44.87608" lon="5.67344">
        <ele>760.06</ele>
        <time>2010-05-29T15:30:36Z</time>
      </trkpt>
      <trkpt lat="44.8761" lon="5.67346">
        <ele>759.1</ele>
        <time>2010-05-29T15:30:55Z</time>
      </trkpt>
      <trkpt lat="44.87611" lon="5.67351">
        <ele>759.58</ele>
        <time>2010-05-29T15:31:07Z</time>
      </trkpt>
      <trkpt lat="44.87611" lon="5.67351">
        <ele>759.1</ele>
        <time>2010-05-29T15:31:19Z</time>
      </trkpt>
      <trkpt lat="44.87608" lon="5.67355">
        <ele>759.58</ele>
        <time>2010-05-29T15:31:46Z</time>
      </trkpt>
      <trkpt lat="44.87608" lon="5.67355">
        <ele>759.58</ele>
        <time>2010-05-29T15:31:47Z</time>
      </trkpt>
      <trkpt lat="44.87604" lon="5.6736">
        <ele>759.58</ele>
        <time>2010-05-29T15:32:00Z</time>
      </trkpt>
      <trkpt lat="44.87601" lon="5.67371">
        <ele>760.06</ele>
        <time>2010-05-29T15:32:13Z</time>
      </trkpt>
      <trkpt lat="44.87601" lon="5.67373">
        <ele>760.54</ele>
        <time>2010-05-29T15:32:28Z</time>
      </trkpt>
      <trkpt lat="44.87603" lon="5.67367">
        <ele>758.62</ele>
        <time>2010-05-29T15:32:37Z</time>
      </trkpt>
      <trkpt lat="44.87607" lon="5.67355">
        <ele>758.62</ele>
        <time>2010-05-29T15:32:46Z</time>
      </trkpt>
      <trkpt lat="44.87611" lon="5.67349">
        <ele>760.06</ele>
        <time>2010-05-29T15:32:56Z</time>
      </trkpt>
      <trkpt lat="44.87616" lon="5.67343">
        <ele>760.54</ele>
        <time>2010-05-29T15:33:07Z</time>
      </trkpt>
      <trkpt lat="44.87638" lon="5.67348">
        <ele>763.42</ele>
        <time>2010-05-29T15:33:21Z</time>
      </trkpt>
      <trkpt lat="44.87642" lon="5.67349">
        <ele>764.87</ele>
        <time>2010-05-29T15:33:24Z</time>
      </trkpt>
      <trkpt lat="44.8766" lon="5.6734">
        <ele>766.79</ele>
        <time>2010-05-29T15:33:36Z</time>
      </trkpt>
      <trkpt lat="44.87677" lon="5.67331">
        <ele>769.67</ele>
        <time>2010-05-29T15:33:48Z</time>
      </trkpt>
      <trkpt lat="44.87698" lon="5.67321">
        <ele>772.56</ele>
        <time>2010-05-29T15:34:03Z</time>
      </trkpt>
      <trkpt lat="44.87716" lon="5.6731">
        <ele>775.92</ele>
        <time>2010-05-29T15:34:16Z</time>
      </trkpt>
      <trkpt lat="44.87717" lon="5.67309">
        <ele>775.44</ele>
        <time>2010-05-29T15:34:17Z</time>
      </trkpt>
      <trkpt lat="44.87734" lon="5.67301">
        <ele>779.29</ele>
        <time>2010-05-29T15:34:29Z</time>
      </trkpt>
      <trkpt lat="44.87748" lon="5.67296">
        <ele>782.17</ele>
        <time>2010-05-29T15:34:39Z</time>
      </trkpt>
      <trkpt lat="44.87758" lon="5.67279">
        <ele>784.57</ele>
        <time>2010-05-29T15:34:51Z</time>
      </trkpt>
      <trkpt lat="44.87759" lon="5.67269">
        <ele>784.57</ele>
        <time>2010-05-29T15:34:56Z</time>
      </trkpt>
      <trkpt lat="44.87766" lon="5.67227">
        <ele>787.46</ele>
        <time>2010-05-29T15:35:14Z</time>
      </trkpt>
      <trkpt lat="44.87773" lon="5.67186">
        <ele>789.86</ele>
        <time>2010-05-29T15:35:29Z</time>
      </trkpt>
      <trkpt lat="44.87779" lon="5.67142">
        <ele>790.82</ele>
        <time>2010-05-29T15:35:44Z</time>
      </trkpt>
      <trkpt lat="44.87776" lon="5.67087">
        <ele>791.3</ele>
        <time>2010-05-29T15:35:58Z</time>
      </trkpt>
      <trkpt lat="44.87763" lon="5.67014">
        <ele>792.26</ele>
        <time>2010-05-29T15:36:14Z</time>
      </trkpt>
      <trkpt lat="44.87739" lon="5.6695">
        <ele>793.71</ele>
        <time>2010-05-29T15:36:30Z</time>
      </trkpt>
      <trkpt lat="44.87707" lon="5.66903">
        <ele>794.19</ele>
        <time>2010-05-29T15:36:42Z</time>
      </trkpt>
      <trkpt lat="44.87683" lon="5.66861">
        <ele>796.59</ele>
        <time>2010-05-29T15:36:55Z</time>
      </trkpt>
      <trkpt lat="44.87684" lon="5.66857">
        <ele>796.11</ele>
        <time>2010-05-29T15:37:05Z</time>
      </trkpt>
      <trkpt lat="44.87685" lon="5.66856">
        <ele>797.07</ele>
        <time>2010-05-29T15:37:08Z</time>
      </trkpt>
      <trkpt lat="44.87687" lon="5.66854">
        <ele>797.07</ele>
        <time>2010-05-29T15:37:22Z</time>
      </trkpt>
      <trkpt lat="44.87687" lon="5.66855">
        <ele>798.03</ele>
        <time>2010-05-29T15:37:43Z</time>
      </trkpt>
      <trkpt lat="44.87698" lon="5.66865">
        <ele>799.95</ele>
        <time>2010-05-29T15:37:57Z</time>
      </trkpt>
      <trkpt lat="44.877" lon="5.66865">
        <ele>800.44</ele>
        <time>2010-05-29T15:37:59Z</time>
      </trkpt>
      <trkpt lat="44.87708" lon="5.66867">
        <ele>801.88</ele>
        <time>2010-05-29T15:38:18Z</time>
      </trkpt>
      <trkpt lat="44.87708" lon="5.66868">
        <ele>801.88</ele>
        <time>2010-05-29T15:40:26Z</time>
      </trkpt>
      <trkpt lat="44.87717" lon="5.66872">
        <ele>803.32</ele>
        <time>2010-05-29T15:42:18Z</time>
      </trkpt>
      <trkpt lat="44.87742" lon="5.66878">
        <ele>805.24</ele>
        <time>2010-05-29T15:42:31Z</time>
      </trkpt>
      <trkpt lat="44.87762" lon="5.66887">
        <ele>808.13</ele>
        <time>2010-05-29T15:42:40Z</time>
      </trkpt>
      <trkpt lat="44.87778" lon="5.66892">
        <ele>808.61</ele>
        <time>2010-05-29T15:42:48Z</time>
      </trkpt>
      <trkpt lat="44.87802" lon="5.66912">
        <ele>811.97</ele>
        <time>2010-05-29T15:43:02Z</time>
      </trkpt>
      <trkpt lat="44.87822" lon="5.66944">
        <ele>814.85</ele>
        <time>2010-05-29T15:43:18Z</time>
      </trkpt>
      <trkpt lat="44.87838" lon="5.66977">
        <ele>818.22</ele>
        <time>2010-05-29T15:43:33Z</time>
      </trkpt>
      <trkpt lat="44.87846" lon="5.67011">
        <ele>820.62</ele>
        <time>2010-05-29T15:43:47Z</time>
      </trkpt>
      <trkpt lat="44.87856" lon="5.67057">
        <ele>819.66</ele>
        <time>2010-05-29T15:44:00Z</time>
      </trkpt>
      <trkpt lat="44.8788" lon="5.67068">
        <ele>818.7</ele>
        <time>2010-05-29T15:44:10Z</time>
      </trkpt>
      <trkpt lat="44.87913" lon="5.67049">
        <ele>817.74</ele>
        <time>2010-05-29T15:44:21Z</time>
      </trkpt>
      <trkpt lat="44.87921" lon="5.67045">
        <ele>816.78</ele>
        <time>2010-05-29T15:44:23Z</time>
      </trkpt>
      <trkpt lat="44.87926" lon="5.67042">
        <ele>816.78</ele>
        <time>2010-05-29T15:44:24Z</time>
      </trkpt>
      <trkpt lat="44.8794" lon="5.67035">
        <ele>814.37</ele>
        <time>2010-05-29T15:44:27Z</time>
      </trkpt>
      <trkpt lat="44.8795" lon="5.67029">
        <ele>812.93</ele>
        <time>2010-05-29T15:44:29Z</time>
      </trkpt>
      <trkpt lat="44.87955" lon="5.67025">
        <ele>812.93</ele>
        <time>2010-05-29T15:44:30Z</time>
      </trkpt>
      <trkpt lat="44.87964" lon="5.67016">
        <ele>811.49</ele>
        <time>2010-05-29T15:44:32Z</time>
      </trkpt>
      <trkpt lat="44.87969" lon="5.67011">
        <ele>811.49</ele>
        <time>2010-05-29T15:44:33Z</time>
      </trkpt>
      <trkpt lat="44.87973" lon="5.67004">
        <ele>810.05</ele>
        <time>2010-05-29T15:44:34Z</time>
      </trkpt>
      <trkpt lat="44.87976" lon="5.66997">
        <ele>810.05</ele>
        <time>2010-05-29T15:44:35Z</time>
      </trkpt>
      <trkpt lat="44.8798" lon="5.6699">
        <ele>808.61</ele>
        <time>2010-05-29T15:44:36Z</time>
      </trkpt>
      <trkpt lat="44.87989" lon="5.66968">
        <ele>807.64</ele>
        <time>2010-05-29T15:44:39Z</time>
      </trkpt>
      <trkpt lat="44.87993" lon="5.66962">
        <ele>807.16</ele>
        <time>2010-05-29T15:44:40Z</time>
      </trkpt>
      <trkpt lat="44.87997" lon="5.66956">
        <ele>807.16</ele>
        <time>2010-05-29T15:44:41Z</time>
      </trkpt>
      <trkpt lat="44.88002" lon="5.6695">
        <ele>806.2</ele>
        <time>2010-05-29T15:44:42Z</time>
      </trkpt>
      <trkpt lat="44.88008" lon="5.66945">
        <ele>805.72</ele>
        <time>2010-05-29T15:44:43Z</time>
      </trkpt>
      <trkpt lat="44.88012" lon="5.66942">
        <ele>806.2</ele>
        <time>2010-05-29T15:44:44Z</time>
      </trkpt>
      <trkpt lat="44.88016" lon="5.66939">
        <ele>805.72</ele>
        <time>2010-05-29T15:44:45Z</time>
      </trkpt>
      <trkpt lat="44.88021" lon="5.66937">
        <ele>805.72</ele>
        <time>2010-05-29T15:44:46Z</time>
      </trkpt>
      <trkpt lat="44.88025" lon="5.66935">
        <ele>805.72</ele>
        <time>2010-05-29T15:44:47Z</time>
      </trkpt>
      <trkpt lat="44.88029" lon="5.66934">
        <ele>806.2</ele>
        <time>2010-05-29T15:44:48Z</time>
      </trkpt>
      <trkpt lat="44.88032" lon="5.66934">
        <ele>806.2</ele>
        <time>2010-05-29T15:44:49Z</time>
      </trkpt>
      <trkpt lat="44.88035" lon="5.66933">
        <ele>806.2</ele>
        <time>2010-05-29T15:44:50Z</time>
      </trkpt>
      <trkpt lat="44.88037" lon="5.66931">
        <ele>805.72</ele>
        <time>2010-05-29T15:44:51Z</time>
      </trkpt>
      <trkpt lat="44.88039" lon="5.66929">
        <ele>805.72</ele>
        <time>2010-05-29T15:44:52Z</time>
      </trkpt>
      <trkpt lat="44.88042" lon="5.66928">
        <ele>805.24</ele>
        <time>2010-05-29T15:44:53Z</time>
      </trkpt>
      <trkpt lat="44.88044" lon="5.66927">
        <ele>804.76</ele>
        <time>2010-05-29T15:44:54Z</time>
      </trkpt>
      <trkpt lat="44.88047" lon="5.66925">
        <ele>805.24</ele>
        <time>2010-05-29T15:44:55Z</time>
      </trkpt>
      <trkpt lat="44.8805" lon="5.66924">
        <ele>805.24</ele>
        <time>2010-05-29T15:44:56Z</time>
      </trkpt>
      <trkpt lat="44.88054" lon="5.66923">
        <ele>804.76</ele>
        <time>2010-05-29T15:44:57Z</time>
      </trkpt>
      <trkpt lat="44.88058" lon="5.66922">
        <ele>804.76</ele>
        <time>2010-05-29T15:44:58Z</time>
      </trkpt>
      <trkpt lat="44.88061" lon="5.6692">
        <ele>804.76</ele>
        <time>2010-05-29T15:44:59Z</time>
      </trkpt>
      <trkpt lat="44.88065" lon="5.66918">
        <ele>804.76</ele>
        <time>2010-05-29T15:45:00Z</time>
      </trkpt>
      <trkpt lat="44.88069" lon="5.66916">
        <ele>804.76</ele>
        <time>2010-05-29T15:45:01Z</time>
      </trkpt>
      <trkpt lat="44.88073" lon="5.66913">
        <ele>804.28</ele>
        <time>2010-05-29T15:45:02Z</time>
      </trkpt>
      <trkpt lat="44.88078" lon="5.66913">
        <ele>804.28</ele>
        <time>2010-05-29T15:45:03Z</time>
      </trkpt>
      <trkpt lat="44.88088" lon="5.66913">
        <ele>803.8</ele>
        <time>2010-05-29T15:45:05Z</time>
      </trkpt>
      <trkpt lat="44.88094" lon="5.66912">
        <ele>802.84</ele>
        <time>2010-05-29T15:45:06Z</time>
      </trkpt>
      <trkpt lat="44.881" lon="5.6691">
        <ele>801.88</ele>
        <time>2010-05-29T15:45:07Z</time>
      </trkpt>
      <trkpt lat="44.88106" lon="5.66908">
        <ele>801.88</ele>
        <time>2010-05-29T15:45:08Z</time>
      </trkpt>
      <trkpt lat="44.88112" lon="5.66907">
        <ele>801.88</ele>
        <time>2010-05-29T15:45:09Z</time>
      </trkpt>
      <trkpt lat="44.88118" lon="5.66905">
        <ele>800.44</ele>
        <time>2010-05-29T15:45:10Z</time>
      </trkpt>
      <trkpt lat="44.88132" lon="5.66905">
        <ele>799.95</ele>
        <time>2010-05-29T15:45:12Z</time>
      </trkpt>
      <trkpt lat="44.8814" lon="5.66904">
        <ele>798.03</ele>
        <time>2010-05-29T15:45:13Z</time>
      </trkpt>
      <trkpt lat="44.88147" lon="5.66902">
        <ele>797.55</ele>
        <time>2010-05-29T15:45:14Z</time>
      </trkpt>
      <trkpt lat="44.88154" lon="5.669">
        <ele>797.07</ele>
        <time>2010-05-29T15:45:15Z</time>
      </trkpt>
      <trkpt lat="44.88159" lon="5.66896">
        <ele>797.07</ele>
        <time>2010-05-29T15:45:16Z</time>
      </trkpt>
      <trkpt lat="44.88165" lon="5.66892">
        <ele>796.11</ele>
        <time>2010-05-29T15:45:17Z</time>
      </trkpt>
      <trkpt lat="44.88175" lon="5.66882">
        <ele>794.19</ele>
        <time>2010-05-29T15:45:19Z</time>
      </trkpt>
      <trkpt lat="44.8818" lon="5.66878">
        <ele>793.71</ele>
        <time>2010-05-29T15:45:20Z</time>
      </trkpt>
      <trkpt lat="44.88185" lon="5.66873">
        <ele>792.74</ele>
        <time>2010-05-29T15:45:21Z</time>
      </trkpt>
      <trkpt lat="44.88189" lon="5.66867">
        <ele>792.74</ele>
        <time>2010-05-29T15:45:22Z</time>
      </trkpt>
      <trkpt lat="44.88194" lon="5.66861">
        <ele>790.82</ele>
        <time>2010-05-29T15:45:23Z</time>
      </trkpt>
      <trkpt lat="44.88202" lon="5.66849">
        <ele>787.94</ele>
        <time>2010-05-29T15:45:25Z</time>
      </trkpt>
      <trkpt lat="44.88206" lon="5.66844">
        <ele>788.9</ele>
        <time>2010-05-29T15:45:26Z</time>
      </trkpt>
      <trkpt lat="44.88211" lon="5.66839">
        <ele>787.46</ele>
        <time>2010-05-29T15:45:27Z</time>
      </trkpt>
      <trkpt lat="44.88217" lon="5.66835">
        <ele>787.46</ele>
        <time>2010-05-29T15:45:28Z</time>
      </trkpt>
      <trkpt lat="44.88229" lon="5.66824">
        <ele>786.02</ele>
        <time>2010-05-29T15:45:30Z</time>
      </trkpt>
      <trkpt lat="44.88239" lon="5.66814">
        <ele>785.53</ele>
        <time>2010-05-29T15:45:32Z</time>
      </trkpt>
      <trkpt lat="44.88249" lon="5.66806">
        <ele>784.09</ele>
        <time>2010-05-29T15:45:34Z</time>
      </trkpt>
      <trkpt lat="44.88255" lon="5.66801">
        <ele>782.65</ele>
        <time>2010-05-29T15:45:35Z</time>
      </trkpt>
      <trkpt lat="44.8826" lon="5.66794">
        <ele>782.65</ele>
        <time>2010-05-29T15:45:36Z</time>
      </trkpt>
      <trkpt lat="44.88264" lon="5.66788">
        <ele>782.17</ele>
        <time>2010-05-29T15:45:37Z</time>
      </trkpt>
      <trkpt lat="44.88272" lon="5.66774">
        <ele>782.17</ele>
        <time>2010-05-29T15:45:39Z</time>
      </trkpt>
      <trkpt lat="44.88275" lon="5.66767">
        <ele>782.17</ele>
        <time>2010-05-29T15:45:40Z</time>
      </trkpt>
      <trkpt lat="44.88278" lon="5.66761">
        <ele>783.61</ele>
        <time>2010-05-29T15:45:41Z</time>
      </trkpt>
      <trkpt lat="44.8828" lon="5.66754">
        <ele>783.61</ele>
        <time>2010-05-29T15:45:42Z</time>
      </trkpt>
      <trkpt lat="44.88282" lon="5.66748">
        <ele>784.57</ele>
        <time>2010-05-29T15:45:43Z</time>
      </trkpt>
      <trkpt lat="44.88283" lon="5.66732">
        <ele>785.05</ele>
        <time>2010-05-29T15:45:46Z</time>
      </trkpt>
      <trkpt lat="44.88286" lon="5.66709">
        <ele>781.21</ele>
        <time>2010-05-29T15:45:50Z</time>
      </trkpt>
      <trkpt lat="44.88292" lon="5.66692">
        <ele>777.84</ele>
        <time>2010-05-29T15:45:54Z</time>
      </trkpt>
      <trkpt lat="44.88295" lon="5.66683">
        <ele>776.88</ele>
        <time>2010-05-29T15:46:06Z</time>
      </trkpt>
      <trkpt lat="44.88298" lon="5.66676">
        <ele>777.36</ele>
        <time>2010-05-29T15:46:27Z</time>
      </trkpt>
      <trkpt lat="44.88298" lon="5.66672">
        <ele>778.32</ele>
        <time>2010-05-29T15:46:32Z</time>
      </trkpt>
      <trkpt lat="44.88325" lon="5.66693">
        <ele>777.36</ele>
        <time>2010-05-29T15:46:44Z</time>
      </trkpt>
      <trkpt lat="44.88334" lon="5.66694">
        <ele>776.88</ele>
        <time>2010-05-29T15:46:59Z</time>
      </trkpt>
      <trkpt lat="44.88342" lon="5.66698">
        <ele>776.4</ele>
        <time>2010-05-29T15:47:02Z</time>
      </trkpt>
      <trkpt lat="44.88363" lon="5.6671">
        <ele>774.48</ele>
        <time>2010-05-29T15:47:10Z</time>
      </trkpt>
      <trkpt lat="44.88372" lon="5.66712">
        <ele>775.92</ele>
        <time>2010-05-29T15:47:13Z</time>
      </trkpt>
      <trkpt lat="44.88377" lon="5.66712">
        <ele>776.88</ele>
        <time>2010-05-29T15:47:15Z</time>
      </trkpt>
      <trkpt lat="44.88392" lon="5.66707">
        <ele>777.36</ele>
        <time>2010-05-29T15:47:21Z</time>
      </trkpt>
      <trkpt lat="44.88405" lon="5.66702">
        <ele>778.81</ele>
        <time>2010-05-29T15:47:25Z</time>
      </trkpt>
      <trkpt lat="44.88426" lon="5.66686">
        <ele>776.4</ele>
        <time>2010-05-29T15:47:32Z</time>
      </trkpt>
      <trkpt lat="44.88432" lon="5.66678">
        <ele>774</ele>
        <time>2010-05-29T15:47:34Z</time>
      </trkpt>
      <trkpt lat="44.8844" lon="5.66666">
        <ele>772.08</ele>
        <time>2010-05-29T15:47:37Z</time>
      </trkpt>
      <trkpt lat="44.88454" lon="5.66674">
        <ele>774.96</ele>
        <time>2010-05-29T15:47:45Z</time>
      </trkpt>
      <trkpt lat="44.88456" lon="5.66676">
        <ele>776.4</ele>
        <time>2010-05-29T15:47:46Z</time>
      </trkpt>
      <trkpt lat="44.88462" lon="5.66678">
        <ele>775.92</ele>
        <time>2010-05-29T15:47:49Z</time>
      </trkpt>
      <trkpt lat="44.88468" lon="5.66679">
        <ele>778.32</ele>
        <time>2010-05-29T15:47:53Z</time>
      </trkpt>
      <trkpt lat="44.88477" lon="5.66678">
        <ele>780.25</ele>
        <time>2010-05-29T15:48:00Z</time>
      </trkpt>
      <trkpt lat="44.88482" lon="5.66678">
        <ele>780.73</ele>
        <time>2010-05-29T15:48:04Z</time>
      </trkpt>
      <trkpt lat="44.88483" lon="5.66678">
        <ele>781.21</ele>
        <time>2010-05-29T15:48:05Z</time>
      </trkpt>
      <trkpt lat="44.8849" lon="5.66679">
        <ele>783.13</ele>
        <time>2010-05-29T15:48:10Z</time>
      </trkpt>
      <trkpt lat="44.885" lon="5.66682">
        <ele>785.05</ele>
        <time>2010-05-29T15:48:21Z</time>
      </trkpt>
      <trkpt lat="44.88508" lon="5.66683">
        <ele>786.5</ele>
        <time>2010-05-29T15:48:27Z</time>
      </trkpt>
      <trkpt lat="44.88521" lon="5.66685">
        <ele>788.42</ele>
        <time>2010-05-29T15:48:35Z</time>
      </trkpt>
      <trkpt lat="44.88541" lon="5.66694">
        <ele>788.42</ele>
        <time>2010-05-29T15:48:44Z</time>
      </trkpt>
      <trkpt lat="44.88557" lon="5.66697">
        <ele>791.78</ele>
        <time>2010-05-29T15:48:54Z</time>
      </trkpt>
      <trkpt lat="44.88561" lon="5.66697">
        <ele>792.26</ele>
        <time>2010-05-29T15:48:57Z</time>
      </trkpt>
      <trkpt lat="44.88577" lon="5.66689">
        <ele>795.63</ele>
        <time>2010-05-29T15:49:09Z</time>
      </trkpt>
      <trkpt lat="44.88578" lon="5.66688">
        <ele>795.15</ele>
        <time>2010-05-29T15:49:10Z</time>
      </trkpt>
      <trkpt lat="44.88583" lon="5.66683">
        <ele>796.11</ele>
        <time>2010-05-29T15:49:27Z</time>
      </trkpt>
      <trkpt lat="44.88584" lon="5.66682">
        <ele>796.11</ele>
        <time>2010-05-29T15:49:57Z</time>
      </trkpt>
      <trkpt lat="44.88587" lon="5.66675">
        <ele>797.55</ele>
        <time>2010-05-29T15:51:25Z</time>
      </trkpt>
      <trkpt lat="44.88591" lon="5.66665">
        <ele>798.51</ele>
        <time>2010-05-29T15:51:29Z</time>
      </trkpt>
      <trkpt lat="44.88609" lon="5.66635">
        <ele>800.44</ele>
        <time>2010-05-29T15:51:41Z</time>
      </trkpt>
      <trkpt lat="44.88612" lon="5.66628">
        <ele>802.36</ele>
        <time>2010-05-29T15:51:44Z</time>
      </trkpt>
      <trkpt lat="44.88614" lon="5.66624">
        <ele>802.84</ele>
        <time>2010-05-29T15:51:46Z</time>
      </trkpt>
      <trkpt lat="44.88625" lon="5.66603">
        <ele>804.76</ele>
        <time>2010-05-29T15:51:57Z</time>
      </trkpt>
      <trkpt lat="44.88631" lon="5.66587">
        <ele>805.72</ele>
        <time>2010-05-29T15:52:03Z</time>
      </trkpt>
      <trkpt lat="44.88645" lon="5.66551">
        <ele>807.16</ele>
        <time>2010-05-29T15:52:15Z</time>
      </trkpt>
      <trkpt lat="44.88654" lon="5.66519">
        <ele>806.68</ele>
        <time>2010-05-29T15:52:24Z</time>
      </trkpt>
      <trkpt lat="44.88658" lon="5.66508">
        <ele>806.68</ele>
        <time>2010-05-29T15:52:37Z</time>
      </trkpt>
      <trkpt lat="44.88669" lon="5.66484">
        <ele>804.28</ele>
        <time>2010-05-29T15:52:47Z</time>
      </trkpt>
      <trkpt lat="44.8867" lon="5.66459">
        <ele>805.72</ele>
        <time>2010-05-29T15:52:55Z</time>
      </trkpt>
      <trkpt lat="44.88666" lon="5.66449">
        <ele>804.76</ele>
        <time>2010-05-29T15:52:59Z</time>
      </trkpt>
      <trkpt lat="44.88666" lon="5.66439">
        <ele>804.28</ele>
        <time>2010-05-29T15:53:01Z</time>
      </trkpt>
      <trkpt lat="44.88666" lon="5.66434">
        <ele>803.32</ele>
        <time>2010-05-29T15:53:02Z</time>
      </trkpt>
      <trkpt lat="44.88668" lon="5.66413">
        <ele>801.4</ele>
        <time>2010-05-29T15:53:06Z</time>
      </trkpt>
      <trkpt lat="44.88668" lon="5.66401">
        <ele>802.36</ele>
        <time>2010-05-29T15:53:08Z</time>
      </trkpt>
      <trkpt lat="44.88669" lon="5.66395">
        <ele>801.88</ele>
        <time>2010-05-29T15:53:09Z</time>
      </trkpt>
      <trkpt lat="44.88671" lon="5.66368">
        <ele>799.95</ele>
        <time>2010-05-29T15:53:13Z</time>
      </trkpt>
      <trkpt lat="44.88671" lon="5.66339">
        <ele>800.44</ele>
        <time>2010-05-29T15:53:18Z</time>
      </trkpt>
      <trkpt lat="44.88672" lon="5.66318">
        <ele>802.36</ele>
        <time>2010-05-29T15:53:23Z</time>
      </trkpt>
      <trkpt lat="44.88669" lon="5.6631">
        <ele>802.36</ele>
        <time>2010-05-29T15:53:32Z</time>
      </trkpt>
      <trkpt lat="44.88661" lon="5.66309">
        <ele>804.76</ele>
        <time>2010-05-29T15:53:48Z</time>
      </trkpt>
      <trkpt lat="44.8866" lon="5.6631">
        <ele>805.24</ele>
        <time>2010-05-29T15:53:53Z</time>
      </trkpt>
      <trkpt lat="44.88662" lon="5.66316">
        <ele>807.16</ele>
        <time>2010-05-29T15:53:59Z</time>
      </trkpt>
      <trkpt lat="44.88679" lon="5.66317">
        <ele>810.53</ele>
        <time>2010-05-29T15:54:10Z</time>
      </trkpt>
      <trkpt lat="44.88687" lon="5.66315">
        <ele>811.97</ele>
        <time>2010-05-29T15:54:14Z</time>
      </trkpt>
      <trkpt lat="44.88697" lon="5.66306">
        <ele>813.41</ele>
        <time>2010-05-29T15:54:19Z</time>
      </trkpt>
      <trkpt lat="44.88702" lon="5.663">
        <ele>814.85</ele>
        <time>2010-05-29T15:54:22Z</time>
      </trkpt>
      <trkpt lat="44.88708" lon="5.66293">
        <ele>816.78</ele>
        <time>2010-05-29T15:54:27Z</time>
      </trkpt>
      <trkpt lat="44.88713" lon="5.66286">
        <ele>818.22</ele>
        <time>2010-05-29T15:54:30Z</time>
      </trkpt>
      <trkpt lat="44.88725" lon="5.66279">
        <ele>821.1</ele>
        <time>2010-05-29T15:54:39Z</time>
      </trkpt>
      <trkpt lat="44.88741" lon="5.66265">
        <ele>823.03</ele>
        <time>2010-05-29T15:54:52Z</time>
      </trkpt>
      <trkpt lat="44.88751" lon="5.66255">
        <ele>824.47</ele>
        <time>2010-05-29T15:55:04Z</time>
      </trkpt>
      <trkpt lat="44.88755" lon="5.66246">
        <ele>824.47</ele>
        <time>2010-05-29T15:55:20Z</time>
      </trkpt>
      <trkpt lat="44.88755" lon="5.66244">
        <ele>825.43</ele>
        <time>2010-05-29T15:55:47Z</time>
      </trkpt>
      <trkpt lat="44.88767" lon="5.6621">
        <ele>825.43</ele>
        <time>2010-05-29T15:55:58Z</time>
      </trkpt>
      <trkpt lat="44.88769" lon="5.66187">
        <ele>827.83</ele>
        <time>2010-05-29T15:56:08Z</time>
      </trkpt>
      <trkpt lat="44.88772" lon="5.66158">
        <ele>829.27</ele>
        <time>2010-05-29T15:56:17Z</time>
      </trkpt>
      <trkpt lat="44.8877" lon="5.66132">
        <ele>827.35</ele>
        <time>2010-05-29T15:56:23Z</time>
      </trkpt>
      <trkpt lat="44.88771" lon="5.66112">
        <ele>826.87</ele>
        <time>2010-05-29T15:56:28Z</time>
      </trkpt>
      <trkpt lat="44.88772" lon="5.66107">
        <ele>825.91</ele>
        <time>2010-05-29T15:56:32Z</time>
      </trkpt>
      <trkpt lat="44.88775" lon="5.66103">
        <ele>824.95</ele>
        <time>2010-05-29T15:56:37Z</time>
      </trkpt>
      <trkpt lat="44.8878" lon="5.66097">
        <ele>826.39</ele>
        <time>2010-05-29T15:56:41Z</time>
      </trkpt>
      <trkpt lat="44.88796" lon="5.66089">
        <ele>827.83</ele>
        <time>2010-05-29T15:56:52Z</time>
      </trkpt>
      <trkpt lat="44.88798" lon="5.66087">
        <ele>827.83</ele>
        <time>2010-05-29T15:56:53Z</time>
      </trkpt>
      <trkpt lat="44.88806" lon="5.66078">
        <ele>828.79</ele>
        <time>2010-05-29T15:56:57Z</time>
      </trkpt>
      <trkpt lat="44.8882" lon="5.66061">
        <ele>827.35</ele>
        <time>2010-05-29T15:57:05Z</time>
      </trkpt>
      <trkpt lat="44.8883" lon="5.66051">
        <ele>827.35</ele>
        <time>2010-05-29T15:57:10Z</time>
      </trkpt>
      <trkpt lat="44.88835" lon="5.66048">
        <ele>826.87</ele>
        <time>2010-05-29T15:57:12Z</time>
      </trkpt>
      <trkpt lat="44.8884" lon="5.66043">
        <ele>827.35</ele>
        <time>2010-05-29T15:57:15Z</time>
      </trkpt>
      <trkpt lat="44.88853" lon="5.66022">
        <ele>827.83</ele>
        <time>2010-05-29T15:57:22Z</time>
      </trkpt>
      <trkpt lat="44.8886" lon="5.66015">
        <ele>829.76</ele>
        <time>2010-05-29T15:57:27Z</time>
      </trkpt>
      <trkpt lat="44.88863" lon="5.66008">
        <ele>830.72</ele>
        <time>2010-05-29T15:57:36Z</time>
      </trkpt>
      <trkpt lat="44.88877" lon="5.66004">
        <ele>834.08</ele>
        <time>2010-05-29T15:57:49Z</time>
      </trkpt>
      <trkpt lat="44.88879" lon="5.66007">
        <ele>835.04</ele>
        <time>2010-05-29T15:57:56Z</time>
      </trkpt>
      <trkpt lat="44.88886" lon="5.66021">
        <ele>835.52</ele>
        <time>2010-05-29T15:58:08Z</time>
      </trkpt>
      <trkpt lat="44.8889" lon="5.66028">
        <ele>835.52</ele>
        <time>2010-05-29T15:58:12Z</time>
      </trkpt>
      <trkpt lat="44.88891" lon="5.66032">
        <ele>836.48</ele>
        <time>2010-05-29T15:58:15Z</time>
      </trkpt>
      <trkpt lat="44.88898" lon="5.66038">
        <ele>837.45</ele>
        <time>2010-05-29T15:58:20Z</time>
      </trkpt>
      <trkpt lat="44.88917" lon="5.66056">
        <ele>840.33</ele>
        <time>2010-05-29T15:58:33Z</time>
      </trkpt>
      <trkpt lat="44.88919" lon="5.66058">
        <ele>840.33</ele>
        <time>2010-05-29T15:58:34Z</time>
      </trkpt>
      <trkpt lat="44.88939" lon="5.66073">
        <ele>843.21</ele>
        <time>2010-05-29T15:58:47Z</time>
      </trkpt>
      <trkpt lat="44.88953" lon="5.66078">
        <ele>845.62</ele>
        <time>2010-05-29T15:58:56Z</time>
      </trkpt>
      <trkpt lat="44.8897" lon="5.66082">
        <ele>849.46</ele>
        <time>2010-05-29T15:59:06Z</time>
      </trkpt>
      <trkpt lat="44.88974" lon="5.66084">
        <ele>850.42</ele>
        <time>2010-05-29T15:59:17Z</time>
      </trkpt>
      <trkpt lat="44.88981" lon="5.66082">
        <ele>853.31</ele>
        <time>2010-05-29T15:59:35Z</time>
      </trkpt>
      <trkpt lat="44.88987" lon="5.66078">
        <ele>855.23</ele>
        <time>2010-05-29T15:59:46Z</time>
      </trkpt>
      <trkpt lat="44.88987" lon="5.66074">
        <ele>855.23</ele>
        <time>2010-05-29T16:00:07Z</time>
      </trkpt>
      <trkpt lat="44.89003" lon="5.66085">
        <ele>855.23</ele>
        <time>2010-05-29T16:00:28Z</time>
      </trkpt>
      <trkpt lat="44.89014" lon="5.66086">
        <ele>856.19</ele>
        <time>2010-05-29T16:00:33Z</time>
      </trkpt>
      <trkpt lat="44.89021" lon="5.66086">
        <ele>856.67</ele>
        <time>2010-05-29T16:00:37Z</time>
      </trkpt>
      <trkpt lat="44.8903" lon="5.66089">
        <ele>857.63</ele>
        <time>2010-05-29T16:00:43Z</time>
      </trkpt>
      <trkpt lat="44.89041" lon="5.66092">
        <ele>858.59</ele>
        <time>2010-05-29T16:00:48Z</time>
      </trkpt>
      <trkpt lat="44.89071" lon="5.66089">
        <ele>861</ele>
        <time>2010-05-29T16:01:01Z</time>
      </trkpt>
      <trkpt lat="44.89102" lon="5.66071">
        <ele>861.96</ele>
        <time>2010-05-29T16:01:14Z</time>
      </trkpt>
      <trkpt lat="44.89124" lon="5.66045">
        <ele>861.96</ele>
        <time>2010-05-29T16:01:25Z</time>
      </trkpt>
      <trkpt lat="44.89131" lon="5.66033">
        <ele>860.52</ele>
        <time>2010-05-29T16:01:28Z</time>
      </trkpt>
      <trkpt lat="44.89137" lon="5.6602">
        <ele>859.08</ele>
        <time>2010-05-29T16:01:30Z</time>
      </trkpt>
      <trkpt lat="44.89142" lon="5.66013">
        <ele>859.08</ele>
        <time>2010-05-29T16:01:31Z</time>
      </trkpt>
      <trkpt lat="44.89146" lon="5.66003">
        <ele>859.08</ele>
        <time>2010-05-29T16:01:32Z</time>
      </trkpt>
      <trkpt lat="44.89149" lon="5.65995">
        <ele>859.08</ele>
        <time>2010-05-29T16:01:33Z</time>
      </trkpt>
      <trkpt lat="44.89152" lon="5.65988">
        <ele>859.08</ele>
        <time>2010-05-29T16:01:34Z</time>
      </trkpt>
      <trkpt lat="44.89158" lon="5.65961">
        <ele>859.56</ele>
        <time>2010-05-29T16:01:42Z</time>
      </trkpt>
      <trkpt lat="44.89159" lon="5.65955">
        <ele>860.04</ele>
        <time>2010-05-29T16:01:44Z</time>
      </trkpt>
      <trkpt lat="44.89161" lon="5.6595">
        <ele>860.04</ele>
        <time>2010-05-29T16:01:45Z</time>
      </trkpt>
      <trkpt lat="44.89162" lon="5.65946">
        <ele>860.04</ele>
        <time>2010-05-29T16:01:46Z</time>
      </trkpt>
      <trkpt lat="44.89164" lon="5.65938">
        <ele>860.52</ele>
        <time>2010-05-29T16:01:48Z</time>
      </trkpt>
      <trkpt lat="44.89165" lon="5.65935">
        <ele>861</ele>
        <time>2010-05-29T16:01:49Z</time>
      </trkpt>
      <trkpt lat="44.89166" lon="5.65931">
        <ele>861</ele>
        <time>2010-05-29T16:01:50Z</time>
      </trkpt>
      <trkpt lat="44.89169" lon="5.65915">
        <ele>862.44</ele>
        <time>2010-05-29T16:01:55Z</time>
      </trkpt>
      <trkpt lat="44.8917" lon="5.6591">
        <ele>863.4</ele>
        <time>2010-05-29T16:01:57Z</time>
      </trkpt>
      <trkpt lat="44.89171" lon="5.65908">
        <ele>863.4</ele>
        <time>2010-05-29T16:01:58Z</time>
      </trkpt>
      <trkpt lat="44.89172" lon="5.65905">
        <ele>863.4</ele>
        <time>2010-05-29T16:01:59Z</time>
      </trkpt>
      <trkpt lat="44.89173" lon="5.65902">
        <ele>862.92</ele>
        <time>2010-05-29T16:02:00Z</time>
      </trkpt>
      <trkpt lat="44.89173" lon="5.65899">
        <ele>864.36</ele>
        <time>2010-05-29T16:02:01Z</time>
      </trkpt>
      <trkpt lat="44.89174" lon="5.65895">
        <ele>864.36</ele>
        <time>2010-05-29T16:02:02Z</time>
      </trkpt>
      <trkpt lat="44.89173" lon="5.65883">
        <ele>865.32</ele>
        <time>2010-05-29T16:02:06Z</time>
      </trkpt>
      <trkpt lat="44.89172" lon="5.65881">
        <ele>865.32</ele>
        <time>2010-05-29T16:02:07Z</time>
      </trkpt>
      <trkpt lat="44.89169" lon="5.65876">
        <ele>865.8</ele>
        <time>2010-05-29T16:02:09Z</time>
      </trkpt>
      <trkpt lat="44.89168" lon="5.65873">
        <ele>866.29</ele>
        <time>2010-05-29T16:02:10Z</time>
      </trkpt>
      <trkpt lat="44.89167" lon="5.6587">
        <ele>865.8</ele>
        <time>2010-05-29T16:02:11Z</time>
      </trkpt>
      <trkpt lat="44.89162" lon="5.65858">
        <ele>867.25</ele>
        <time>2010-05-29T16:02:16Z</time>
      </trkpt>
      <trkpt lat="44.89162" lon="5.65856">
        <ele>868.21</ele>
        <time>2010-05-29T16:02:17Z</time>
      </trkpt>
      <trkpt lat="44.89162" lon="5.65853">
        <ele>867.25</ele>
        <time>2010-05-29T16:02:18Z</time>
      </trkpt>
      <trkpt lat="44.89159" lon="5.65833">
        <ele>870.61</ele>
        <time>2010-05-29T16:02:28Z</time>
      </trkpt>
      <trkpt lat="44.89158" lon="5.65831">
        <ele>870.61</ele>
        <time>2010-05-29T16:02:29Z</time>
      </trkpt>
      <trkpt lat="44.89157" lon="5.65828">
        <ele>870.61</ele>
        <time>2010-05-29T16:02:30Z</time>
      </trkpt>
      <trkpt lat="44.89157" lon="5.65826">
        <ele>870.61</ele>
        <time>2010-05-29T16:02:31Z</time>
      </trkpt>
      <trkpt lat="44.89157" lon="5.65822">
        <ele>871.09</ele>
        <time>2010-05-29T16:02:32Z</time>
      </trkpt>
      <trkpt lat="44.89157" lon="5.65819">
        <ele>871.57</ele>
        <time>2010-05-29T16:02:33Z</time>
      </trkpt>
      <trkpt lat="44.8916" lon="5.65806">
        <ele>872.53</ele>
        <time>2010-05-29T16:02:41Z</time>
      </trkpt>
      <trkpt lat="44.89161" lon="5.65802">
        <ele>873.01</ele>
        <time>2010-05-29T16:02:43Z</time>
      </trkpt>
      <trkpt lat="44.89158" lon="5.65801">
        <ele>873.98</ele>
        <time>2010-05-29T16:02:49Z</time>
      </trkpt>
      <trkpt lat="44.89158" lon="5.658">
        <ele>873.98</ele>
        <time>2010-05-29T16:02:50Z</time>
      </trkpt>
      <trkpt lat="44.8916" lon="5.6578">
        <ele>876.86</ele>
        <time>2010-05-29T16:03:00Z</time>
      </trkpt>
      <trkpt lat="44.89161" lon="5.65776">
        <ele>877.34</ele>
        <time>2010-05-29T16:03:02Z</time>
      </trkpt>
      <trkpt lat="44.89161" lon="5.65773">
        <ele>877.34</ele>
        <time>2010-05-29T16:03:03Z</time>
      </trkpt>
      <trkpt lat="44.89163" lon="5.65765">
        <ele>878.3</ele>
        <time>2010-05-29T16:03:08Z</time>
      </trkpt>
      <trkpt lat="44.89163" lon="5.65762">
        <ele>878.78</ele>
        <time>2010-05-29T16:03:09Z</time>
      </trkpt>
      <trkpt lat="44.89167" lon="5.65735">
        <ele>880.71</ele>
        <time>2010-05-29T16:03:18Z</time>
      </trkpt>
      <trkpt lat="44.89171" lon="5.65715">
        <ele>882.15</ele>
        <time>2010-05-29T16:03:25Z</time>
      </trkpt>
      <trkpt lat="44.89172" lon="5.65713">
        <ele>882.63</ele>
        <time>2010-05-29T16:03:26Z</time>
      </trkpt>
      <trkpt lat="44.89174" lon="5.65714">
        <ele>884.07</ele>
        <time>2010-05-29T16:03:34Z</time>
      </trkpt>
      <trkpt lat="44.89187" lon="5.65711">
        <ele>885.99</ele>
        <time>2010-05-29T16:03:40Z</time>
      </trkpt>
      <trkpt lat="44.89198" lon="5.6571">
        <ele>886.47</ele>
        <time>2010-05-29T16:03:46Z</time>
      </trkpt>
      <trkpt lat="44.89228" lon="5.65673">
        <ele>888.4</ele>
        <time>2010-05-29T16:03:57Z</time>
      </trkpt>
      <trkpt lat="44.89262" lon="5.65673">
        <ele>890.32</ele>
        <time>2010-05-29T16:04:12Z</time>
      </trkpt>
      <trkpt lat="44.89294" lon="5.65681">
        <ele>892.72</ele>
        <time>2010-05-29T16:04:24Z</time>
      </trkpt>
      <trkpt lat="44.89319" lon="5.65684">
        <ele>896.09</ele>
        <time>2010-05-29T16:04:35Z</time>
      </trkpt>
      <trkpt lat="44.89339" lon="5.65686">
        <ele>898.01</ele>
        <time>2010-05-29T16:04:45Z</time>
      </trkpt>
      <trkpt lat="44.89369" lon="5.65707">
        <ele>897.53</ele>
        <time>2010-05-29T16:04:57Z</time>
      </trkpt>
      <trkpt lat="44.89409" lon="5.65723">
        <ele>898.49</ele>
        <time>2010-05-29T16:05:08Z</time>
      </trkpt>
      <trkpt lat="44.89443" lon="5.65739">
        <ele>900.41</ele>
        <time>2010-05-29T16:05:19Z</time>
      </trkpt>
      <trkpt lat="44.89476" lon="5.65739">
        <ele>902.33</ele>
        <time>2010-05-29T16:05:29Z</time>
      </trkpt>
      <trkpt lat="44.89521" lon="5.65733">
        <ele>902.82</ele>
        <time>2010-05-29T16:05:42Z</time>
      </trkpt>
      <trkpt lat="44.89553" lon="5.65725">
        <ele>902.82</ele>
        <time>2010-05-29T16:05:52Z</time>
      </trkpt>
      <trkpt lat="44.89584" lon="5.65712">
        <ele>904.74</ele>
        <time>2010-05-29T16:06:03Z</time>
      </trkpt>
      <trkpt lat="44.89611" lon="5.65697">
        <ele>906.66</ele>
        <time>2010-05-29T16:06:13Z</time>
      </trkpt>
      <trkpt lat="44.89643" lon="5.6568">
        <ele>907.14</ele>
        <time>2010-05-29T16:06:24Z</time>
      </trkpt>
      <trkpt lat="44.89689" lon="5.65664">
        <ele>904.74</ele>
        <time>2010-05-29T16:06:35Z</time>
      </trkpt>
      <trkpt lat="44.89697" lon="5.65659">
        <ele>904.74</ele>
        <time>2010-05-29T16:06:37Z</time>
      </trkpt>
      <trkpt lat="44.89705" lon="5.65648">
        <ele>903.3</ele>
        <time>2010-05-29T16:06:44Z</time>
      </trkpt>
      <trkpt lat="44.89704" lon="5.65647">
        <ele>903.3</ele>
        <time>2010-05-29T16:06:46Z</time>
      </trkpt>
      <trkpt lat="44.89703" lon="5.65645">
        <ele>903.3</ele>
        <time>2010-05-29T16:06:47Z</time>
      </trkpt>
      <trkpt lat="44.89686" lon="5.65617">
        <ele>904.74</ele>
        <time>2010-05-29T16:06:56Z</time>
      </trkpt>
      <trkpt lat="44.89679" lon="5.65602">
        <ele>904.26</ele>
        <time>2010-05-29T16:07:00Z</time>
      </trkpt>
      <trkpt lat="44.89677" lon="5.65599">
        <ele>905.7</ele>
        <time>2010-05-29T16:07:01Z</time>
      </trkpt>
      <trkpt lat="44.89675" lon="5.65595">
        <ele>905.22</ele>
        <time>2010-05-29T16:07:02Z</time>
      </trkpt>
      <trkpt lat="44.89673" lon="5.65591">
        <ele>905.7</ele>
        <time>2010-05-29T16:07:03Z</time>
      </trkpt>
      <trkpt lat="44.89672" lon="5.65587">
        <ele>905.7</ele>
        <time>2010-05-29T16:07:04Z</time>
      </trkpt>
      <trkpt lat="44.89655" lon="5.65539">
        <ele>907.14</ele>
        <time>2010-05-29T16:07:16Z</time>
      </trkpt>
      <trkpt lat="44.89651" lon="5.65532">
        <ele>907.62</ele>
        <time>2010-05-29T16:07:18Z</time>
      </trkpt>
      <trkpt lat="44.89651" lon="5.65528">
        <ele>907.62</ele>
        <time>2010-05-29T16:07:19Z</time>
      </trkpt>
      <trkpt lat="44.8965" lon="5.65524">
        <ele>907.62</ele>
        <time>2010-05-29T16:07:20Z</time>
      </trkpt>
      <trkpt lat="44.89648" lon="5.6552">
        <ele>907.62</ele>
        <time>2010-05-29T16:07:21Z</time>
      </trkpt>
      <trkpt lat="44.89647" lon="5.65516">
        <ele>907.62</ele>
        <time>2010-05-29T16:07:22Z</time>
      </trkpt>
      <trkpt lat="44.89646" lon="5.65512">
        <ele>908.1</ele>
        <time>2010-05-29T16:07:23Z</time>
      </trkpt>
      <trkpt lat="44.89645" lon="5.65508">
        <ele>908.1</ele>
        <time>2010-05-29T16:07:24Z</time>
      </trkpt>
      <trkpt lat="44.89637" lon="5.65479">
        <ele>908.58</ele>
        <time>2010-05-29T16:07:32Z</time>
      </trkpt>
      <trkpt lat="44.89636" lon="5.65474">
        <ele>909.06</ele>
        <time>2010-05-29T16:07:33Z</time>
      </trkpt>
      <trkpt lat="44.89634" lon="5.65469">
        <ele>909.06</ele>
        <time>2010-05-29T16:07:34Z</time>
      </trkpt>
      <trkpt lat="44.89633" lon="5.65465">
        <ele>909.06</ele>
        <time>2010-05-29T16:07:35Z</time>
      </trkpt>
      <trkpt lat="44.89633" lon="5.65461">
        <ele>909.06</ele>
        <time>2010-05-29T16:07:36Z</time>
      </trkpt>
      <trkpt lat="44.89632" lon="5.65457">
        <ele>909.06</ele>
        <time>2010-05-29T16:07:37Z</time>
      </trkpt>
      <trkpt lat="44.89631" lon="5.65453">
        <ele>910.03</ele>
        <time>2010-05-29T16:07:38Z</time>
      </trkpt>
      <trkpt lat="44.89629" lon="5.65449">
        <ele>909.54</ele>
        <time>2010-05-29T16:07:39Z</time>
      </trkpt>
      <trkpt lat="44.89627" lon="5.65444">
        <ele>909.54</ele>
        <time>2010-05-29T16:07:40Z</time>
      </trkpt>
      <trkpt lat="44.89625" lon="5.65439">
        <ele>910.03</ele>
        <time>2010-05-29T16:07:41Z</time>
      </trkpt>
      <trkpt lat="44.89623" lon="5.65434">
        <ele>910.03</ele>
        <time>2010-05-29T16:07:42Z</time>
      </trkpt>
      <trkpt lat="44.8962" lon="5.6543">
        <ele>910.51</ele>
        <time>2010-05-29T16:07:43Z</time>
      </trkpt>
      <trkpt lat="44.89617" lon="5.65426">
        <ele>910.51</ele>
        <time>2010-05-29T16:07:44Z</time>
      </trkpt>
      <trkpt lat="44.89592" lon="5.65386">
        <ele>911.95</ele>
        <time>2010-05-29T16:07:54Z</time>
      </trkpt>
      <trkpt lat="44.89561" lon="5.6535">
        <ele>913.39</ele>
        <time>2010-05-29T16:08:05Z</time>
      </trkpt>
      <trkpt lat="44.89524" lon="5.65321">
        <ele>915.31</ele>
        <time>2010-05-29T16:08:16Z</time>
      </trkpt>
      <trkpt lat="44.89487" lon="5.65298">
        <ele>917.24</ele>
        <time>2010-05-29T16:08:26Z</time>
      </trkpt>
      <trkpt lat="44.89453" lon="5.65293">
        <ele>918.68</ele>
        <time>2010-05-29T16:08:34Z</time>
      </trkpt>
      <trkpt lat="44.89417" lon="5.65287">
        <ele>920.12</ele>
        <time>2010-05-29T16:08:45Z</time>
      </trkpt>
      <trkpt lat="44.8938" lon="5.65289">
        <ele>923</ele>
        <time>2010-05-29T16:08:58Z</time>
      </trkpt>
      <trkpt lat="44.89349" lon="5.65292">
        <ele>923.96</ele>
        <time>2010-05-29T16:09:10Z</time>
      </trkpt>
      <trkpt lat="44.89324" lon="5.65292">
        <ele>925.89</ele>
        <time>2010-05-29T16:09:20Z</time>
      </trkpt>
      <trkpt lat="44.89323" lon="5.6529">
        <ele>925.89</ele>
        <time>2010-05-29T16:09:21Z</time>
      </trkpt>
      <trkpt lat="44.89321" lon="5.65288">
        <ele>925.89</ele>
        <time>2010-05-29T16:09:22Z</time>
      </trkpt>
      <trkpt lat="44.89319" lon="5.65287">
        <ele>926.37</ele>
        <time>2010-05-29T16:09:23Z</time>
      </trkpt>
      <trkpt lat="44.89317" lon="5.65286">
        <ele>926.37</ele>
        <time>2010-05-29T16:09:24Z</time>
      </trkpt>
      <trkpt lat="44.89314" lon="5.65285">
        <ele>926.37</ele>
        <time>2010-05-29T16:09:25Z</time>
      </trkpt>
      <trkpt lat="44.89279" lon="5.65263">
        <ele>928.29</ele>
        <time>2010-05-29T16:09:40Z</time>
      </trkpt>
      <trkpt lat="44.89258" lon="5.65229">
        <ele>930.69</ele>
        <time>2010-05-29T16:09:53Z</time>
      </trkpt>
      <trkpt lat="44.89236" lon="5.65182">
        <ele>932.62</ele>
        <time>2010-05-29T16:10:08Z</time>
      </trkpt>
      <trkpt lat="44.89218" lon="5.65148">
        <ele>934.54</ele>
        <time>2010-05-29T16:10:21Z</time>
      </trkpt>
      <trkpt lat="44.89208" lon="5.65128">
        <ele>935.98</ele>
        <time>2010-05-29T16:10:29Z</time>
      </trkpt>
      <trkpt lat="44.89207" lon="5.65126">
        <ele>935.98</ele>
        <time>2010-05-29T16:10:30Z</time>
      </trkpt>
      <trkpt lat="44.89206" lon="5.65124">
        <ele>935.98</ele>
        <time>2010-05-29T16:10:31Z</time>
      </trkpt>
      <trkpt lat="44.89205" lon="5.65121">
        <ele>935.98</ele>
        <time>2010-05-29T16:10:32Z</time>
      </trkpt>
      <trkpt lat="44.89204" lon="5.65117">
        <ele>936.46</ele>
        <time>2010-05-29T16:10:33Z</time>
      </trkpt>
      <trkpt lat="44.89203" lon="5.65113">
        <ele>936.94</ele>
        <time>2010-05-29T16:10:34Z</time>
      </trkpt>
      <trkpt lat="44.89202" lon="5.65109">
        <ele>936.94</ele>
        <time>2010-05-29T16:10:35Z</time>
      </trkpt>
      <trkpt lat="44.89202" lon="5.65106">
        <ele>937.42</ele>
        <time>2010-05-29T16:10:36Z</time>
      </trkpt>
      <trkpt lat="44.89201" lon="5.65102">
        <ele>936.94</ele>
        <time>2010-05-29T16:10:37Z</time>
      </trkpt>
      <trkpt lat="44.892" lon="5.65098">
        <ele>936.94</ele>
        <time>2010-05-29T16:10:38Z</time>
      </trkpt>
      <trkpt lat="44.89199" lon="5.65095">
        <ele>936.94</ele>
        <time>2010-05-29T16:10:39Z</time>
      </trkpt>
      <trkpt lat="44.89198" lon="5.65092">
        <ele>937.42</ele>
        <time>2010-05-29T16:10:40Z</time>
      </trkpt>
      <trkpt lat="44.89197" lon="5.65088">
        <ele>936.94</ele>
        <time>2010-05-29T16:10:42Z</time>
      </trkpt>
      <trkpt lat="44.89213" lon="5.65065">
        <ele>936.46</ele>
        <time>2010-05-29T16:10:52Z</time>
      </trkpt>
      <trkpt lat="44.89216" lon="5.65061">
        <ele>936.46</ele>
        <time>2010-05-29T16:10:53Z</time>
      </trkpt>
      <trkpt lat="44.89218" lon="5.65057">
        <ele>936.94</ele>
        <time>2010-05-29T16:10:54Z</time>
      </trkpt>
      <trkpt lat="44.89222" lon="5.65053">
        <ele>936.46</ele>
        <time>2010-05-29T16:10:55Z</time>
      </trkpt>
      <trkpt lat="44.89259" lon="5.65011">
        <ele>935.98</ele>
        <time>2010-05-29T16:11:06Z</time>
      </trkpt>
      <trkpt lat="44.89296" lon="5.64977">
        <ele>935.5</ele>
        <time>2010-05-29T16:11:16Z</time>
      </trkpt>
      <trkpt lat="44.89313" lon="5.64972">
        <ele>935.5</ele>
        <time>2010-05-29T16:11:20Z</time>
      </trkpt>
      <trkpt lat="44.89316" lon="5.64973">
        <ele>935.5</ele>
        <time>2010-05-29T16:11:21Z</time>
      </trkpt>
      <trkpt lat="44.89328" lon="5.64974">
        <ele>935.02</ele>
        <time>2010-05-29T16:11:24Z</time>
      </trkpt>
      <trkpt lat="44.89344" lon="5.64969">
        <ele>935.02</ele>
        <time>2010-05-29T16:11:27Z</time>
      </trkpt>
      <trkpt lat="44.89349" lon="5.64969">
        <ele>935.02</ele>
        <time>2010-05-29T16:11:28Z</time>
      </trkpt>
      <trkpt lat="44.89354" lon="5.64971">
        <ele>934.54</ele>
        <time>2010-05-29T16:11:29Z</time>
      </trkpt>
      <trkpt lat="44.89369" lon="5.64975">
        <ele>935.02</ele>
        <time>2010-05-29T16:11:32Z</time>
      </trkpt>
      <trkpt lat="44.89374" lon="5.64976">
        <ele>935.02</ele>
        <time>2010-05-29T16:11:33Z</time>
      </trkpt>
      <trkpt lat="44.89379" lon="5.64976">
        <ele>934.54</ele>
        <time>2010-05-29T16:11:34Z</time>
      </trkpt>
      <trkpt lat="44.89384" lon="5.64975">
        <ele>935.02</ele>
        <time>2010-05-29T16:11:35Z</time>
      </trkpt>
      <trkpt lat="44.89389" lon="5.64974">
        <ele>935.02</ele>
        <time>2010-05-29T16:11:36Z</time>
      </trkpt>
      <trkpt lat="44.89406" lon="5.64968">
        <ele>934.54</ele>
        <time>2010-05-29T16:11:39Z</time>
      </trkpt>
      <trkpt lat="44.89411" lon="5.64969">
        <ele>934.54</ele>
        <time>2010-05-29T16:11:40Z</time>
      </trkpt>
      <trkpt lat="44.89416" lon="5.64969">
        <ele>934.06</ele>
        <time>2010-05-29T16:11:41Z</time>
      </trkpt>
      <trkpt lat="44.89422" lon="5.64968">
        <ele>933.58</ele>
        <time>2010-05-29T16:11:42Z</time>
      </trkpt>
      <trkpt lat="44.89427" lon="5.64967">
        <ele>934.06</ele>
        <time>2010-05-29T16:11:43Z</time>
      </trkpt>
      <trkpt lat="44.89432" lon="5.64966">
        <ele>934.06</ele>
        <time>2010-05-29T16:11:44Z</time>
      </trkpt>
      <trkpt lat="44.89437" lon="5.64966">
        <ele>933.58</ele>
        <time>2010-05-29T16:11:45Z</time>
      </trkpt>
      <trkpt lat="44.89442" lon="5.64965">
        <ele>933.58</ele>
        <time>2010-05-29T16:11:46Z</time>
      </trkpt>
      <trkpt lat="44.89486" lon="5.64956">
        <ele>933.1</ele>
        <time>2010-05-29T16:11:57Z</time>
      </trkpt>
      <trkpt lat="44.8951" lon="5.6496">
        <ele>932.62</ele>
        <time>2010-05-29T16:12:03Z</time>
      </trkpt>
      <trkpt lat="44.89515" lon="5.64959">
        <ele>932.62</ele>
        <time>2010-05-29T16:12:04Z</time>
      </trkpt>
      <trkpt lat="44.8952" lon="5.64957">
        <ele>932.62</ele>
        <time>2010-05-29T16:12:05Z</time>
      </trkpt>
      <trkpt lat="44.89525" lon="5.64957">
        <ele>932.62</ele>
        <time>2010-05-29T16:12:06Z</time>
      </trkpt>
      <trkpt lat="44.89529" lon="5.64957">
        <ele>932.62</ele>
        <time>2010-05-29T16:12:07Z</time>
      </trkpt>
      <trkpt lat="44.89534" lon="5.64957">
        <ele>932.14</ele>
        <time>2010-05-29T16:12:08Z</time>
      </trkpt>
      <trkpt lat="44.89538" lon="5.64956">
        <ele>932.14</ele>
        <time>2010-05-29T16:12:09Z</time>
      </trkpt>
      <trkpt lat="44.89542" lon="5.64955">
        <ele>932.14</ele>
        <time>2010-05-29T16:12:10Z</time>
      </trkpt>
      <trkpt lat="44.89546" lon="5.64954">
        <ele>932.62</ele>
        <time>2010-05-29T16:12:11Z</time>
      </trkpt>
      <trkpt lat="44.89551" lon="5.64954">
        <ele>932.14</ele>
        <time>2010-05-29T16:12:12Z</time>
      </trkpt>
      <trkpt lat="44.89595" lon="5.64949">
        <ele>932.14</ele>
        <time>2010-05-29T16:12:22Z</time>
      </trkpt>
      <trkpt lat="44.89599" lon="5.64949">
        <ele>932.14</ele>
        <time>2010-05-29T16:12:23Z</time>
      </trkpt>
      <trkpt lat="44.89604" lon="5.64947">
        <ele>931.65</ele>
        <time>2010-05-29T16:12:24Z</time>
      </trkpt>
      <trkpt lat="44.89634" lon="5.64926">
        <ele>932.14</ele>
        <time>2010-05-29T16:12:32Z</time>
      </trkpt>
      <trkpt lat="44.89637" lon="5.64921">
        <ele>932.14</ele>
        <time>2010-05-29T16:12:33Z</time>
      </trkpt>
      <trkpt lat="44.89639" lon="5.64916">
        <ele>932.14</ele>
        <time>2010-05-29T16:12:34Z</time>
      </trkpt>
      <trkpt lat="44.89648" lon="5.64893">
        <ele>931.65</ele>
        <time>2010-05-29T16:12:39Z</time>
      </trkpt>
      <trkpt lat="44.89649" lon="5.64887">
        <ele>932.14</ele>
        <time>2010-05-29T16:12:40Z</time>
      </trkpt>
      <trkpt lat="44.8965" lon="5.64881">
        <ele>932.14</ele>
        <time>2010-05-29T16:12:41Z</time>
      </trkpt>
      <trkpt lat="44.8965" lon="5.64875">
        <ele>931.65</ele>
        <time>2010-05-29T16:12:42Z</time>
      </trkpt>
      <trkpt lat="44.8965" lon="5.6487">
        <ele>931.65</ele>
        <time>2010-05-29T16:12:43Z</time>
      </trkpt>
      <trkpt lat="44.89649" lon="5.64827">
        <ele>931.17</ele>
        <time>2010-05-29T16:12:50Z</time>
      </trkpt>
      <trkpt lat="44.89642" lon="5.64775">
        <ele>930.69</ele>
        <time>2010-05-29T16:13:00Z</time>
      </trkpt>
      <trkpt lat="44.89643" lon="5.64772">
        <ele>931.17</ele>
        <time>2010-05-29T16:13:01Z</time>
      </trkpt>
      <trkpt lat="44.89645" lon="5.64769">
        <ele>930.69</ele>
        <time>2010-05-29T16:13:02Z</time>
      </trkpt>
      <trkpt lat="44.89645" lon="5.64733">
        <ele>930.69</ele>
        <time>2010-05-29T16:13:12Z</time>
      </trkpt>
      <trkpt lat="44.8964" lon="5.64662">
        <ele>931.17</ele>
        <time>2010-05-29T16:13:20Z</time>
      </trkpt>
      <trkpt lat="44.89641" lon="5.64653">
        <ele>931.17</ele>
        <time>2010-05-29T16:13:21Z</time>
      </trkpt>
      <trkpt lat="44.8964" lon="5.6462">
        <ele>931.17</ele>
        <time>2010-05-29T16:13:25Z</time>
      </trkpt>
      <trkpt lat="44.89634" lon="5.64564">
        <ele>931.65</ele>
        <time>2010-05-29T16:13:34Z</time>
      </trkpt>
      <trkpt lat="44.89639" lon="5.64554">
        <ele>930.69</ele>
        <time>2010-05-29T16:13:38Z</time>
      </trkpt>
      <trkpt lat="44.89649" lon="5.6455">
        <ele>930.69</ele>
        <time>2010-05-29T16:13:43Z</time>
      </trkpt>
      <trkpt lat="44.89659" lon="5.64541">
        <ele>931.65</ele>
        <time>2010-05-29T16:13:47Z</time>
      </trkpt>
      <trkpt lat="44.89682" lon="5.64491">
        <ele>934.54</ele>
        <time>2010-05-29T16:13:58Z</time>
      </trkpt>
      <trkpt lat="44.89697" lon="5.64454">
        <ele>936.94</ele>
        <time>2010-05-29T16:14:07Z</time>
      </trkpt>
      <trkpt lat="44.8971" lon="5.6442">
        <ele>938.86</ele>
        <time>2010-05-29T16:14:18Z</time>
      </trkpt>
      <trkpt lat="44.8972" lon="5.64387">
        <ele>941.27</ele>
        <time>2010-05-29T16:14:30Z</time>
      </trkpt>
      <trkpt lat="44.89721" lon="5.64385">
        <ele>941.75</ele>
        <time>2010-05-29T16:14:32Z</time>
      </trkpt>
      <trkpt lat="44.89742" lon="5.6432">
        <ele>944.63</ele>
        <time>2010-05-29T16:14:42Z</time>
      </trkpt>
      <trkpt lat="44.89751" lon="5.64282">
        <ele>945.59</ele>
        <time>2010-05-29T16:14:48Z</time>
      </trkpt>
      <trkpt lat="44.89744" lon="5.64257">
        <ele>948</ele>
        <time>2010-05-29T16:14:59Z</time>
      </trkpt>
      <trkpt lat="44.89741" lon="5.64226">
        <ele>950.4</ele>
        <time>2010-05-29T16:15:09Z</time>
      </trkpt>
      <trkpt lat="44.8974" lon="5.64189">
        <ele>952.32</ele>
        <time>2010-05-29T16:15:21Z</time>
      </trkpt>
      <trkpt lat="44.89735" lon="5.64152">
        <ele>954.25</ele>
        <time>2010-05-29T16:15:31Z</time>
      </trkpt>
      <trkpt lat="44.89726" lon="5.64104">
        <ele>956.17</ele>
        <time>2010-05-29T16:15:42Z</time>
      </trkpt>
      <trkpt lat="44.89723" lon="5.64053">
        <ele>958.09</ele>
        <time>2010-05-29T16:15:52Z</time>
      </trkpt>
      <trkpt lat="44.89715" lon="5.63999">
        <ele>960.49</ele>
        <time>2010-05-29T16:16:03Z</time>
      </trkpt>
      <trkpt lat="44.89713" lon="5.6398">
        <ele>961.46</ele>
        <time>2010-05-29T16:16:09Z</time>
      </trkpt>
      <trkpt lat="44.89713" lon="5.63968">
        <ele>961.94</ele>
        <time>2010-05-29T16:16:14Z</time>
      </trkpt>
      <trkpt lat="44.89724" lon="5.63941">
        <ele>962.42</ele>
        <time>2010-05-29T16:16:20Z</time>
      </trkpt>
      <trkpt lat="44.89727" lon="5.63931">
        <ele>962.42</ele>
        <time>2010-05-29T16:16:33Z</time>
      </trkpt>
      <trkpt lat="44.89727" lon="5.63931">
        <ele>963.86</ele>
        <time>2010-05-29T16:16:39Z</time>
      </trkpt>
      <trkpt lat="44.89726" lon="5.63923">
        <ele>962.9</ele>
        <time>2010-05-29T16:16:52Z</time>
      </trkpt>
      <trkpt lat="44.89727" lon="5.63919">
        <ele>962.9</ele>
        <time>2010-05-29T16:17:40Z</time>
      </trkpt>
      <trkpt lat="44.89732" lon="5.63909">
        <ele>962.9</ele>
        <time>2010-05-29T16:18:19Z</time>
      </trkpt>
      <trkpt lat="44.89762" lon="5.63882">
        <ele>963.86</ele>
        <time>2010-05-29T16:18:34Z</time>
      </trkpt>
      <trkpt lat="44.89791" lon="5.63848">
        <ele>966.26</ele>
        <time>2010-05-29T16:18:50Z</time>
      </trkpt>
      <trkpt lat="44.89787" lon="5.63879">
        <ele>967.7</ele>
        <time>2010-05-29T16:19:01Z</time>
      </trkpt>
      <trkpt lat="44.89809" lon="5.63905">
        <ele>969.15</ele>
        <time>2010-05-29T16:19:13Z</time>
      </trkpt>
      <trkpt lat="44.89832" lon="5.63905">
        <ele>972.51</ele>
        <time>2010-05-29T16:19:25Z</time>
      </trkpt>
      <trkpt lat="44.89851" lon="5.63907">
        <ele>975.39</ele>
        <time>2010-05-29T16:19:37Z</time>
      </trkpt>
      <trkpt lat="44.89874" lon="5.63913">
        <ele>978.76</ele>
        <time>2010-05-29T16:19:52Z</time>
      </trkpt>
      <trkpt lat="44.89899" lon="5.6392">
        <ele>982.12</ele>
        <time>2010-05-29T16:20:06Z</time>
      </trkpt>
      <trkpt lat="44.89922" lon="5.63928">
        <ele>985.01</ele>
        <time>2010-05-29T16:20:21Z</time>
      </trkpt>
      <trkpt lat="44.89941" lon="5.63944">
        <ele>988.37</ele>
        <time>2010-05-29T16:20:36Z</time>
      </trkpt>
      <trkpt lat="44.89957" lon="5.63961">
        <ele>991.26</ele>
        <time>2010-05-29T16:20:51Z</time>
      </trkpt>
      <trkpt lat="44.8997" lon="5.6397">
        <ele>992.7</ele>
        <time>2010-05-29T16:21:00Z</time>
      </trkpt>
      <trkpt lat="44.89974" lon="5.63973">
        <ele>993.18</ele>
        <time>2010-05-29T16:21:03Z</time>
      </trkpt>
      <trkpt lat="44.8999" lon="5.63986">
        <ele>995.58</ele>
        <time>2010-05-29T16:21:16Z</time>
      </trkpt>
      <trkpt lat="44.89996" lon="5.6399">
        <ele>996.06</ele>
        <time>2010-05-29T16:21:20Z</time>
      </trkpt>
      <trkpt lat="44.90018" lon="5.64001">
        <ele>999.43</ele>
        <time>2010-05-29T16:21:36Z</time>
      </trkpt>
      <trkpt lat="44.9003" lon="5.64005">
        <ele>1001.83</ele>
        <time>2010-05-29T16:21:47Z</time>
      </trkpt>
      <trkpt lat="44.90047" lon="5.64016">
        <ele>1004.72</ele>
        <time>2010-05-29T16:21:58Z</time>
      </trkpt>
      <trkpt lat="44.90072" lon="5.64031">
        <ele>1008.56</ele>
        <time>2010-05-29T16:22:15Z</time>
      </trkpt>
      <trkpt lat="44.90088" lon="5.64047">
        <ele>1011.44</ele>
        <time>2010-05-29T16:22:29Z</time>
      </trkpt>
      <trkpt lat="44.90103" lon="5.64062">
        <ele>1014.81</ele>
        <time>2010-05-29T16:22:41Z</time>
      </trkpt>
      <trkpt lat="44.90113" lon="5.64072">
        <ele>1015.77</ele>
        <time>2010-05-29T16:22:48Z</time>
      </trkpt>
      <trkpt lat="44.90119" lon="5.64076">
        <ele>1017.21</ele>
        <time>2010-05-29T16:22:52Z</time>
      </trkpt>
      <trkpt lat="44.90138" lon="5.64095">
        <ele>1020.58</ele>
        <time>2010-05-29T16:23:06Z</time>
      </trkpt>
      <trkpt lat="44.90154" lon="5.64114">
        <ele>1022.5</ele>
        <time>2010-05-29T16:23:19Z</time>
      </trkpt>
      <trkpt lat="44.90168" lon="5.64135">
        <ele>1023.46</ele>
        <time>2010-05-29T16:23:34Z</time>
      </trkpt>
      <trkpt lat="44.90184" lon="5.64151">
        <ele>1024.42</ele>
        <time>2010-05-29T16:23:49Z</time>
      </trkpt>
      <trkpt lat="44.90185" lon="5.64152">
        <ele>1024.42</ele>
        <time>2010-05-29T16:23:50Z</time>
      </trkpt>
      <trkpt lat="44.902" lon="5.64163">
        <ele>1025.86</ele>
        <time>2010-05-29T16:24:05Z</time>
      </trkpt>
      <trkpt lat="44.90208" lon="5.64167">
        <ele>1026.34</ele>
        <time>2010-05-29T16:24:10Z</time>
      </trkpt>
      <trkpt lat="44.90232" lon="5.64186">
        <ele>1028.27</ele>
        <time>2010-05-29T16:24:22Z</time>
      </trkpt>
      <trkpt lat="44.90236" lon="5.64189">
        <ele>1028.75</ele>
        <time>2010-05-29T16:24:24Z</time>
      </trkpt>
      <trkpt lat="44.90251" lon="5.64201">
        <ele>1029.71</ele>
        <time>2010-05-29T16:24:30Z</time>
      </trkpt>
      <trkpt lat="44.90276" lon="5.64224">
        <ele>1032.11</ele>
        <time>2010-05-29T16:24:42Z</time>
      </trkpt>
      <trkpt lat="44.90298" lon="5.64255">
        <ele>1035</ele>
        <time>2010-05-29T16:24:56Z</time>
      </trkpt>
      <trkpt lat="44.90306" lon="5.64263">
        <ele>1036.44</ele>
        <time>2010-05-29T16:25:04Z</time>
      </trkpt>
      <trkpt lat="44.90317" lon="5.64274">
        <ele>1038.36</ele>
        <time>2010-05-29T16:25:12Z</time>
      </trkpt>
      <trkpt lat="44.90336" lon="5.64268">
        <ele>1039.8</ele>
        <time>2010-05-29T16:25:24Z</time>
      </trkpt>
      <trkpt lat="44.90347" lon="5.64259">
        <ele>1040.76</ele>
        <time>2010-05-29T16:25:31Z</time>
      </trkpt>
      <trkpt lat="44.90364" lon="5.64235">
        <ele>1041.73</ele>
        <time>2010-05-29T16:25:45Z</time>
      </trkpt>
      <trkpt lat="44.90373" lon="5.64225">
        <ele>1042.69</ele>
        <time>2010-05-29T16:25:53Z</time>
      </trkpt>
      <trkpt lat="44.90388" lon="5.64195">
        <ele>1045.57</ele>
        <time>2010-05-29T16:26:07Z</time>
      </trkpt>
      <trkpt lat="44.90397" lon="5.64166">
        <ele>1047.97</ele>
        <time>2010-05-29T16:26:19Z</time>
      </trkpt>
      <trkpt lat="44.90395" lon="5.64154">
        <ele>1048.45</ele>
        <time>2010-05-29T16:26:24Z</time>
      </trkpt>
      <trkpt lat="44.90395" lon="5.64139">
        <ele>1050.38</ele>
        <time>2010-05-29T16:26:31Z</time>
      </trkpt>
      <trkpt lat="44.90391" lon="5.64107">
        <ele>1052.78</ele>
        <time>2010-05-29T16:26:45Z</time>
      </trkpt>
      <trkpt lat="44.90387" lon="5.64086">
        <ele>1056.15</ele>
        <time>2010-05-29T16:26:54Z</time>
      </trkpt>
      <trkpt lat="44.90381" lon="5.64064">
        <ele>1057.59</ele>
        <time>2010-05-29T16:27:06Z</time>
      </trkpt>
      <trkpt lat="44.90381" lon="5.64066">
        <ele>1057.59</ele>
        <time>2010-05-29T16:27:08Z</time>
      </trkpt>
      <trkpt lat="44.90384" lon="5.64062">
        <ele>1057.11</ele>
        <time>2010-05-29T16:27:19Z</time>
      </trkpt>
      <trkpt lat="44.90385" lon="5.64061">
        <ele>1058.55</ele>
        <time>2010-05-29T16:28:16Z</time>
      </trkpt>
      <trkpt lat="44.90389" lon="5.64094">
        <ele>1053.74</ele>
        <time>2010-05-29T16:28:27Z</time>
      </trkpt>
      <trkpt lat="44.90388" lon="5.64098">
        <ele>1054.22</ele>
        <time>2010-05-29T16:28:28Z</time>
      </trkpt>
      <trkpt lat="44.90389" lon="5.64108">
        <ele>1052.3</ele>
        <time>2010-05-29T16:28:30Z</time>
      </trkpt>
      <trkpt lat="44.90389" lon="5.64115">
        <ele>1051.82</ele>
        <time>2010-05-29T16:28:31Z</time>
      </trkpt>
      <trkpt lat="44.90389" lon="5.64122">
        <ele>1051.34</ele>
        <time>2010-05-29T16:28:32Z</time>
      </trkpt>
      <trkpt lat="44.90391" lon="5.64128">
        <ele>1050.86</ele>
        <time>2010-05-29T16:28:33Z</time>
      </trkpt>
      <trkpt lat="44.90392" lon="5.64134">
        <ele>1050.38</ele>
        <time>2010-05-29T16:28:34Z</time>
      </trkpt>
      <trkpt lat="44.90392" lon="5.6414">
        <ele>1049.42</ele>
        <time>2010-05-29T16:28:35Z</time>
      </trkpt>
      <trkpt lat="44.90393" lon="5.64146">
        <ele>1049.42</ele>
        <time>2010-05-29T16:28:36Z</time>
      </trkpt>
      <trkpt lat="44.90393" lon="5.64152">
        <ele>1048.94</ele>
        <time>2010-05-29T16:28:37Z</time>
      </trkpt>
      <trkpt lat="44.90392" lon="5.64158">
        <ele>1047.97</ele>
        <time>2010-05-29T16:28:38Z</time>
      </trkpt>
      <trkpt lat="44.90391" lon="5.64163">
        <ele>1047.97</ele>
        <time>2010-05-29T16:28:39Z</time>
      </trkpt>
      <trkpt lat="44.90389" lon="5.64169">
        <ele>1047.49</ele>
        <time>2010-05-29T16:28:40Z</time>
      </trkpt>
      <trkpt lat="44.90387" lon="5.64174">
        <ele>1047.01</ele>
        <time>2010-05-29T16:28:41Z</time>
      </trkpt>
      <trkpt lat="44.90379" lon="5.64195">
        <ele>1046.05</ele>
        <time>2010-05-29T16:28:44Z</time>
      </trkpt>
      <trkpt lat="44.90376" lon="5.64202">
        <ele>1045.09</ele>
        <time>2010-05-29T16:28:45Z</time>
      </trkpt>
      <trkpt lat="44.90373" lon="5.64207">
        <ele>1044.61</ele>
        <time>2010-05-29T16:28:46Z</time>
      </trkpt>
      <trkpt lat="44.9037" lon="5.64212">
        <ele>1043.17</ele>
        <time>2010-05-29T16:28:47Z</time>
      </trkpt>
      <trkpt lat="44.90368" lon="5.64215">
        <ele>1042.69</ele>
        <time>2010-05-29T16:28:48Z</time>
      </trkpt>
      <trkpt lat="44.90367" lon="5.64218">
        <ele>1042.21</ele>
        <time>2010-05-29T16:28:49Z</time>
      </trkpt>
      <trkpt lat="44.90367" lon="5.6422">
        <ele>1042.21</ele>
        <time>2010-05-29T16:28:50Z</time>
      </trkpt>
      <trkpt lat="44.90367" lon="5.64221">
        <ele>1042.21</ele>
        <time>2010-05-29T16:28:51Z</time>
      </trkpt>
      <trkpt lat="44.90368" lon="5.64221">
        <ele>1042.69</ele>
        <time>2010-05-29T16:28:52Z</time>
      </trkpt>
      <trkpt lat="44.9037" lon="5.6422">
        <ele>1042.21</ele>
        <time>2010-05-29T16:28:54Z</time>
      </trkpt>
      <trkpt lat="44.90371" lon="5.64219">
        <ele>1042.21</ele>
        <time>2010-05-29T16:28:55Z</time>
      </trkpt>
      <trkpt lat="44.90373" lon="5.64217">
        <ele>1042.21</ele>
        <time>2010-05-29T16:28:56Z</time>
      </trkpt>
      <trkpt lat="44.90388" lon="5.64199">
        <ele>1041.73</ele>
        <time>2010-05-29T16:29:05Z</time>
      </trkpt>
      <trkpt lat="44.90395" lon="5.64194">
        <ele>1041.73</ele>
        <time>2010-05-29T16:29:08Z</time>
      </trkpt>
      <trkpt lat="44.90397" lon="5.64192">
        <ele>1041.73</ele>
        <time>2010-05-29T16:29:09Z</time>
      </trkpt>
      <trkpt lat="44.90399" lon="5.64188">
        <ele>1041.73</ele>
        <time>2010-05-29T16:29:10Z</time>
      </trkpt>
      <trkpt lat="44.90402" lon="5.64184">
        <ele>1041.25</ele>
        <time>2010-05-29T16:29:11Z</time>
      </trkpt>
      <trkpt lat="44.90405" lon="5.64179">
        <ele>1041.25</ele>
        <time>2010-05-29T16:29:12Z</time>
      </trkpt>
      <trkpt lat="44.90407" lon="5.64172">
        <ele>1040.76</ele>
        <time>2010-05-29T16:29:13Z</time>
      </trkpt>
      <trkpt lat="44.9041" lon="5.64164">
        <ele>1040.76</ele>
        <time>2010-05-29T16:29:14Z</time>
      </trkpt>
      <trkpt lat="44.90412" lon="5.64155">
        <ele>1040.76</ele>
        <time>2010-05-29T16:29:15Z</time>
      </trkpt>
      <trkpt lat="44.90413" lon="5.64146">
        <ele>1039.32</ele>
        <time>2010-05-29T16:29:16Z</time>
      </trkpt>
      <trkpt lat="44.90415" lon="5.64128">
        <ele>1038.84</ele>
        <time>2010-05-29T16:29:18Z</time>
      </trkpt>
      <trkpt lat="44.90418" lon="5.64119">
        <ele>1038.84</ele>
        <time>2010-05-29T16:29:19Z</time>
      </trkpt>
      <trkpt lat="44.90421" lon="5.6411">
        <ele>1038.84</ele>
        <time>2010-05-29T16:29:20Z</time>
      </trkpt>
      <trkpt lat="44.90434" lon="5.64087">
        <ele>1035.96</ele>
        <time>2010-05-29T16:29:23Z</time>
      </trkpt>
      <trkpt lat="44.90457" lon="5.64053">
        <ele>1033.07</ele>
        <time>2010-05-29T16:29:28Z</time>
      </trkpt>
      <trkpt lat="44.90462" lon="5.64047">
        <ele>1032.11</ele>
        <time>2010-05-29T16:29:29Z</time>
      </trkpt>
      <trkpt lat="44.90469" lon="5.64042">
        <ele>1031.63</ele>
        <time>2010-05-29T16:29:30Z</time>
      </trkpt>
      <trkpt lat="44.90476" lon="5.64039">
        <ele>1030.67</ele>
        <time>2010-05-29T16:29:31Z</time>
      </trkpt>
      <trkpt lat="44.90482" lon="5.64036">
        <ele>1029.71</ele>
        <time>2010-05-29T16:29:32Z</time>
      </trkpt>
      <trkpt lat="44.90489" lon="5.64035">
        <ele>1029.71</ele>
        <time>2010-05-29T16:29:33Z</time>
      </trkpt>
      <trkpt lat="44.90495" lon="5.64034">
        <ele>1028.27</ele>
        <time>2010-05-29T16:29:34Z</time>
      </trkpt>
      <trkpt lat="44.90507" lon="5.64033">
        <ele>1026.83</ele>
        <time>2010-05-29T16:29:36Z</time>
      </trkpt>
      <trkpt lat="44.90522" lon="5.64032">
        <ele>1024.42</ele>
        <time>2010-05-29T16:29:39Z</time>
      </trkpt>
      <trkpt lat="44.90524" lon="5.64029">
        <ele>1023.46</ele>
        <time>2010-05-29T16:29:40Z</time>
      </trkpt>
      <trkpt lat="44.90527" lon="5.64026">
        <ele>1022.98</ele>
        <time>2010-05-29T16:29:41Z</time>
      </trkpt>
      <trkpt lat="44.90529" lon="5.64024">
        <ele>1022.98</ele>
        <time>2010-05-29T16:29:42Z</time>
      </trkpt>
      <trkpt lat="44.9053" lon="5.64022">
        <ele>1022.5</ele>
        <time>2010-05-29T16:29:43Z</time>
      </trkpt>
      <trkpt lat="44.90531" lon="5.64021">
        <ele>1022.98</ele>
        <time>2010-05-29T16:30:04Z</time>
      </trkpt>
      <trkpt lat="44.9053" lon="5.64019">
        <ele>1022.02</ele>
        <time>2010-05-29T16:30:11Z</time>
      </trkpt>
      <trkpt lat="44.9053" lon="5.64019">
        <ele>1022.5</ele>
        <time>2010-05-29T16:30:12Z</time>
      </trkpt>
      <trkpt lat="44.9053" lon="5.6402">
        <ele>1022.5</ele>
        <time>2010-05-29T16:30:13Z</time>
      </trkpt>
      <trkpt lat="44.90529" lon="5.64021">
        <ele>1023.94</ele>
        <time>2010-05-29T16:30:14Z</time>
      </trkpt>
      <trkpt lat="44.90528" lon="5.64021">
        <ele>1023.94</ele>
        <time>2010-05-29T16:30:15Z</time>
      </trkpt>
      <trkpt lat="44.90526" lon="5.64021">
        <ele>1024.9</ele>
        <time>2010-05-29T16:30:17Z</time>
      </trkpt>
      <trkpt lat="44.90525" lon="5.6402">
        <ele>1025.38</ele>
        <time>2010-05-29T16:30:18Z</time>
      </trkpt>
      <trkpt lat="44.90526" lon="5.64017">
        <ele>1025.38</ele>
        <time>2010-05-29T16:30:32Z</time>
      </trkpt>
      <trkpt lat="44.90525" lon="5.6402">
        <ele>1025.38</ele>
        <time>2010-05-29T16:30:51Z</time>
      </trkpt>
      <trkpt lat="44.90527" lon="5.64022">
        <ele>1024.42</ele>
        <time>2010-05-29T16:30:53Z</time>
      </trkpt>
      <trkpt lat="44.90528" lon="5.64021">
        <ele>1022.98</ele>
        <time>2010-05-29T16:30:54Z</time>
      </trkpt>
      <trkpt lat="44.90531" lon="5.64021">
        <ele>1022.98</ele>
        <time>2010-05-29T16:30:55Z</time>
      </trkpt>
      <trkpt lat="44.90533" lon="5.6402">
        <ele>1022.02</ele>
        <time>2010-05-29T16:30:56Z</time>
      </trkpt>
      <trkpt lat="44.90536" lon="5.6402">
        <ele>1022.02</ele>
        <time>2010-05-29T16:30:57Z</time>
      </trkpt>
      <trkpt lat="44.90538" lon="5.64019">
        <ele>1022.5</ele>
        <time>2010-05-29T16:31:08Z</time>
      </trkpt>
      <trkpt lat="44.90539" lon="5.64018">
        <ele>1022.5</ele>
        <time>2010-05-29T16:31:09Z</time>
      </trkpt>
      <trkpt lat="44.90541" lon="5.64008">
        <ele>1020.58</ele>
        <time>2010-05-29T16:31:15Z</time>
      </trkpt>
      <trkpt lat="44.90544" lon="5.64004">
        <ele>1019.62</ele>
        <time>2010-05-29T16:31:18Z</time>
      </trkpt>
      <trkpt lat="44.90545" lon="5.64002">
        <ele>1019.62</ele>
        <time>2010-05-29T16:31:19Z</time>
      </trkpt>
      <trkpt lat="44.90547" lon="5.63995">
        <ele>1019.13</ele>
        <time>2010-05-29T16:31:22Z</time>
      </trkpt>
      <trkpt lat="44.90548" lon="5.63992">
        <ele>1018.17</ele>
        <time>2010-05-29T16:31:23Z</time>
      </trkpt>
      <trkpt lat="44.90549" lon="5.63989">
        <ele>1017.69</ele>
        <time>2010-05-29T16:31:24Z</time>
      </trkpt>
      <trkpt lat="44.9055" lon="5.63986">
        <ele>1016.73</ele>
        <time>2010-05-29T16:31:25Z</time>
      </trkpt>
      <trkpt lat="44.9055" lon="5.63983">
        <ele>1016.73</ele>
        <time>2010-05-29T16:31:26Z</time>
      </trkpt>
      <trkpt lat="44.9055" lon="5.6398">
        <ele>1016.25</ele>
        <time>2010-05-29T16:31:27Z</time>
      </trkpt>
      <trkpt lat="44.90549" lon="5.63977">
        <ele>1015.77</ele>
        <time>2010-05-29T16:31:28Z</time>
      </trkpt>
      <trkpt lat="44.90548" lon="5.63973">
        <ele>1014.81</ele>
        <time>2010-05-29T16:31:29Z</time>
      </trkpt>
      <trkpt lat="44.90548" lon="5.63971">
        <ele>1013.85</ele>
        <time>2010-05-29T16:31:30Z</time>
      </trkpt>
      <trkpt lat="44.90548" lon="5.63968">
        <ele>1013.37</ele>
        <time>2010-05-29T16:31:31Z</time>
      </trkpt>
      <trkpt lat="44.90548" lon="5.63962">
        <ele>1012.41</ele>
        <time>2010-05-29T16:31:35Z</time>
      </trkpt>
      <trkpt lat="44.90546" lon="5.63958">
        <ele>1011.93</ele>
        <time>2010-05-29T16:31:36Z</time>
      </trkpt>
      <trkpt lat="44.90543" lon="5.63955">
        <ele>1010.96</ele>
        <time>2010-05-29T16:31:37Z</time>
      </trkpt>
      <trkpt lat="44.90541" lon="5.63952">
        <ele>1010.96</ele>
        <time>2010-05-29T16:31:38Z</time>
      </trkpt>
      <trkpt lat="44.90539" lon="5.6395">
        <ele>1010</ele>
        <time>2010-05-29T16:31:39Z</time>
      </trkpt>
      <trkpt lat="44.90539" lon="5.63948">
        <ele>1010</ele>
        <time>2010-05-29T16:31:40Z</time>
      </trkpt>
      <trkpt lat="44.9054" lon="5.63944">
        <ele>1009.04</ele>
        <time>2010-05-29T16:31:42Z</time>
      </trkpt>
      <trkpt lat="44.90544" lon="5.63943">
        <ele>1007.6</ele>
        <time>2010-05-29T16:31:45Z</time>
      </trkpt>
      <trkpt lat="44.90571" lon="5.63943">
        <ele>1006.16</ele>
        <time>2010-05-29T16:31:54Z</time>
      </trkpt>
      <trkpt lat="44.90598" lon="5.63935">
        <ele>1003.75</ele>
        <time>2010-05-29T16:32:04Z</time>
      </trkpt>
      <trkpt lat="44.90627" lon="5.63926">
        <ele>1003.75</ele>
        <time>2010-05-29T16:32:13Z</time>
      </trkpt>
      <trkpt lat="44.90633" lon="5.63925">
        <ele>1005.2</ele>
        <time>2010-05-29T16:32:16Z</time>
      </trkpt>
      <trkpt lat="44.90639" lon="5.63924">
        <ele>1005.2</ele>
        <time>2010-05-29T16:32:19Z</time>
      </trkpt>
      <trkpt lat="44.90648" lon="5.63918">
        <ele>1004.72</ele>
        <time>2010-05-29T16:32:24Z</time>
      </trkpt>
      <trkpt lat="44.90673" lon="5.63906">
        <ele>1003.75</ele>
        <time>2010-05-29T16:32:32Z</time>
      </trkpt>
      <trkpt lat="44.90679" lon="5.63902">
        <ele>1004.23</ele>
        <time>2010-05-29T16:32:39Z</time>
      </trkpt>
      <trkpt lat="44.90694" lon="5.63888">
        <ele>1001.35</ele>
        <time>2010-05-29T16:32:45Z</time>
      </trkpt>
      <trkpt lat="44.90699" lon="5.63883">
        <ele>999.43</ele>
        <time>2010-05-29T16:32:47Z</time>
      </trkpt>
      <trkpt lat="44.90705" lon="5.6388">
        <ele>998.47</ele>
        <time>2010-05-29T16:32:49Z</time>
      </trkpt>
      <trkpt lat="44.90742" lon="5.6386">
        <ele>993.66</ele>
        <time>2010-05-29T16:32:57Z</time>
      </trkpt>
      <trkpt lat="44.90745" lon="5.63858">
        <ele>993.66</ele>
        <time>2010-05-29T16:32:58Z</time>
      </trkpt>
      <trkpt lat="44.90756" lon="5.63853">
        <ele>991.74</ele>
        <time>2010-05-29T16:33:02Z</time>
      </trkpt>
      <trkpt lat="44.90766" lon="5.63827">
        <ele>987.89</ele>
        <time>2010-05-29T16:33:10Z</time>
      </trkpt>
      <trkpt lat="44.90777" lon="5.63817">
        <ele>986.45</ele>
        <time>2010-05-29T16:33:14Z</time>
      </trkpt>
      <trkpt lat="44.90787" lon="5.63805">
        <ele>985.01</ele>
        <time>2010-05-29T16:33:17Z</time>
      </trkpt>
      <trkpt lat="44.90794" lon="5.63799">
        <ele>984.05</ele>
        <time>2010-05-29T16:33:19Z</time>
      </trkpt>
      <trkpt lat="44.90806" lon="5.63785">
        <ele>981.64</ele>
        <time>2010-05-29T16:33:23Z</time>
      </trkpt>
      <trkpt lat="44.90815" lon="5.63776">
        <ele>980.2</ele>
        <time>2010-05-29T16:33:26Z</time>
      </trkpt>
      <trkpt lat="44.90821" lon="5.63772">
        <ele>978.76</ele>
        <time>2010-05-29T16:33:28Z</time>
      </trkpt>
      <trkpt lat="44.90829" lon="5.63768">
        <ele>978.76</ele>
        <time>2010-05-29T16:33:32Z</time>
      </trkpt>
      <trkpt lat="44.90834" lon="5.63761">
        <ele>977.32</ele>
        <time>2010-05-29T16:33:48Z</time>
      </trkpt>
      <trkpt lat="44.90827" lon="5.63756">
        <ele>975.39</ele>
        <time>2010-05-29T16:33:53Z</time>
      </trkpt>
      <trkpt lat="44.90817" lon="5.63755">
        <ele>973.47</ele>
        <time>2010-05-29T16:33:57Z</time>
      </trkpt>
      <trkpt lat="44.90792" lon="5.63755">
        <ele>970.11</ele>
        <time>2010-05-29T16:34:04Z</time>
      </trkpt>
      <trkpt lat="44.90785" lon="5.63757">
        <ele>968.67</ele>
        <time>2010-05-29T16:34:07Z</time>
      </trkpt>
      <trkpt lat="44.9078" lon="5.63761">
        <ele>968.18</ele>
        <time>2010-05-29T16:34:09Z</time>
      </trkpt>
      <trkpt lat="44.90767" lon="5.63772">
        <ele>965.78</ele>
        <time>2010-05-29T16:34:23Z</time>
      </trkpt>
      <trkpt lat="44.90757" lon="5.63762">
        <ele>962.9</ele>
        <time>2010-05-29T16:34:33Z</time>
      </trkpt>
      <trkpt lat="44.90762" lon="5.63763">
        <ele>960.98</ele>
        <time>2010-05-29T16:34:40Z</time>
      </trkpt>
      <trkpt lat="44.90765" lon="5.63757">
        <ele>959.53</ele>
        <time>2010-05-29T16:34:43Z</time>
      </trkpt>
      <trkpt lat="44.90766" lon="5.63755">
        <ele>959.53</ele>
        <time>2010-05-29T16:34:44Z</time>
      </trkpt>
      <trkpt lat="44.90783" lon="5.63731">
        <ele>955.69</ele>
        <time>2010-05-29T16:34:54Z</time>
      </trkpt>
      <trkpt lat="44.90786" lon="5.63728">
        <ele>955.21</ele>
        <time>2010-05-29T16:34:55Z</time>
      </trkpt>
      <trkpt lat="44.90812" lon="5.63704">
        <ele>951.84</ele>
        <time>2010-05-29T16:35:04Z</time>
      </trkpt>
      <trkpt lat="44.90817" lon="5.63702">
        <ele>951.36</ele>
        <time>2010-05-29T16:35:05Z</time>
      </trkpt>
      <trkpt lat="44.90828" lon="5.63697">
        <ele>949.44</ele>
        <time>2010-05-29T16:35:09Z</time>
      </trkpt>
      <trkpt lat="44.9086" lon="5.63682">
        <ele>948</ele>
        <time>2010-05-29T16:35:21Z</time>
      </trkpt>
      <trkpt lat="44.90881" lon="5.63676">
        <ele>948</ele>
        <time>2010-05-29T16:35:28Z</time>
      </trkpt>
      <trkpt lat="44.90902" lon="5.63665">
        <ele>945.11</ele>
        <time>2010-05-29T16:35:37Z</time>
      </trkpt>
      <trkpt lat="44.90912" lon="5.63664">
        <ele>944.15</ele>
        <time>2010-05-29T16:35:51Z</time>
      </trkpt>
      <trkpt lat="44.90923" lon="5.63657">
        <ele>941.75</ele>
        <time>2010-05-29T16:36:22Z</time>
      </trkpt>
      <trkpt lat="44.90935" lon="5.63655">
        <ele>941.75</ele>
        <time>2010-05-29T16:36:28Z</time>
      </trkpt>
      <trkpt lat="44.90962" lon="5.6364">
        <ele>939.35</ele>
        <time>2010-05-29T16:36:39Z</time>
      </trkpt>
      <trkpt lat="44.90989" lon="5.63637">
        <ele>937.42</ele>
        <time>2010-05-29T16:36:48Z</time>
      </trkpt>
      <trkpt lat="44.91" lon="5.63639">
        <ele>935.98</ele>
        <time>2010-05-29T16:36:51Z</time>
      </trkpt>
      <trkpt lat="44.91013" lon="5.63639">
        <ele>935.5</ele>
        <time>2010-05-29T16:36:55Z</time>
      </trkpt>
      <trkpt lat="44.91037" lon="5.63641">
        <ele>933.1</ele>
        <time>2010-05-29T16:37:00Z</time>
      </trkpt>
      <trkpt lat="44.91042" lon="5.63643">
        <ele>933.58</ele>
        <time>2010-05-29T16:37:01Z</time>
      </trkpt>
      <trkpt lat="44.91047" lon="5.63645">
        <ele>933.1</ele>
        <time>2010-05-29T16:37:02Z</time>
      </trkpt>
      <trkpt lat="44.91086" lon="5.6367">
        <ele>932.62</ele>
        <time>2010-05-29T16:37:13Z</time>
      </trkpt>
      <trkpt lat="44.91091" lon="5.63674">
        <ele>931.17</ele>
        <time>2010-05-29T16:37:15Z</time>
      </trkpt>
      <trkpt lat="44.91128" lon="5.63686">
        <ele>928.29</ele>
        <time>2010-05-29T16:37:24Z</time>
      </trkpt>
      <trkpt lat="44.91148" lon="5.63694">
        <ele>924.93</ele>
        <time>2010-05-29T16:37:30Z</time>
      </trkpt>
      <trkpt lat="44.9115" lon="5.63694">
        <ele>924.45</ele>
        <time>2010-05-29T16:37:31Z</time>
      </trkpt>
      <trkpt lat="44.91161" lon="5.63694">
        <ele>920.6</ele>
        <time>2010-05-29T16:37:36Z</time>
      </trkpt>
      <trkpt lat="44.91166" lon="5.63697">
        <ele>919.16</ele>
        <time>2010-05-29T16:37:38Z</time>
      </trkpt>
      <trkpt lat="44.91172" lon="5.637">
        <ele>917.72</ele>
        <time>2010-05-29T16:37:40Z</time>
      </trkpt>
      <trkpt lat="44.91178" lon="5.63706">
        <ele>916.75</ele>
        <time>2010-05-29T16:37:43Z</time>
      </trkpt>
      <trkpt lat="44.91186" lon="5.63708">
        <ele>915.31</ele>
        <time>2010-05-29T16:37:47Z</time>
      </trkpt>
      <trkpt lat="44.91201" lon="5.63709">
        <ele>913.87</ele>
        <time>2010-05-29T16:37:59Z</time>
      </trkpt>
      <trkpt lat="44.91212" lon="5.63709">
        <ele>913.39</ele>
        <time>2010-05-29T16:38:11Z</time>
      </trkpt>
      <trkpt lat="44.91212" lon="5.63706">
        <ele>912.91</ele>
        <time>2010-05-29T16:38:16Z</time>
      </trkpt>
      <trkpt lat="44.91216" lon="5.63696">
        <ele>910.99</ele>
        <time>2010-05-29T16:38:21Z</time>
      </trkpt>
      <trkpt lat="44.91214" lon="5.63684">
        <ele>908.58</ele>
        <time>2010-05-29T16:38:25Z</time>
      </trkpt>
      <trkpt lat="44.91214" lon="5.63674">
        <ele>906.18</ele>
        <time>2010-05-29T16:38:28Z</time>
      </trkpt>
      <trkpt lat="44.91217" lon="5.63668">
        <ele>904.26</ele>
        <time>2010-05-29T16:38:32Z</time>
      </trkpt>
      <trkpt lat="44.91224" lon="5.63656">
        <ele>900.41</ele>
        <time>2010-05-29T16:38:36Z</time>
      </trkpt>
      <trkpt lat="44.91237" lon="5.63648">
        <ele>895.61</ele>
        <time>2010-05-29T16:38:40Z</time>
      </trkpt>
      <trkpt lat="44.9124" lon="5.63647">
        <ele>895.12</ele>
        <time>2010-05-29T16:38:42Z</time>
      </trkpt>
      <trkpt lat="44.91242" lon="5.63647">
        <ele>895.61</ele>
        <time>2010-05-29T16:38:52Z</time>
      </trkpt>
      <trkpt lat="44.91263" lon="5.63644">
        <ele>891.76</ele>
        <time>2010-05-29T16:39:01Z</time>
      </trkpt>
      <trkpt lat="44.91275" lon="5.63644">
        <ele>890.32</ele>
        <time>2010-05-29T16:39:03Z</time>
      </trkpt>
      <trkpt lat="44.91285" lon="5.63646">
        <ele>887.91</ele>
        <time>2010-05-29T16:39:05Z</time>
      </trkpt>
      <trkpt lat="44.9129" lon="5.63648">
        <ele>887.91</ele>
        <time>2010-05-29T16:39:06Z</time>
      </trkpt>
      <trkpt lat="44.91294" lon="5.63648">
        <ele>887.43</ele>
        <time>2010-05-29T16:39:07Z</time>
      </trkpt>
      <trkpt lat="44.91299" lon="5.63649">
        <ele>886.47</ele>
        <time>2010-05-29T16:39:08Z</time>
      </trkpt>
      <trkpt lat="44.91305" lon="5.6365">
        <ele>885.51</ele>
        <time>2010-05-29T16:39:09Z</time>
      </trkpt>
      <trkpt lat="44.91309" lon="5.63651">
        <ele>885.03</ele>
        <time>2010-05-29T16:39:10Z</time>
      </trkpt>
      <trkpt lat="44.91314" lon="5.63652">
        <ele>884.55</ele>
        <time>2010-05-29T16:39:11Z</time>
      </trkpt>
      <trkpt lat="44.91318" lon="5.63653">
        <ele>883.59</ele>
        <time>2010-05-29T16:39:12Z</time>
      </trkpt>
      <trkpt lat="44.91324" lon="5.63654">
        <ele>883.59</ele>
        <time>2010-05-29T16:39:13Z</time>
      </trkpt>
      <trkpt lat="44.91329" lon="5.63655">
        <ele>881.67</ele>
        <time>2010-05-29T16:39:14Z</time>
      </trkpt>
      <trkpt lat="44.91333" lon="5.63656">
        <ele>881.19</ele>
        <time>2010-05-29T16:39:15Z</time>
      </trkpt>
      <trkpt lat="44.91336" lon="5.63657">
        <ele>881.19</ele>
        <time>2010-05-29T16:39:16Z</time>
      </trkpt>
      <trkpt lat="44.91342" lon="5.63659">
        <ele>880.22</ele>
        <time>2010-05-29T16:39:19Z</time>
      </trkpt>
      <trkpt lat="44.91344" lon="5.63661">
        <ele>879.74</ele>
        <time>2010-05-29T16:39:20Z</time>
      </trkpt>
      <trkpt lat="44.91346" lon="5.63662">
        <ele>878.78</ele>
        <time>2010-05-29T16:39:21Z</time>
      </trkpt>
      <trkpt lat="44.91347" lon="5.63663">
        <ele>878.78</ele>
        <time>2010-05-29T16:39:22Z</time>
      </trkpt>
      <trkpt lat="44.91355" lon="5.63663">
        <ele>875.9</ele>
        <time>2010-05-29T16:39:27Z</time>
      </trkpt>
      <trkpt lat="44.91357" lon="5.63662">
        <ele>874.46</ele>
        <time>2010-05-29T16:39:28Z</time>
      </trkpt>
      <trkpt lat="44.91359" lon="5.6366">
        <ele>873.98</ele>
        <time>2010-05-29T16:39:29Z</time>
      </trkpt>
      <trkpt lat="44.91363" lon="5.63657">
        <ele>872.05</ele>
        <time>2010-05-29T16:39:44Z</time>
      </trkpt>
      <trkpt lat="44.9137" lon="5.63651">
        <ele>870.13</ele>
        <time>2010-05-29T16:39:57Z</time>
      </trkpt>
      <trkpt lat="44.91374" lon="5.63643">
        <ele>867.25</ele>
        <time>2010-05-29T16:40:18Z</time>
      </trkpt>
      <trkpt lat="44.9138" lon="5.63632">
        <ele>865.8</ele>
        <time>2010-05-29T16:40:21Z</time>
      </trkpt>
      <trkpt lat="44.91381" lon="5.63623">
        <ele>864.36</ele>
        <time>2010-05-29T16:40:32Z</time>
      </trkpt>
      <trkpt lat="44.91382" lon="5.63616">
        <ele>864.36</ele>
        <time>2010-05-29T16:40:41Z</time>
      </trkpt>
      <trkpt lat="44.91386" lon="5.6361">
        <ele>861.96</ele>
        <time>2010-05-29T16:40:45Z</time>
      </trkpt>
      <trkpt lat="44.91391" lon="5.63591">
        <ele>859.08</ele>
        <time>2010-05-29T16:40:52Z</time>
      </trkpt>
      <trkpt lat="44.91393" lon="5.63586">
        <ele>858.59</ele>
        <time>2010-05-29T16:40:53Z</time>
      </trkpt>
      <trkpt lat="44.91397" lon="5.63562">
        <ele>857.15</ele>
        <time>2010-05-29T16:40:56Z</time>
      </trkpt>
      <trkpt lat="44.91401" lon="5.63547">
        <ele>856.19</ele>
        <time>2010-05-29T16:40:58Z</time>
      </trkpt>
      <trkpt lat="44.91406" lon="5.63506">
        <ele>853.31</ele>
        <time>2010-05-29T16:41:04Z</time>
      </trkpt>
      <trkpt lat="44.91407" lon="5.63497">
        <ele>852.83</ele>
        <time>2010-05-29T16:41:08Z</time>
      </trkpt>
      <trkpt lat="44.91412" lon="5.63496">
        <ele>852.35</ele>
        <time>2010-05-29T16:41:18Z</time>
      </trkpt>
      <trkpt lat="44.91413" lon="5.63497">
        <ele>852.35</ele>
        <time>2010-05-29T16:41:20Z</time>
      </trkpt>
      <trkpt lat="44.91406" lon="5.63479">
        <ele>852.83</ele>
        <time>2010-05-29T16:41:28Z</time>
      </trkpt>
      <trkpt lat="44.91401" lon="5.63473">
        <ele>852.35</ele>
        <time>2010-05-29T16:41:31Z</time>
      </trkpt>
      <trkpt lat="44.91383" lon="5.63431">
        <ele>855.23</ele>
        <time>2010-05-29T16:41:45Z</time>
      </trkpt>
      <trkpt lat="44.91397" lon="5.63382">
        <ele>858.11</ele>
        <time>2010-05-29T16:41:58Z</time>
      </trkpt>
      <trkpt lat="44.91418" lon="5.63335">
        <ele>859.08</ele>
        <time>2010-05-29T16:42:12Z</time>
      </trkpt>
      <trkpt lat="44.91419" lon="5.63333">
        <ele>858.59</ele>
        <time>2010-05-29T16:42:23Z</time>
      </trkpt>
      <trkpt lat="44.91419" lon="5.63333">
        <ele>859.08</ele>
        <time>2010-05-29T16:42:29Z</time>
      </trkpt>
      <trkpt lat="44.91413" lon="5.63323">
        <ele>859.56</ele>
        <time>2010-05-29T16:42:34Z</time>
      </trkpt>
      <trkpt lat="44.91362" lon="5.6329">
        <ele>861.48</ele>
        <time>2010-05-29T16:42:50Z</time>
      </trkpt>
      <trkpt lat="44.91355" lon="5.63285">
        <ele>862.44</ele>
        <time>2010-05-29T16:42:52Z</time>
      </trkpt>
      <trkpt lat="44.91305" lon="5.63254">
        <ele>863.4</ele>
        <time>2010-05-29T16:43:06Z</time>
      </trkpt>
      <trkpt lat="44.91265" lon="5.63235">
        <ele>864.84</ele>
        <time>2010-05-29T16:43:18Z</time>
      </trkpt>
      <trkpt lat="44.91258" lon="5.6323">
        <ele>864.84</ele>
        <time>2010-05-29T16:43:28Z</time>
      </trkpt>
      <trkpt lat="44.91258" lon="5.6323">
        <ele>862.92</ele>
        <time>2010-05-29T16:43:46Z</time>
      </trkpt>
      <trkpt lat="44.91258" lon="5.6323">
        <ele>864.84</ele>
        <time>2010-05-29T16:43:59Z</time>
      </trkpt>
      <trkpt lat="44.91258" lon="5.6323">
        <ele>861.48</ele>
        <time>2010-05-29T16:44:02Z</time>
      </trkpt>
      <trkpt lat="44.91258" lon="5.6323">
        <ele>864.36</ele>
        <time>2010-05-29T16:44:04Z</time>
      </trkpt>
      <trkpt lat="44.91258" lon="5.63231">
        <ele>861.96</ele>
        <time>2010-05-29T16:48:11Z</time>
      </trkpt>
      <trkpt lat="44.91259" lon="5.63231">
        <ele>862.44</ele>
        <time>2010-05-29T16:48:48Z</time>
      </trkpt>
      <trkpt lat="44.91259" lon="5.63231">
        <ele>861.96</ele>
        <time>2010-05-29T16:49:20Z</time>
      </trkpt>
      <trkpt lat="44.91252" lon="5.63228">
        <ele>861.96</ele>
        <time>2010-05-29T16:49:40Z</time>
      </trkpt>
      <trkpt lat="44.91236" lon="5.6322">
        <ele>862.92</ele>
        <time>2010-05-29T16:49:52Z</time>
      </trkpt>
      <trkpt lat="44.91179" lon="5.63189">
        <ele>865.8</ele>
        <time>2010-05-29T16:50:01Z</time>
      </trkpt>
      <trkpt lat="44.91121" lon="5.63159">
        <ele>868.69</ele>
        <time>2010-05-29T16:50:09Z</time>
      </trkpt>
      <trkpt lat="44.91071" lon="5.63132">
        <ele>872.05</ele>
        <time>2010-05-29T16:50:15Z</time>
      </trkpt>
      <trkpt lat="44.91027" lon="5.63109">
        <ele>875.42</ele>
        <time>2010-05-29T16:50:20Z</time>
      </trkpt>
      <trkpt lat="44.90988" lon="5.63087">
        <ele>878.78</ele>
        <time>2010-05-29T16:50:24Z</time>
      </trkpt>
      <trkpt lat="44.90966" lon="5.63075">
        <ele>882.63</ele>
        <time>2010-05-29T16:50:26Z</time>
      </trkpt>
      <trkpt lat="44.90918" lon="5.63048">
        <ele>885.99</ele>
        <time>2010-05-29T16:50:30Z</time>
      </trkpt>
      <trkpt lat="44.90881" lon="5.63022">
        <ele>889.36</ele>
        <time>2010-05-29T16:50:33Z</time>
      </trkpt>
      <trkpt lat="44.90839" lon="5.62976">
        <ele>893.2</ele>
        <time>2010-05-29T16:50:37Z</time>
      </trkpt>
      <trkpt lat="44.90821" lon="5.62948">
        <ele>896.57</ele>
        <time>2010-05-29T16:50:39Z</time>
      </trkpt>
      <trkpt lat="44.90813" lon="5.62931">
        <ele>898.01</ele>
        <time>2010-05-29T16:50:40Z</time>
      </trkpt>
      <trkpt lat="44.90791" lon="5.6288">
        <ele>900.89</ele>
        <time>2010-05-29T16:50:43Z</time>
      </trkpt>
      <trkpt lat="44.90777" lon="5.62831">
        <ele>902.33</ele>
        <time>2010-05-29T16:50:46Z</time>
      </trkpt>
      <trkpt lat="44.90776" lon="5.62816">
        <ele>902.82</ele>
        <time>2010-05-29T16:50:47Z</time>
      </trkpt>
      <trkpt lat="44.90777" lon="5.62802">
        <ele>903.3</ele>
        <time>2010-05-29T16:50:48Z</time>
      </trkpt>
      <trkpt lat="44.9078" lon="5.62789">
        <ele>903.78</ele>
        <time>2010-05-29T16:50:49Z</time>
      </trkpt>
      <trkpt lat="44.90784" lon="5.62776">
        <ele>904.26</ele>
        <time>2010-05-29T16:50:50Z</time>
      </trkpt>
      <trkpt lat="44.90789" lon="5.62764">
        <ele>905.22</ele>
        <time>2010-05-29T16:50:51Z</time>
      </trkpt>
      <trkpt lat="44.90796" lon="5.62752">
        <ele>906.18</ele>
        <time>2010-05-29T16:50:52Z</time>
      </trkpt>
      <trkpt lat="44.90806" lon="5.62728">
        <ele>907.14</ele>
        <time>2010-05-29T16:50:54Z</time>
      </trkpt>
      <trkpt lat="44.90809" lon="5.62716">
        <ele>907.14</ele>
        <time>2010-05-29T16:50:55Z</time>
      </trkpt>
      <trkpt lat="44.90812" lon="5.62704">
        <ele>907.14</ele>
        <time>2010-05-29T16:50:56Z</time>
      </trkpt>
      <trkpt lat="44.90817" lon="5.62673">
        <ele>907.62</ele>
        <time>2010-05-29T16:50:59Z</time>
      </trkpt>
      <trkpt lat="44.9082" lon="5.62664">
        <ele>907.62</ele>
        <time>2010-05-29T16:51:00Z</time>
      </trkpt>
      <trkpt lat="44.90824" lon="5.62653">
        <ele>907.62</ele>
        <time>2010-05-29T16:51:01Z</time>
      </trkpt>
      <trkpt lat="44.90826" lon="5.62642">
        <ele>907.14</ele>
        <time>2010-05-29T16:51:02Z</time>
      </trkpt>
      <trkpt lat="44.90826" lon="5.6263">
        <ele>906.66</ele>
        <time>2010-05-29T16:51:03Z</time>
      </trkpt>
      <trkpt lat="44.90823" lon="5.6262">
        <ele>905.7</ele>
        <time>2010-05-29T16:51:04Z</time>
      </trkpt>
      <trkpt lat="44.90818" lon="5.62611">
        <ele>905.7</ele>
        <time>2010-05-29T16:51:05Z</time>
      </trkpt>
      <trkpt lat="44.90813" lon="5.62606">
        <ele>906.18</ele>
        <time>2010-05-29T16:51:06Z</time>
      </trkpt>
      <trkpt lat="44.90808" lon="5.62601">
        <ele>906.66</ele>
        <time>2010-05-29T16:51:07Z</time>
      </trkpt>
      <trkpt lat="44.90803" lon="5.62597">
        <ele>905.7</ele>
        <time>2010-05-29T16:51:08Z</time>
      </trkpt>
      <trkpt lat="44.908" lon="5.62593">
        <ele>906.18</ele>
        <time>2010-05-29T16:51:09Z</time>
      </trkpt>
      <trkpt lat="44.90797" lon="5.62588">
        <ele>906.18</ele>
        <time>2010-05-29T16:51:10Z</time>
      </trkpt>
      <trkpt lat="44.90796" lon="5.62585">
        <ele>905.7</ele>
        <time>2010-05-29T16:51:11Z</time>
      </trkpt>
      <trkpt lat="44.90795" lon="5.62582">
        <ele>905.7</ele>
        <time>2010-05-29T16:51:12Z</time>
      </trkpt>
      <trkpt lat="44.90794" lon="5.62579">
        <ele>905.22</ele>
        <time>2010-05-29T16:51:13Z</time>
      </trkpt>
      <trkpt lat="44.90793" lon="5.62576">
        <ele>905.22</ele>
        <time>2010-05-29T16:51:14Z</time>
      </trkpt>
      <trkpt lat="44.90792" lon="5.62575">
        <ele>905.22</ele>
        <time>2010-05-29T16:51:29Z</time>
      </trkpt>
      <trkpt lat="44.90792" lon="5.62575">
        <ele>905.22</ele>
        <time>2010-05-29T16:51:42Z</time>
      </trkpt>
    </trkseg>
  </trk>
</gpx>